GFSSE_700_spd_000.txt.gz
Wind_Speed
7 10 11 14 15 16 15 16 16 14 13 13 12 8 5 7 7 6 8 7 7 8 8 9 8 8 7 8 8 8 10 12 13 13 14 14 15 15 15 15 17 15 15
6 8 10 12 14 15 15 16 15 16 16 14 13 12 9 7 7 6 6 6 7 7 8 8 8 8 7 7 7 8 9 11 13 14 14 14 14 14 15 15 16 15 15
5 6 8 10 12 14 16 16 16 16 16 16 15 13 12 10 8 7 7 6 7 8 7 7 7 8 8 9 10 10 10 12 13 14 15 14 12 13 14 14 15 16 16
4 5 7 8 10 13 14 16 17 17 16 16 15 14 13 12 10 7 6 7 7 8 8 8 9 10 10 12 12 12 12 13 15 15 16 16 15 14 14 14 14 16 18
5 4 6 7 9 11 13 15 17 17 16 16 15 15 13 13 11 8 7 7 7 8 10 10 11 11 12 12 12 13 13 14 14 16 15 15 15 13 14 15 14 17 19
6 4 5 6 8 10 11 14 17 17 17 16 15 14 13 12 10 9 7 7 8 8 9 10 11 12 12 12 12 13 13 14 13 14 13 14 13 16 15 15 14 17 19
7 5 5 7 8 9 9 12 15 17 17 17 16 13 12 10 9 7 5 5 5 6 7 9 9 9 9 9 9 10 10 11 12 13 14 14 13 14 15 15 15 16 19
9 6 4 6 8 8 9 12 15 16 17 18 17 15 12 10 8 6 6 6 6 6 7 7 7 7 8 8 9 10 11 11 12 13 13 14 14 14 15 16 15 16 18
10 7 4 4 6 7 8 11 14 15 16 18 17 14 12 9 8 7 6 5 5 6 6 7 7 8 8 9 9 10 10 11 12 12 13 14 15 14 14 14 17 18 18
11 9 5 5 6 6 8 11 13 14 15 18 16 13 11 10 8 7 7 6 6 7 8 8 9 10 11 12 13 14 14 15 15 16 17 18 18 18 19 19 19 19 20
12 11 7 7 6 7 8 10 13 13 15 16 15 13 11 9 9 9 8 10 11 11 12 13 14 15 17 18 19 20 20 19 19 19 19 20 21 22 23 24 23 23 24
14 13 11 9 7 8 8 10 12 14 15 15 14 11 10 10 9 10 11 11 13 14 16 17 18 19 20 20 20 20 19 19 19 19 19 19 20 22 23 24 24 24 24
18 16 13 11 9 9 10 11 13 16 16 16 14 11 10 10 10 11 12 13 15 16 17 18 18 18 18 18 18 19 20 20 21 21 21 21 22 23 23 23 24 24 24
20 20 17 14 12 11 12 14 16 17 18 16 16 16 15 13 14 14 15 16 16 17 18 17 19 20 22 23 24 25 25 26 26 26 26 26 27 27 27 27 27 27 26
20 21 19 17 14 13 15 17 18 17 17 17 17 17 15 15 16 16 16 17 17 18 19 22 24 26 27 26 27 27 27 27 29 29 29 29 30 31 31 31 31 30 29
26 24 22 19 18 18 18 20 21 18 17 18 18 18 17 18 19 18 19 19 19 21 23 25 26 27 28 28 28 29 29 29 29 27 27 27 28 29 30 30 31 32 30
28 26 25 23 21 20 21 24 22 18 17 18 19 18 18 20 20 20 21 21 23 24 26 27 28 29 30 31 30 28 26 26 26 27 27 27 28 29 29 30 30 31 28
27 26 27 24 23 23 24 24 21 18 18 18 17 18 19 20 21 21 22 23 25 26 28 29 30 32 32 29 25 24 25 27 27 27 28 28 29 28 28 29 30 31 32
24 27 28 29 27 25 24 21 17 17 18 17 18 20 20 20 21 22 23 24 26 28 29 31 33 31 27 26 26 25 26 28 28 28 27 28 28 27 28 28 28 29 30
24 26 30 31 28 23 18 16 16 18 17 17 18 18 20 20 20 21 22 25 27 29 31 31 27 27 29 27 26 26 27 28 27 26 26 27 28 29 29 30 30 30 32
24 27 29 27 19 15 14 16 16 15 15 15 15 18 19 19 20 21 24 26 29 30 27 24 26 26 29 28 28 26 25 27 27 27 26 27 28 28 28 30 31 34 35
22 24 22 18 15 14 15 16 15 13 13 14 15 16 16 18 20 23 26 28 28 27 26 26 26 26 29 32 33 32 31 28 29 29 29 31 32 33 34 36 37 39 41
20 18 17 15 15 15 15 14 13 13 13 12 13 14 15 19 22 24 26 26 25 25 26 27 27 28 29 32 36 38 40 40 40 35 35 36 39 40 42 43 45 45 46
20 20 18 18 17 15 14 12 12 10 9 10 12 15 18 22 23 23 23 23 23 24 26 28 30 31 32 33 34 35 38 42 46 52 41 40 43 46 47 48 48 49 49
22 22 20 18 16 15 13 12 9 7 8 10 13 17 20 21 21 22 22 24 26 28 30 32 34 35 36 36 37 37 38 39 43 49 57 54 50 49 50 52 50 49 49
24 23 21 19 17 15 13 11 8 7 9 11 14 17 19 20 22 23 25 27 30 32 33 35 36 37 37 38 39 40 42 44 46 50 55 59 62 62 61 58 52 50 48

GFSSE_700_spd_003.txt.gz
Wind_Speed
4 6 8 10 12 12 13 13 13 14 14 14 13 12 9 8 8 7 7 6 5 7 7 7 6 6 6 4 5 5 7 9 8 8 10 11 11 12 12 11 11 12 10
3 5 7 9 10 11 12 12 13 13 14 14 13 12 11 9 8 7 6 5 4 5 5 5 5 5 5 6 6 7 8 10 10 10 10 11 11 12 12 11 10 11 10
1 5 6 7 8 9 11 13 13 14 14 13 13 12 11 10 8 6 5 4 5 5 5 5 6 6 7 7 8 8 9 9 10 11 12 12 12 12 13 13 11 11 11
2 4 5 6 6 8 10 12 14 15 14 13 12 11 10 9 8 6 4 4 5 5 6 6 7 7 8 9 10 10 10 11 12 12 13 14 13 13 13 14 14 13 12
4 4 4 5 6 7 9 12 14 15 15 14 13 12 10 8 6 4 4 4 5 6 8 8 9 9 10 10 10 10 12 12 12 13 13 13 13 13 14 14 15 15 15
6 4 3 3 5 6 8 11 13 15 15 15 14 12 10 8 6 4 3 4 5 7 7 8 9 10 10 10 10 11 11 11 11 11 11 11 12 14 13 14 15 16 17
9 6 3 2 3 5 6 10 13 14 15 16 16 13 11 8 5 4 4 4 4 5 6 6 7 8 8 8 8 9 10 11 11 12 13 13 13 14 15 14 15 15 16
11 8 5 3 2 3 5 9 12 13 14 16 16 15 14 12 8 5 3 4 5 6 7 8 8 8 9 9 10 10 11 12 13 14 14 14 14 14 14 15 15 16 16
12 9 7 5 2 3 4 8 11 12 13 15 16 14 14 12 11 8 7 6 6 6 7 8 8 8 9 10 11 13 14 15 16 17 17 18 18 18 17 17 17 17 17
13 11 9 7 3 3 4 7 10 11 12 14 15 13 12 11 9 7 6 6 6 6 8 9 10 11 12 13 13 14 15 16 17 18 19 21 22 22 22 22 22 21 21
12 12 10 10 6 5 4 6 8 11 13 14 13 12 11 10 9 9 9 8 9 10 11 11 12 13 13 13 14 14 15 16 16 17 18 20 21 22 23 24 24 25 25
13 13 12 12 10 8 5 6 9 11 13 14 13 12 11 13 12 11 12 12 12 14 14 14 14 14 14 14 15 15 15 16 16 18 19 21 23 24 24 24 24 25 25
18 16 15 15 13 10 8 8 10 13 14 15 13 12 12 12 12 13 13 15 15 15 15 15 16 16 16 17 17 18 19 19 20 20 21 22 23 24 25 26 26 28 29
19 18 17 16 15 13 11 10 12 15 16 15 14 14 14 13 14 14 15 16 16 16 15 15 17 19 20 21 21 22 23 23 23 23 23 24 25 26 26 27 28 29 30
21 18 19 19 18 17 14 13 15 16 17 16 16 16 16 16 16 16 16 17 17 16 18 19 21 22 22 23 24 24 26 26 26 25 23 23 24 25 26 27 28 28 29
23 21 20 21 22 20 18 17 17 18 19 18 18 18 17 17 17 17 18 18 18 19 20 21 22 23 23 24 25 26 24 23 21 22 23 24 26 27 27 28 28 29 30
28 26 27 26 26 24 23 21 21 20 20 18 19 19 18 18 19 19 19 19 20 22 22 23 25 26 27 27 24 20 21 22 23 23 24 25 26 27 28 29 30 30 31
27 28 30 30 29 29 26 24 23 21 19 18 19 19 19 19 20 20 21 22 22 24 25 26 28 29 27 21 20 23 23 23 24 26 26 26 26 26 27 27 28 30 31
24 25 27 30 32 31 28 25 22 20 19 20 20 19 19 19 20 20 22 22 24 25 27 29 30 26 22 23 22 23 24 25 25 25 26 26 26 27 28 29 30 31 32
21 22 25 28 33 30 27 26 21 18 20 20 19 17 17 19 20 20 22 23 25 28 29 28 26 25 24 23 23 24 27 27 26 26 27 26 28 29 29 31 31 33 34
23 24 25 27 28 27 24 21 18 19 20 18 16 15 17 18 19 20 21 25 27 28 26 25 25 26 27 26 25 25 28 29 29 29 28 29 30 31 32 33 34 35 36
23 25 27 27 23 20 20 20 20 20 17 15 15 16 16 16 19 21 24 26 26 25 25 25 26 27 29 30 31 33 32 30 31 33 32 32 33 34 34 37 38 41 43
24 25 24 21 18 19 21 21 19 16 14 15 14 13 14 17 20 23 24 24 24 24 24 24 26 28 31 34 36 38 40 41 41 36 35 35 37 37 38 41 44 46 48
20 21 19 18 19 20 20 18 16 15 13 12 10 12 15 19 21 22 23 23 23 23 24 26 28 31 34 36 37 38 39 43 46 50 41 38 40 42 44 46 48 49 51
20 18 19 20 21 20 18 17 16 13 10 9 10 13 16 19 20 22 23 24 24 25 27 30 33 35 37 39 40 40 39 40 43 49 53 47 44 46 49 52 55 55 54
23 19 23 23 22 20 19 16 15 11 9 8 10 14 16 19 22 24 25 27 28 29 31 33 36 39 40 40 40 40 42 44 45 49 54 56 59 59 59 59 59 58 56

GFSSE_700_spd_006.txt.gz
Wind_Speed
2 3 5 8 9 9 9 10 10 10 11 12 12 11 10 8 6 4 3 2 1 1 2 2 2 3 3 3 5 6 8 9 10 10 10 10 10 11 11 10 9 8 7
3 2 7 6 7 8 9 10 9 9 10 11 11 10 8 7 6 3 2 0 1 2 2 2 3 3 4 4 5 7 8 10 9 9 10 11 12 12 13 12 12 10 10
2 3 5 5 5 6 8 9 10 11 11 10 9 8 7 6 4 3 1 1 1 1 2 3 3 4 5 6 7 8 9 10 11 11 13 13 13 14 14 14 13 13 12
1 2 4 4 4 5 7 9 11 12 12 11 10 8 6 5 3 3 2 1 2 2 3 3 4 5 6 7 8 9 11 11 12 13 14 14 15 15 16 16 15 14 14
2 2 3 2 3 4 6 8 10 12 13 13 12 10 6 4 2 2 1 2 3 3 4 5 6 7 7 8 9 10 12 13 13 14 14 15 16 15 16 16 16 16 15
4 3 3 1 1 2 4 8 9 11 13 15 15 13 11 7 3 2 1 1 2 3 4 5 7 7 8 8 8 10 11 12 12 12 13 13 14 14 15 16 17 17 17
6 5 4 4 1 2 3 7 9 11 13 14 15 14 13 10 6 2 2 2 2 2 3 4 5 6 7 8 8 9 10 12 12 13 14 15 15 16 16 17 17 18 18
10 9 7 6 4 2 2 6 8 9 12 14 14 14 13 12 9 6 4 1 1 2 3 4 5 6 7 7 8 9 11 12 14 15 16 17 17 17 16 17 17 17 18
13 12 9 9 6 4 2 4 7 8 10 12 13 12 12 11 10 8 7 5 5 4 4 4 5 6 7 7 9 10 11 12 14 15 17 18 17 18 18 17 18 19 19
15 13 12 11 9 7 4 2 5 7 9 10 12 12 11 10 9 7 6 6 6 7 8 8 8 8 8 8 9 10 11 12 13 14 15 17 17 17 17 19 20 20 21
15 14 13 12 11 9 7 4 3 6 8 9 10 11 11 11 9 8 8 9 9 10 10 10 9 9 9 10 11 12 13 14 15 16 17 19 19 19 19 20 20 20 19
15 15 15 15 15 13 10 8 5 6 8 9 10 11 12 12 12 10 11 11 12 12 11 11 11 10 11 13 15 15 16 17 18 19 21 22 23 23 23 23 23 23 24
19 17 15 17 17 15 14 12 9 9 9 10 11 12 13 13 13 13 14 14 14 14 14 13 14 15 14 15 17 18 19 19 20 21 22 24 24 25 25 25 26 27 28
20 21 19 17 17 18 17 15 13 12 12 12 13 14 15 14 13 13 14 14 15 15 16 16 16 18 18 18 19 20 21 21 23 24 24 24 23 23 24 25 26 26 28
26 21 19 19 17 18 19 18 16 16 16 15 15 16 16 16 15 15 16 15 16 16 17 18 19 21 20 20 22 23 24 24 23 21 20 21 21 23 24 25 25 26 27
27 25 21 19 18 19 20 20 20 20 20 18 18 18 18 17 17 17 18 17 18 18 19 21 21 22 21 22 24 24 21 19 19 20 21 22 23 24 25 26 27 27 29
30 28 25 23 22 22 24 23 23 22 24 21 20 20 19 18 19 19 19 19 20 21 21 21 22 23 23 23 20 18 20 21 21 22 23 24 25 25 26 27 27 28 29
32 31 28 27 27 27 27 26 25 25 26 23 21 21 20 20 20 19 20 20 21 21 22 23 25 25 24 20 20 21 21 22 22 24 25 25 25 26 26 27 28 29 30
29 29 31 30 29 31 30 28 27 27 27 24 22 22 21 19 19 19 20 20 21 22 24 26 26 23 20 20 21 22 22 23 25 26 26 26 27 26 28 30 30 31 31
30 29 29 27 26 28 30 29 26 26 26 23 22 22 19 17 17 19 19 20 22 25 26 27 25 23 21 21 21 22 23 25 27 28 28 27 27 28 31 31 33 34 34
29 28 26 22 22 24 25 27 26 25 24 22 21 19 16 15 17 17 18 22 25 26 25 24 24 23 23 23 23 24 26 28 30 30 30 29 30 32 32 35 35 36 38
25 25 24 23 22 22 23 24 24 23 22 21 18 15 14 13 14 17 20 24 25 25 24 24 24 24 25 25 27 29 30 29 30 31 31 33 33 34 35 36 37 38 40
23 20 20 22 22 22 23 24 22 21 20 17 15 13 11 11 15 19 21 23 24 25 25 25 25 25 27 29 32 35 38 40 42 37 33 32 35 36 36 37 39 41 44
21 18 17 21 21 21 22 21 19 16 15 15 13 10 9 12 16 19 21 22 24 26 26 26 27 28 31 33 35 38 40 44 46 49 44 38 37 38 40 41 44 46 49
22 20 18 19 19 20 19 18 16 16 17 15 11 9 9 13 16 19 22 25 27 28 29 29 30 32 34 37 39 41 41 41 42 46 49 44 40 41 45 48 52 54 55
26 21 17 18 19 20 19 18 17 16 15 12 9 8 10 14 17 20 24 28 30 31 32 32 33 35 37 39 42 43 44 44 44 46 50 51 54 53 54 54 55 57 58

GFSSE_700_spd_009.txt.gz
Wind_Speed
4 2 4 7 8 8 8 9 9 8 8 8 8 7 7 5 3 3 3 3 3 3 2 2 2 2 4 5 7 8 10 10 11 11 12 12 12 12 12 12 13 12 11
5 1 5 7 6 6 7 8 8 8 8 7 8 7 7 5 4 2 3 3 3 3 3 2 2 2 4 5 6 7 8 9 10 10 11 12 14 14 15 15 14 14 13
5 1 2 3 4 4 6 7 8 8 8 8 7 6 5 4 2 2 3 3 3 2 2 2 2 3 4 5 6 7 9 10 11 12 13 14 15 17 17 17 16 16 16
4 0 2 3 3 4 5 6 7 9 10 10 9 7 5 2 1 0 2 3 3 2 2 2 4 4 5 6 7 9 10 12 13 14 15 17 16 17 18 18 18 18 17
5 4 2 1 2 3 3 5 7 9 11 12 12 9 4 2 1 1 2 3 4 4 4 4 5 6 7 8 9 10 12 13 13 14 15 17 16 16 16 16 16 17 16
11 5 3 2 1 2 2 4 6 8 10 12 12 11 9 3 0 2 2 1 2 3 3 3 4 5 6 7 8 9 10 11 12 13 14 13 14 15 15 16 17 16 17
12 7 3 3 4 3 1 3 5 7 9 11 12 12 11 9 4 1 1 2 1 1 1 2 3 4 5 6 7 8 10 10 11 12 13 14 14 15 14 15 15 15 16
13 10 7 6 6 5 2 1 3 5 8 10 11 11 11 10 9 7 4 2 2 2 2 2 2 3 4 6 7 8 9 10 11 13 14 14 14 15 14 14 15 14 14
17 14 11 10 9 8 6 2 1 3 6 8 10 10 9 9 9 8 7 5 4 4 4 4 4 5 5 6 7 8 10 11 13 14 15 15 14 14 15 16 16 17 17
18 17 15 13 12 10 9 5 3 2 4 7 9 10 10 9 7 6 5 5 5 5 6 6 6 6 8 9 9 10 11 12 13 14 15 15 15 15 16 17 17 17 17
19 18 17 15 14 12 12 9 7 4 4 6 8 9 10 9 8 7 7 7 7 7 7 8 9 9 10 11 11 11 12 14 15 16 18 19 19 19 20 20 20 21 21
16 17 17 16 16 17 15 13 11 8 7 7 8 9 10 10 10 10 9 9 9 10 10 11 11 12 12 13 16 16 16 17 18 20 21 22 22 22 22 23 23 24 24
19 18 19 19 18 18 17 17 16 13 11 10 10 10 10 11 11 12 13 12 12 13 13 13 14 15 16 17 18 19 19 20 21 21 23 24 24 25 25 25 25 26 26
20 21 20 19 19 20 20 20 19 17 14 14 13 13 13 12 12 13 14 15 14 15 15 16 16 17 18 18 19 21 21 22 23 23 22 20 21 21 22 22 23 23 25
22 21 19 19 18 18 19 21 22 20 18 17 16 16 15 14 15 16 16 16 15 16 17 17 19 19 19 20 21 22 22 20 17 17 18 18 20 21 22 23 23 24 25
26 25 24 21 20 19 19 19 22 23 21 20 20 18 18 17 17 18 18 18 18 18 18 19 19 20 20 21 23 21 18 16 17 18 18 19 20 22 23 24 25 25 25
26 27 28 26 24 21 20 20 21 22 23 22 21 21 21 20 19 19 19 19 20 20 20 20 20 20 21 20 20 17 18 18 18 19 19 20 22 23 24 25 26 26 27
30 30 32 31 28 26 25 24 23 23 25 26 24 23 22 21 21 20 19 20 19 20 20 20 21 21 20 18 19 19 18 18 19 20 22 23 25 26 27 28 29 29 31
31 30 27 30 31 29 31 29 25 25 26 27 27 25 23 21 21 19 19 18 18 19 21 22 21 20 18 19 19 19 19 20 21 23 25 27 28 29 30 31 32 34 34
32 32 28 26 27 30 32 31 27 28 27 27 27 24 21 20 19 17 17 17 17 20 22 22 22 20 19 18 19 19 20 22 23 25 27 28 29 30 31 33 35 35 37
32 28 28 27 28 29 30 29 27 25 26 26 25 22 21 18 16 16 15 16 19 21 21 22 22 21 21 21 19 21 22 23 25 25 27 30 30 31 32 35 37 38 39
30 29 27 29 29 27 25 24 24 25 26 25 22 21 19 16 15 14 14 16 19 20 21 22 23 24 24 23 24 25 25 25 26 27 29 30 32 33 35 36 37 39 40
31 28 26 27 26 26 23 26 25 25 26 23 20 18 16 15 13 13 13 16 18 21 23 25 25 26 26 26 27 28 31 32 33 31 31 31 31 31 33 35 37 39 41
30 26 25 25 24 24 23 26 27 23 21 17 17 17 16 13 11 12 13 16 20 23 26 28 28 28 28 28 28 30 33 36 39 42 40 40 40 37 36 38 39 42 45
33 28 26 23 22 22 24 25 25 20 19 18 18 18 15 12 11 11 14 18 21 25 28 30 30 30 30 30 31 33 35 37 40 43 45 42 40 38 39 42 44 47 50
36 31 27 23 21 22 22 22 21 19 18 17 18 16 13 12 11 13 16 19 23 26 29 31 32 33 33 33 35 37 39 41 42 45 48 47 47 47 46 47 48 50 54

GFSSE_700_spd_012.txt.gz
Wind_Speed
5 1 2 7 10 8 9 8 8 7 6 5 5 4 3 2 2 2 4 5 5 4 5 5 4 4 4 6 7 7 9 10 10 11 12 13 13 14 14 15 15 16 15
7 5 2 5 7 5 5 6 6 7 7 7 6 5 4 2 1 1 2 3 4 4 4 4 4 4 4 4 5 7 8 9 10 11 12 13 14 15 16 17 16 16 17
9 5 2 1 2 3 4 5 5 6 7 7 5 4 3 3 1 1 3 4 5 5 4 3 4 4 4 5 6 7 9 10 11 13 14 15 16 17 18 18 17 19 18
7 4 2 1 0 2 3 4 5 6 8 9 8 5 4 3 2 3 4 5 5 4 4 4 5 5 6 7 8 9 11 12 14 14 16 17 17 18 18 19 18 19 18
7 3 4 4 2 1 3 3 3 5 8 9 9 8 4 2 3 3 3 3 3 3 3 5 5 6 7 8 10 11 12 13 14 15 16 17 17 17 17 16 16 16 16
8 6 6 8 4 2 1 2 3 4 7 9 9 9 8 3 2 2 3 3 3 3 3 4 5 6 7 8 9 11 11 12 13 13 14 14 14 14 15 16 16 16 17
17 14 12 9 6 4 3 2 2 4 6 8 9 9 9 7 3 1 1 1 1 2 2 4 5 5 5 7 7 8 9 10 11 12 13 13 14 14 15 15 15 15 16
16 15 13 10 8 8 6 4 3 2 4 6 8 9 8 8 7 5 3 2 1 1 2 3 3 4 6 7 8 9 10 11 12 13 13 14 14 14 15 15 15 16 16
18 18 18 15 12 12 10 7 5 3 3 6 8 9 9 7 6 5 4 4 3 3 4 5 5 7 8 9 10 12 13 14 14 15 15 15 15 16 16 17 17 17 16
19 20 20 17 16 15 13 11 8 6 5 6 6 8 8 8 7 6 4 3 3 4 6 7 8 9 10 11 12 12 14 15 15 16 16 16 16 17 17 18 19 19 18
21 22 22 21 18 16 15 14 12 9 7 7 8 8 8 8 8 8 6 6 6 7 8 9 11 11 12 12 12 13 14 16 17 18 20 21 20 21 21 22 23 23 22
22 22 21 21 17 18 17 14 16 14 11 9 10 10 10 10 9 10 10 10 9 9 10 11 13 13 14 15 16 17 17 19 20 22 23 24 24 24 24 25 25 24 24
23 21 22 23 24 24 22 21 19 18 16 13 13 12 13 12 12 12 12 12 12 12 13 14 16 17 17 18 19 19 20 21 22 23 23 24 25 25 24 22 22 23 25
23 22 22 21 22 22 22 19 23 21 19 17 16 15 15 15 15 15 14 14 14 15 16 17 18 19 20 20 20 21 21 22 22 22 20 18 19 19 20 20 20 22 23
24 20 21 21 21 20 28 20 27 22 24 20 18 17 17 18 18 19 16 16 15 16 17 19 19 20 21 22 22 23 21 20 17 17 18 18 18 18 19 20 21 22 23
27 25 24 22 22 22 20 22 23 24 23 22 22 20 19 20 20 20 19 18 18 18 18 19 20 21 22 23 23 22 19 16 17 17 17 18 19 19 20 21 22 23 24
29 29 27 26 25 24 23 25 23 21 20 22 23 24 22 21 22 21 19 20 19 19 19 20 20 22 24 23 21 18 16 16 16 17 18 19 21 22 23 24 25 26 28
30 31 31 30 29 28 27 26 24 24 24 24 25 24 25 24 23 22 19 19 19 19 19 19 21 23 23 21 19 17 17 17 18 19 21 22 24 25 26 28 29 30 31
37 35 32 32 32 33 33 30 28 28 27 27 28 27 28 25 23 21 19 18 17 18 18 20 20 20 20 20 18 17 17 18 19 21 22 24 25 27 29 30 32 33 35
42 39 36 34 33 31 35 34 32 32 32 33 31 28 27 24 22 20 18 17 16 17 19 19 19 19 19 20 20 19 19 20 21 23 24 25 27 29 31 33 34 36 37
46 42 39 36 33 31 31 32 33 33 31 33 31 27 26 23 21 19 16 16 14 17 17 18 20 20 21 21 21 22 22 23 23 24 25 28 29 30 33 34 36 38 39
47 44 41 38 34 31 29 32 33 31 30 30 30 27 25 23 19 17 15 14 14 14 16 19 22 23 23 23 23 22 23 24 24 25 27 29 32 33 34 35 37 39 40
48 45 41 34 33 32 31 33 32 31 30 30 29 27 23 21 18 16 14 13 12 14 17 20 22 24 24 24 25 26 28 29 29 28 29 31 33 33 34 33 34 36 39
43 45 42 34 33 34 33 32 30 29 27 29 25 23 23 21 18 16 14 12 12 15 18 20 23 24 25 26 26 26 28 30 33 36 36 38 39 37 34 35 35 37 40
42 41 40 35 33 33 32 30 29 30 30 29 25 23 23 21 18 16 13 12 14 17 19 22 24 27 28 29 28 29 30 33 35 39 40 40 42 42 42 41 41 42 45
46 42 39 36 34 32 30 29 29 31 29 28 25 24 23 20 19 16 13 14 16 19 21 24 27 30 32 33 33 33 34 36 38 42 46 45 45 43 44 44 46 46 49

GFSSE_700_spd_015.txt.gz
Wind_Speed
6 4 2 4 10 10 8 8 7 7 8 8 7 6 6 7 5 5 4 4 3 4 4 4 4 4 5 5 6 6 9 9 10 11 11 12 13 14 14 14 15 16 14
10 7 3 4 8 7 7 7 7 8 8 7 8 7 6 5 4 3 3 3 4 4 4 5 4 4 4 3 4 6 7 8 9 11 11 13 13 14 15 15 15 16 15
11 7 2 3 6 6 6 7 7 8 9 9 8 7 7 6 4 4 3 4 4 4 4 4 4 4 4 5 5 6 8 8 10 11 12 14 15 16 16 17 17 17 17
11 7 3 2 4 3 4 5 6 6 7 8 9 8 6 7 6 4 3 3 3 3 4 4 4 3 4 6 7 8 9 9 11 12 13 15 15 15 16 17 18 18 18
10 7 5 3 5 4 3 2 4 6 7 7 8 9 7 5 5 4 3 4 4 4 5 5 5 5 6 7 8 10 10 11 12 13 14 14 15 14 15 15 16 15 15
11 6 5 6 9 7 5 2 1 5 6 8 9 9 9 6 3 3 3 3 3 3 3 4 4 5 6 7 8 9 10 11 12 13 14 14 15 14 15 15 15 16 16
15 16 15 13 12 8 7 4 2 3 5 7 8 9 9 9 5 1 1 1 2 3 4 4 5 5 6 7 8 9 9 11 12 13 14 15 14 15 16 15 16 16 15
20 19 18 15 12 11 9 7 5 4 4 5 7 9 9 9 8 6 4 3 3 3 4 4 5 6 7 8 9 9 10 11 12 12 14 15 14 15 16 16 16 17 17
22 22 20 18 15 14 12 11 8 6 5 5 7 8 9 9 8 6 5 4 4 5 5 6 8 9 10 11 12 12 12 13 14 14 15 16 15 16 16 17 17 17 16
21 21 22 20 18 17 16 14 11 9 7 6 5 7 8 9 9 8 7 6 6 7 7 8 9 10 11 12 13 13 14 14 15 16 17 16 17 18 19 20 20 20 20
22 22 22 21 20 16 21 16 14 12 10 9 8 8 8 9 10 10 10 9 8 9 9 10 11 12 12 13 14 15 17 18 18 19 21 20 21 22 22 22 22 21 22
23 23 22 22 22 20 26 18 17 15 15 13 11 10 10 10 11 12 12 12 11 11 11 12 13 14 15 16 16 17 19 20 21 22 22 23 23 24 25 23 22 23 22
25 25 23 24 24 23 23 18 19 19 19 18 15 13 12 12 12 14 14 14 14 14 14 14 16 17 17 18 19 21 21 21 23 24 22 24 24 23 21 18 19 19 19
27 26 24 24 24 25 26 27 29 25 22 20 19 16 15 14 14 16 16 16 17 16 17 17 18 19 18 20 21 22 23 24 24 24 20 18 17 18 18 19 18 18 20
31 29 26 23 23 23 25 24 28 25 26 22 24 20 19 16 16 17 18 18 18 19 18 19 20 21 20 21 22 23 23 23 22 20 17 18 16 17 18 18 18 19 21
31 30 27 25 23 22 21 22 25 24 32 25 24 25 23 21 19 19 19 20 20 21 20 20 21 22 22 22 23 23 23 21 19 18 19 17 16 17 18 20 20 22 23
31 30 32 30 28 25 23 21 24 24 24 23 24 24 24 24 21 20 21 21 20 21 21 21 21 22 23 23 23 21 19 19 17 18 18 17 17 19 20 22 23 24 26
34 32 33 34 33 31 27 26 26 24 22 22 24 24 25 25 24 22 22 22 22 21 20 20 21 22 23 22 20 19 18 18 17 18 18 19 20 22 22 24 26 27 29
35 39 38 34 34 35 31 30 29 29 28 26 26 27 27 27 26 25 23 22 21 20 19 19 20 22 21 20 19 19 19 19 19 20 20 22 23 25 26 27 29 31 32
34 45 42 41 36 34 33 34 33 34 32 29 30 30 31 29 27 26 24 22 20 19 18 18 19 19 20 21 21 21 21 21 22 23 24 25 26 28 29 30 32 34 35
47 51 49 48 42 40 38 35 33 34 34 34 35 34 33 30 28 26 24 21 19 17 17 16 17 18 20 22 23 24 24 24 25 25 26 27 29 30 31 33 35 37 39
52 54 51 49 47 44 42 36 33 32 31 35 34 33 32 30 29 26 22 19 18 16 15 15 16 17 19 22 23 24 24 27 24 26 28 29 30 32 35 36 38 40 41
48 52 53 53 49 47 44 40 34 33 34 34 34 31 31 30 29 24 20 18 17 15 13 14 15 18 21 22 24 26 27 27 27 28 29 30 32 34 36 38 38 39 40
46 51 51 53 51 48 44 40 36 33 31 32 31 29 31 29 27 23 20 19 17 14 14 14 16 19 22 25 26 27 28 30 32 32 33 34 36 37 38 38 36 36 37
41 48 48 50 50 49 42 38 34 34 36 35 31 31 30 28 21 27 22 20 17 15 15 16 19 21 24 27 29 31 32 33 35 36 35 36 40 41 44 45 44 42 42
44 45 48 47 48 49 41 38 35 38 37 34 32 31 29 26 31 24 22 20 17 16 17 19 22 25 27 30 32 34 35 36 37 39 42 42 43 42 44 44 43 45 46

GFSSE_700_spd_018.txt.gz
Wind_Speed
6 4 3 3 7 11 10 10 10 9 9 8 7 7 7 7 6 6 6 3 2 2 3 2 1 2 3 3 3 4 6 6 8 9 10 11 11 12 12 12 13 13 13
9 7 5 2 6 9 9 9 9 10 10 10 9 8 7 5 6 5 3 2 1 2 2 2 2 2 2 3 2 3 4 5 6 8 9 10 11 11 12 12 13 15 14
10 9 6 1 4 6 6 7 7 8 9 10 10 9 8 6 6 5 4 2 2 2 2 2 2 2 3 3 3 3 3 5 7 9 10 10 11 13 12 13 14 14 15
12 10 6 2 2 5 5 6 5 5 9 10 11 11 9 7 5 4 3 2 2 3 2 2 2 3 4 5 4 3 5 7 8 10 12 13 12 13 13 14 14 15 15
11 10 7 3 2 5 7 6 5 5 6 9 10 11 11 9 5 4 3 3 3 3 2 2 3 4 5 5 5 6 7 8 9 11 12 12 13 13 13 14 14 13 14
13 11 7 5 4 10 8 5 5 5 6 8 10 11 12 11 8 5 4 3 2 3 2 2 2 3 4 5 5 7 8 10 10 10 11 11 11 12 13 13 14 15 15
14 10 9 9 12 10 8 6 5 5 5 6 8 10 10 11 10 7 4 3 3 3 3 4 4 4 5 6 7 8 9 10 11 12 12 13 12 14 14 14 15 15 15
16 14 13 14 14 13 10 9 7 6 6 5 7 9 10 11 10 9 7 7 6 6 6 6 6 7 7 8 8 9 10 11 12 11 13 11 13 13 14 14 15 15 15
20 17 17 18 16 15 12 11 10 8 6 5 5 7 9 11 11 10 9 8 7 7 8 8 9 9 9 10 10 11 11 12 13 14 15 13 14 14 14 15 15 16 17
22 20 21 20 18 18 15 13 12 10 8 6 5 5 7 9 11 11 11 9 9 10 9 9 10 10 10 11 11 11 12 13 15 16 15 16 17 18 18 19 19 19 20
23 24 23 21 20 20 18 15 14 15 11 10 8 7 6 7 9 10 12 12 12 12 12 11 11 12 12 12 13 13 14 16 17 19 17 18 19 20 20 19 20 20 21
22 22 22 25 23 22 20 18 18 19 14 13 13 11 9 7 8 10 11 12 13 14 14 14 14 14 15 14 15 16 16 17 19 20 18 20 21 21 21 19 18 17 17
24 24 25 26 25 24 23 22 21 21 17 17 17 16 13 11 10 10 12 13 14 15 16 17 16 17 17 18 18 20 18 19 22 21 20 21 21 18 16 16 15 15 16
30 28 28 26 26 25 26 23 23 21 20 21 18 20 17 15 13 12 13 14 15 16 18 19 19 18 19 19 19 20 20 21 23 21 20 18 17 17 16 15 15 15 16
25 33 31 28 25 26 26 24 25 26 26 24 23 20 20 18 17 17 14 15 16 19 20 20 21 21 20 21 21 21 21 22 23 21 17 17 16 16 15 15 15 16 17
28 32 32 30 27 25 25 23 24 26 26 25 27 21 23 21 22 19 18 17 16 18 21 22 22 22 22 22 22 23 22 22 22 21 17 17 17 16 15 16 17 18 19
32 33 32 31 30 27 25 24 22 22 24 25 23 22 22 24 25 20 20 20 18 20 21 22 23 22 23 22 23 22 21 21 19 20 18 16 17 17 18 18 19 20 21
29 31 34 35 33 31 29 27 24 23 24 21 21 22 23 23 21 22 22 22 21 21 20 22 22 22 22 22 21 21 19 19 19 19 19 19 19 18 20 21 22 23 25
34 33 28 35 38 32 31 31 30 28 29 26 27 25 23 24 23 23 23 23 23 22 21 21 21 21 21 20 20 19 20 20 20 21 21 22 22 23 24 24 25 27 28
45 36 34 37 42 37 32 32 34 33 34 33 34 31 27 28 26 26 26 25 26 23 21 20 20 20 19 19 19 19 20 21 22 23 24 26 25 25 27 28 29 31 31
46 47 39 43 46 43 42 38 36 33 32 33 33 32 32 31 30 30 28 26 27 23 21 20 18 17 17 17 18 20 19 21 22 23 25 27 29 29 29 30 32 34 35
39 47 47 47 50 49 47 43 38 37 36 33 31 28 32 32 32 31 29 27 25 23 21 18 17 15 15 16 17 19 21 22 22 23 26 28 29 31 32 34 34 36 38
37 39 50 55 54 55 48 49 45 40 39 33 31 31 33 30 30 30 29 27 24 22 20 18 16 14 14 17 19 21 25 26 27 27 28 29 31 32 33 35 36 38 40
40 38 42 51 55 55 53 52 48 44 40 34 29 29 30 30 29 30 28 25 21 21 20 18 16 15 16 18 20 24 26 29 31 30 31 32 33 34 36 37 37 38 39
41 41 40 43 49 50 54 51 48 46 42 34 30 30 31 29 29 31 28 24 23 21 20 18 17 17 19 21 24 27 30 32 35 36 34 33 34 36 39 40 41 41 41
34 44 43 41 45 48 49 47 49 47 42 33 32 34 33 31 31 31 28 25 23 22 21 19 18 19 21 24 27 31 34 36 39 42 42 39 40 38 41 40 41 41 42

GFSSE_700_spd_021.txt.gz
Wind_Speed
10 7 3 1 3 7 10 9 8 8 8 8 8 7 5 5 6 5 5 3 1 2 3 3 4 3 1 1 1 3 4 6 7 9 9 10 10 10 10 10 11 10 11
10 7 6 3 1 5 9 9 8 7 8 9 9 9 6 5 6 6 4 2 2 1 1 2 2 2 1 1 1 2 3 5 6 6 6 8 8 9 10 11 12 11 12
8 7 7 5 1 4 6 6 7 7 7 9 10 11 8 5 4 4 4 2 0 0 1 1 0 1 0 0 1 2 4 5 5 6 7 8 10 11 11 12 14 14 14
8 9 8 6 2 1 4 7 6 6 7 8 10 10 11 8 4 3 3 2 2 1 1 1 1 2 2 2 2 3 5 6 7 7 9 8 11 12 12 13 13 14 13
10 11 10 7 3 1 7 8 6 6 7 8 9 10 11 11 8 4 3 3 2 2 2 2 2 3 3 3 3 5 5 6 7 9 10 10 10 12 12 11 11 11 12
13 12 10 7 4 5 7 6 6 6 7 8 9 9 10 11 11 8 5 3 3 2 2 2 2 3 3 3 4 5 6 6 7 8 9 9 10 11 11 12 12 12 12
14 14 10 6 6 7 6 7 8 6 6 7 9 10 11 11 11 11 9 6 4 3 3 3 4 4 4 4 4 5 6 7 9 9 9 8 9 11 11 11 11 11 12
12 16 10 10 10 9 9 8 8 8 7 7 7 8 10 11 11 10 9 8 7 6 6 5 5 5 4 4 5 6 8 9 9 10 11 11 11 11 12 11 11 12 12
17 18 16 12 12 12 12 11 8 8 8 7 5 6 8 10 11 11 10 9 8 8 7 7 7 7 7 8 8 9 9 11 11 11 11 12 12 13 14 14 14 15 15
19 20 18 17 15 15 14 14 12 10 8 8 6 4 4 6 7 9 10 10 11 10 10 10 9 9 10 11 11 11 11 13 12 13 12 15 15 15 15 15 17 17 17
20 20 20 20 19 18 16 16 14 13 11 10 9 7 5 6 6 6 7 9 10 11 12 12 12 12 12 13 14 13 14 16 14 13 14 15 16 17 16 16 18 18 18
21 22 23 23 22 20 19 19 17 16 15 14 13 10 9 7 7 8 9 9 10 11 13 14 14 14 14 14 15 15 16 19 16 14 15 16 18 18 17 15 14 13 12
23 22 24 26 25 22 21 20 20 20 18 16 16 14 11 12 10 9 8 8 10 12 14 14 16 17 17 18 18 18 18 19 17 17 17 18 18 17 14 14 13 13 12
27 26 26 25 25 25 24 23 22 23 22 19 18 16 14 13 14 14 13 11 12 11 13 15 16 18 19 19 19 20 21 22 18 18 17 18 17 16 15 14 14 14 13
32 32 31 28 27 28 26 26 24 25 24 23 21 20 19 16 14 18 15 16 15 13 14 16 17 19 20 20 20 20 21 23 20 18 16 16 16 16 16 15 15 15 15
24 29 32 32 27 27 27 27 25 25 25 26 25 24 20 19 18 18 17 21 20 18 17 17 17 18 20 21 21 21 21 22 20 18 16 16 16 17 17 17 17 17 17
24 27 32 33 30 27 27 27 27 25 25 25 26 26 21 20 18 21 22 21 20 19 20 20 20 19 20 21 21 21 21 20 20 18 16 15 17 17 18 19 19 20 20
36 28 33 36 34 29 28 27 26 25 25 25 23 23 23 20 20 22 23 20 22 21 22 23 22 21 20 20 20 20 19 19 20 18 17 17 17 18 20 21 22 22 23
43 40 31 37 38 35 29 28 28 28 28 25 23 23 24 21 21 23 23 22 23 23 23 24 23 22 20 19 18 18 18 18 19 19 19 19 21 21 21 22 24 26 26
42 43 35 34 38 39 35 30 31 31 30 29 28 28 27 26 26 26 25 24 25 26 26 25 24 22 19 18 16 16 16 17 18 19 19 19 21 22 24 24 27 28 30
37 45 43 38 40 41 42 38 35 34 32 31 30 29 27 26 29 29 29 28 25 27 27 25 24 21 18 17 15 14 15 16 18 20 21 22 23 25 25 27 28 30 31
33 39 46 45 43 43 46 43 40 37 36 33 31 28 28 28 29 30 29 28 26 26 25 24 23 20 18 16 14 14 15 16 18 20 23 24 26 27 28 29 30 31 33
38 37 39 48 49 46 45 48 47 43 42 39 36 31 29 30 31 28 27 26 26 24 24 24 22 20 18 16 15 16 18 20 22 23 25 27 29 30 31 32 33 34 36
39 42 41 43 51 53 50 52 52 51 45 42 37 32 30 30 30 29 27 27 28 26 23 23 22 21 19 18 18 19 20 23 25 28 29 31 31 33 34 34 36 38 39
35 39 44 42 45 57 58 57 57 55 49 43 40 35 33 32 31 30 28 29 29 28 22 23 23 21 20 20 20 22 24 27 29 31 31 32 33 35 36 36 38 40 41
31 37 41 40 41 51 59 61 61 62 51 44 41 36 36 35 34 31 30 30 27 27 24 24 24 23 22 22 23 24 27 30 34 37 38 38 39 37 37 38 39 40 40

GFSSE_700_spd_024.txt.gz
Wind_Speed
14 12 7 2 2 5 9 10 9 7 7 8 8 7 6 5 6 7 6 4 2 0 1 3 3 3 1 2 3 6 8 9 8 9 9 9 10 10 10 10 10 10 10
16 13 8 5 2 4 7 7 8 7 7 7 9 9 7 5 4 4 4 3 1 1 2 3 3 2 1 1 2 4 4 4 4 5 7 7 8 9 9 11 11 11 12
15 12 10 9 6 1 4 8 9 8 8 8 8 9 9 6 4 3 3 2 2 1 1 1 1 1 1 1 2 2 2 3 4 5 6 8 9 10 10 12 12 12 13
14 12 10 10 8 3 2 7 7 7 8 9 9 9 9 8 4 2 3 2 2 2 1 1 1 1 2 2 3 4 4 5 6 6 7 9 10 11 12 12 13 13 12
13 12 11 10 8 5 3 4 5 6 7 8 9 9 8 8 7 3 2 3 4 3 3 3 3 3 3 3 4 4 5 6 7 8 8 8 11 11 11 10 10 11 12
12 12 12 10 7 3 2 2 3 6 6 7 8 9 9 8 9 9 6 5 4 4 4 4 3 3 3 4 5 6 6 6 6 6 7 8 9 9 10 11 10 10 10
13 14 14 12 8 4 3 3 4 6 6 6 7 7 8 9 9 10 10 9 8 7 6 5 5 4 4 4 5 6 6 6 7 6 6 7 8 8 8 9 9 9 10
12 16 16 12 10 8 4 7 5 5 6 6 6 6 8 11 11 10 9 9 8 7 6 6 5 5 5 6 6 7 8 8 8 9 8 8 9 9 9 8 9 11 10
15 17 20 16 13 10 8 10 9 7 6 6 6 3 5 8 9 10 10 10 9 8 7 6 6 6 6 7 8 9 10 10 11 11 11 12 12 12 12 12 13 14 13
18 20 22 19 15 14 11 12 12 10 9 7 4 5 3 4 6 7 8 8 9 9 9 8 8 8 9 10 11 12 11 12 13 13 14 14 15 15 14 15 15 15 16
18 22 24 23 20 17 15 14 13 13 12 11 9 6 5 4 4 6 7 7 8 9 9 10 10 11 12 13 13 15 14 13 13 14 15 16 17 15 16 17 17 18 17
16 18 20 22 21 20 17 17 16 16 15 14 13 11 9 7 7 6 6 6 7 9 10 11 12 13 13 14 14 16 17 17 16 15 16 17 17 16 17 16 16 14 12
18 18 17 19 20 20 20 21 19 18 18 17 15 15 13 11 9 9 10 9 9 8 11 12 13 14 14 15 16 17 16 16 16 17 17 19 17 16 14 15 14 14 13
25 23 21 20 20 20 21 21 21 20 20 21 20 18 15 14 13 12 12 11 13 12 13 13 14 15 16 16 17 18 17 17 17 17 17 18 16 15 14 14 14 14 14
28 30 27 26 25 23 21 20 20 21 22 23 23 21 18 17 18 16 14 13 16 16 16 16 16 17 17 17 18 19 18 18 18 17 16 16 16 14 14 14 14 15 15
30 32 35 35 32 29 25 23 22 23 24 25 24 24 24 21 19 19 16 16 18 18 17 19 19 19 19 19 19 20 19 17 17 17 16 16 16 15 14 14 15 16 17
30 29 31 32 31 29 26 26 24 24 24 24 24 25 25 23 23 19 18 18 19 19 20 20 20 20 20 20 20 20 20 18 16 16 17 17 17 17 17 17 17 18 20
34 34 35 32 32 30 27 27 26 24 23 24 24 22 22 24 25 20 20 19 20 21 21 21 22 22 23 22 21 20 19 18 17 15 15 16 17 18 19 19 21 22 23
41 37 36 38 35 33 32 29 28 27 25 27 25 22 23 23 22 19 20 21 22 23 22 22 24 25 24 23 21 19 18 16 15 14 14 15 16 17 18 20 22 24 26
47 43 41 38 42 36 34 31 31 31 29 29 28 26 23 23 23 23 24 26 26 25 24 25 26 26 24 23 20 19 17 16 15 14 15 16 17 19 20 22 24 26 28
57 54 50 44 44 45 40 37 35 34 31 31 30 28 26 24 25 23 25 27 27 26 25 26 26 24 24 22 20 18 16 16 15 16 16 18 19 21 23 25 27 28 30
42 48 50 51 53 45 45 39 39 38 34 31 33 32 29 26 25 25 26 27 28 26 25 26 25 24 23 22 20 19 18 17 18 18 20 21 24 25 26 28 30 32 33
37 37 38 44 55 50 46 45 44 41 41 39 38 37 34 30 27 25 27 28 28 27 26 25 23 24 23 22 21 20 19 19 20 21 23 25 27 29 30 31 34 35 37
39 41 40 40 47 58 54 52 49 50 48 43 39 35 36 33 29 26 29 28 27 27 28 24 22 24 24 23 22 22 21 21 22 24 26 28 30 32 33 35 37 39 40
32 39 46 47 47 48 52 59 55 54 51 45 41 40 38 37 35 30 31 28 30 28 30 27 21 23 25 24 24 23 23 24 25 26 28 31 33 35 37 38 40 42 43
30 33 37 46 53 52 53 54 54 52 51 49 43 44 43 38 38 33 31 31 33 31 30 25 29 23 27 26 26 25 26 27 29 30 32 34 36 36 37 39 41 43 44

GFSSE_700_spd_027.txt.gz
Wind_Speed
10 8 7 6 4 4 8 11 10 10 10 10 11 11 10 9 8 9 9 7 6 4 2 2 2 2 3 2 4 6 6 7 7 8 8 8 8 9 10 9 10 9 10
14 10 9 7 4 1 6 11 10 10 10 10 10 10 10 8 7 7 7 6 5 5 4 3 3 4 3 2 2 2 2 4 5 5 6 6 7 8 9 9 10 11 11
14 14 12 10 6 1 2 8 8 8 10 11 11 10 9 8 5 4 5 5 5 4 4 4 3 2 3 3 2 1 0 2 3 4 5 6 7 8 10 11 11 12 13
17 15 13 11 9 5 2 5 6 6 8 9 10 10 10 8 6 2 2 3 3 4 4 4 3 4 4 4 4 4 4 4 5 6 7 8 9 10 11 12 12 11 11
16 16 14 12 9 7 3 3 3 5 7 8 10 9 8 8 7 4 3 3 3 4 3 3 3 3 4 4 4 5 5 5 5 6 8 9 10 11 11 10 10 10 10
14 15 14 12 10 7 2 2 1 4 5 7 9 9 7 7 8 8 6 5 5 4 4 4 4 4 4 4 5 5 5 6 6 7 8 9 10 11 11 9 9 9 9
9 14 14 13 12 7 4 3 1 2 4 5 8 7 8 9 9 8 9 9 9 8 8 7 7 6 6 6 6 7 6 6 7 8 7 9 10 9 9 9 9 9 9
10 14 16 16 14 9 6 6 4 3 3 4 4 4 6 10 11 11 10 9 8 8 7 7 7 7 7 8 8 8 8 9 8 9 9 9 11 11 9 10 11 11 10
12 15 18 19 17 12 9 8 8 7 5 4 3 2 3 6 8 9 9 10 10 10 9 8 8 8 8 8 8 9 9 10 11 12 12 12 12 11 12 13 14 15 14
19 17 20 21 18 15 13 11 10 10 8 8 6 4 1 2 4 6 8 9 9 9 9 10 10 10 9 9 10 9 10 11 12 13 14 14 14 13 14 14 16 16 16
16 18 20 21 20 19 17 14 12 12 12 11 10 8 7 3 3 2 3 4 5 7 8 9 10 11 11 11 12 11 11 11 12 13 15 16 15 15 15 16 17 17 15
17 18 22 23 24 23 21 17 15 15 14 13 11 11 10 9 6 6 6 5 4 5 6 8 10 11 13 13 13 13 13 13 14 14 15 16 16 16 16 16 15 14 13
18 16 18 21 21 23 22 20 19 18 17 15 14 13 13 13 11 10 10 8 7 7 8 9 10 12 14 15 15 15 15 15 15 16 17 17 17 16 16 15 14 13 12
22 21 19 19 20 19 20 20 21 21 20 19 17 16 16 15 15 13 13 12 11 10 10 12 12 13 14 16 17 17 18 17 16 16 16 16 16 15 15 15 15 14 14
31 28 27 24 22 20 18 20 20 21 21 21 19 18 19 19 18 16 16 15 14 14 13 14 15 15 16 18 18 18 18 18 17 17 16 16 15 15 15 15 15 16 15
32 31 28 29 30 27 25 22 21 21 21 22 21 21 22 22 21 21 18 17 17 17 16 16 17 17 18 19 20 20 20 19 17 17 17 17 16 15 15 15 16 18 18
38 33 31 30 30 32 32 28 25 23 22 22 22 23 23 24 24 23 20 20 20 19 18 18 18 19 19 20 21 21 20 19 18 17 17 16 16 16 17 17 18 20 21
40 43 39 33 31 29 29 27 25 23 22 23 24 23 24 24 25 23 22 22 21 19 20 19 20 20 21 22 23 22 20 19 18 16 15 15 15 15 16 17 18 20 22
40 40 39 38 35 32 31 28 27 26 25 24 25 24 24 23 23 22 22 21 19 20 22 22 22 22 23 24 24 22 20 18 16 15 15 14 14 15 16 18 19 22 23
43 43 41 38 38 38 37 34 33 32 30 28 26 26 25 24 23 22 23 22 21 24 25 25 24 24 24 24 23 22 20 19 16 15 15 15 15 17 18 20 22 24 26
54 55 49 45 41 41 43 42 38 36 32 31 27 28 28 27 26 26 26 24 25 26 26 26 25 24 24 23 23 22 21 19 18 16 16 16 17 19 21 23 25 27 28
48 54 57 54 51 48 45 43 44 40 39 34 31 29 31 31 29 27 26 23 24 25 26 26 25 24 24 23 22 22 21 21 19 18 18 19 20 22 24 26 29 30 32
37 41 48 52 55 59 53 49 48 45 43 43 39 35 35 35 32 29 28 26 25 25 26 26 24 25 24 24 23 23 23 22 21 20 21 22 23 24 27 30 32 34 35
39 39 41 42 41 45 52 59 60 57 50 46 40 37 36 37 34 32 30 29 27 27 26 26 26 25 25 23 24 24 24 24 24 24 24 25 26 27 29 32 36 38 40
38 40 42 45 47 45 46 49 51 57 54 49 45 40 40 39 36 33 33 32 30 31 30 30 29 28 24 22 25 26 27 27 27 27 27 27 28 29 32 35 39 42 44
24 27 30 33 39 47 50 49 49 52 57 54 47 47 43 42 39 36 33 32 33 32 31 32 34 31 28 25 23 28 29 30 30 30 30 30 30 31 34 38 42 45 46

GFSSE_700_spd_030.txt.gz
Wind_Speed
11 6 5 4 3 6 8 12 10 11 11 12 12 11 11 9 7 8 8 8 8 7 6 5 5 8 5 5 2 2 4 5 5 5 6 7 7 7 8 8 8 8 9
13 8 8 6 4 5 7 9 9 10 11 12 12 12 12 10 7 6 6 6 5 6 6 7 7 8 7 6 5 2 1 1 2 3 3 4 4 5 6 7 9 9 10
13 13 10 8 6 4 4 7 9 9 10 11 12 12 12 11 8 6 5 5 5 6 6 7 7 7 5 5 5 4 3 2 1 1 2 4 5 6 8 9 10 11 11
16 16 13 11 9 5 4 6 8 8 10 11 12 12 11 10 8 5 4 5 5 5 5 5 5 4 5 5 5 4 3 3 2 3 4 6 7 8 9 10 11 11 11
16 17 15 12 10 7 4 4 5 7 8 10 12 12 11 10 9 7 6 5 6 6 6 6 6 6 6 6 5 5 4 3 3 3 5 6 8 9 10 11 11 12 11
13 15 15 13 12 8 2 3 3 5 6 8 11 10 11 10 10 10 9 8 7 7 7 7 7 7 8 8 7 6 5 4 4 5 5 6 8 8 9 9 9 10 11
10 14 16 15 13 10 5 5 3 3 5 6 7 8 10 13 13 11 10 10 10 9 9 9 9 9 8 8 7 7 6 5 5 5 6 7 8 8 9 9 9 8 9
14 13 15 16 15 12 8 7 5 2 3 3 3 4 5 8 11 11 11 11 10 10 9 9 9 9 8 8 7 7 6 6 6 6 6 8 9 9 10 10 11 10 10
15 15 15 17 17 16 11 9 8 6 3 4 1 0 2 5 7 8 10 10 10 11 11 11 11 11 11 10 9 8 8 9 9 9 9 9 10 10 11 12 13 12 11
17 16 17 19 19 18 13 11 9 9 7 5 5 4 3 2 2 3 4 6 7 8 9 10 11 11 10 10 10 10 10 10 10 11 11 12 11 12 12 14 15 13 12
16 19 18 18 21 20 18 15 13 12 10 9 7 7 6 5 3 2 1 1 2 3 5 6 8 9 10 11 11 11 12 12 13 13 13 12 12 12 13 14 15 14 12
17 15 17 20 20 21 19 17 17 15 13 12 11 9 9 9 8 7 5 5 4 3 4 5 6 7 8 10 12 13 13 13 14 14 14 14 14 14 13 15 13 13 13
15 18 16 21 23 23 23 22 21 19 17 15 14 12 12 11 12 11 10 9 8 7 7 7 7 8 9 10 11 13 14 14 15 15 14 14 14 14 14 14 13 12 12
20 19 18 16 18 20 22 21 21 21 20 18 17 16 15 14 15 15 14 12 11 12 11 11 10 10 11 11 13 14 15 16 16 16 15 15 15 13 13 13 13 13 12
25 25 24 22 20 19 18 19 20 20 20 19 19 19 18 17 17 19 18 16 15 14 15 14 14 13 13 14 14 15 16 17 16 16 16 15 15 15 14 13 13 13 14
28 27 30 30 29 26 23 21 20 20 20 20 20 21 21 20 20 21 21 20 19 17 18 17 16 16 15 16 16 17 18 19 18 17 15 15 14 14 14 14 14 15 15
29 29 31 29 29 31 31 29 27 24 23 23 23 24 23 22 22 23 24 23 22 22 21 20 18 18 18 17 18 19 20 20 19 17 16 14 13 13 13 14 15 15 16
35 33 31 33 31 31 31 31 31 29 27 26 25 25 23 23 24 24 24 24 25 24 23 22 19 19 20 20 20 21 20 19 18 17 16 14 14 13 13 13 14 16 17
39 39 36 35 36 34 33 32 30 28 27 27 27 28 25 24 24 24 24 25 25 24 23 21 20 21 22 23 23 22 20 18 17 16 16 15 14 13 14 15 17 18 19
43 42 41 40 38 38 37 36 35 32 30 29 27 27 26 26 25 23 24 25 24 23 23 22 23 24 24 24 24 23 21 19 17 17 16 15 15 14 15 17 19 20 23
51 50 48 47 46 43 42 41 40 38 35 33 31 29 28 29 29 26 25 25 25 25 25 26 24 24 25 24 24 23 21 20 19 18 18 17 17 17 18 19 20 22 23
38 42 52 53 50 47 45 44 44 42 42 38 35 32 30 31 30 30 27 28 29 28 28 26 26 26 24 24 23 23 22 21 21 20 20 20 20 20 21 21 22 24 26
36 38 40 43 48 58 57 52 51 49 47 48 45 40 36 34 31 34 32 30 31 30 28 28 26 25 24 24 23 23 24 23 22 22 22 22 23 24 24 24 25 26 28
36 39 38 39 39 38 42 54 59 57 56 53 50 45 42 40 39 37 35 33 33 32 29 28 28 25 25 24 25 25 25 25 25 25 25 26 26 26 27 27 28 30 32
20 24 40 38 39 39 39 41 44 52 59 62 58 55 49 46 40 39 36 34 32 33 30 29 31 27 28 26 26 24 25 26 27 28 28 28 29 29 29 30 32 34 36
21 19 18 25 27 34 40 43 46 45 44 48 52 53 48 48 44 40 38 36 34 34 32 32 31 28 27 32 33 28 24 25 27 30 31 31 30 30 31 33 35 37 39

GFSSE_700_spd_033.txt.gz
Wind_Speed
8 6 4 3 6 8 8 11 10 11 12 12 12 12 11 10 8 7 7 7 7 8 8 8 9 9 7 5 4 3 3 4 4 5 5 5 5 6 6 6 5 6 7
14 9 8 3 3 7 9 9 10 11 11 13 12 12 12 10 8 6 6 6 6 7 7 10 10 9 9 7 6 5 3 2 2 2 2 2 3 3 4 6 6 8 9
14 14 11 7 5 6 8 8 10 11 11 12 12 12 11 11 8 6 6 6 6 6 7 8 9 10 8 7 6 6 5 4 3 2 1 1 3 4 5 6 8 9 9
14 17 14 10 8 7 7 7 9 10 10 10 12 12 11 11 10 8 7 7 6 6 6 7 8 7 6 6 6 5 4 3 2 1 1 2 3 4 6 7 8 9 9
16 19 16 12 10 8 6 4 6 8 9 11 12 12 12 12 11 10 8 7 7 7 7 8 8 7 7 7 6 5 4 3 1 1 1 2 4 5 6 7 8 8 9
15 17 16 13 12 9 4 2 3 7 8 8 11 12 15 14 12 12 11 11 10 9 9 10 10 9 8 8 7 6 5 4 2 2 2 3 4 6 7 7 8 8 8
14 14 15 14 14 11 6 2 2 4 8 6 6 7 9 12 12 12 12 11 11 11 10 10 10 9 8 8 7 6 5 4 4 5 5 5 5 5 6 8 9 9 8
11 14 14 15 16 15 10 6 4 4 3 3 3 3 4 7 9 11 11 12 12 13 12 12 11 10 9 8 7 6 6 6 6 6 6 7 7 8 8 9 10 9 9
17 15 16 17 17 17 12 11 9 7 3 3 2 0 2 2 5 6 7 9 9 10 11 10 11 10 10 9 9 8 7 7 7 7 8 8 8 9 10 11 11 10 11
14 16 17 19 19 18 16 13 11 9 8 4 4 3 3 3 1 2 3 4 4 6 7 7 8 8 9 9 9 10 10 10 10 10 10 10 10 11 12 13 12 10 11
13 16 16 17 20 21 20 16 13 12 12 9 7 5 5 5 5 4 2 1 1 1 2 2 3 4 5 7 8 9 10 10 11 11 11 11 11 12 12 13 12 11 10
12 12 14 16 17 20 19 19 16 14 15 13 11 10 8 7 8 8 7 6 6 5 4 3 2 2 3 5 7 8 10 10 11 11 11 11 11 11 12 12 12 11 10
15 15 16 16 17 19 19 20 18 17 18 18 15 14 13 11 9 11 12 11 10 10 9 8 7 6 6 6 6 9 11 11 11 12 12 11 11 11 11 10 10 10 10
16 17 18 17 17 20 21 22 22 21 21 22 20 18 17 16 14 14 15 15 14 13 13 13 12 11 10 9 9 10 12 13 13 13 13 13 12 11 11 11 10 10 10
19 19 19 20 20 18 20 19 21 21 22 23 23 22 21 20 20 18 17 18 18 17 17 16 16 15 14 12 12 12 13 15 16 15 15 14 13 12 11 10 9 9 9
24 23 23 24 25 26 23 22 20 21 22 23 24 24 24 24 24 23 21 21 22 21 21 20 19 18 17 15 14 14 15 17 18 17 16 14 12 11 10 10 10 10 9
28 30 29 28 28 28 29 30 26 23 24 23 24 25 25 26 25 25 25 25 25 24 23 22 22 20 19 18 16 16 18 19 19 18 16 14 13 11 10 9 8 8 9
36 36 31 29 30 29 29 30 30 31 30 29 29 28 28 27 27 27 27 27 27 26 25 24 24 22 21 20 19 19 20 20 20 18 16 15 13 12 11 10 10 10 11
40 39 37 34 32 30 30 31 32 30 31 31 32 33 31 29 27 28 29 29 28 27 26 27 25 24 23 21 21 22 21 21 20 19 18 16 15 14 13 12 12 13 13
43 43 42 40 38 36 33 35 35 33 30 31 30 31 32 30 31 30 30 29 26 26 27 26 25 25 24 24 23 23 22 22 21 20 19 18 17 16 15 15 15 15 16
49 49 48 45 44 43 41 40 37 36 33 32 31 30 30 30 31 33 31 30 27 26 26 26 26 27 27 25 24 24 23 23 22 21 20 20 19 19 18 18 18 18 18
43 47 50 49 51 51 47 44 44 41 40 36 35 34 34 33 32 34 34 33 31 28 27 28 30 30 28 26 25 25 24 23 23 23 22 22 22 22 22 21 21 21 21
36 38 41 43 42 43 48 50 49 47 47 46 44 42 38 35 35 35 35 37 34 34 30 31 33 32 29 27 27 26 25 25 24 24 24 24 25 26 26 25 24 24 25
28 34 35 36 37 39 39 42 47 53 56 55 53 47 46 45 40 39 38 37 36 37 36 32 32 33 32 29 29 28 27 26 26 26 26 26 27 29 29 28 28 28 29
19 22 26 32 38 40 39 38 36 38 41 44 50 55 54 52 50 46 42 41 41 40 37 35 34 33 31 29 29 28 29 26 25 26 26 28 30 31 32 31 31 31 33
23 24 25 24 25 37 41 39 39 39 40 42 42 42 44 45 50 52 48 46 43 41 37 35 32 34 35 34 32 30 30 33 30 25 26 29 32 33 34 35 35 35 36

GFSSE_700_spd_036.txt.gz
Wind_Speed
7 7 5 4 7 8 10 11 10 10 11 11 10 10 9 8 6 6 7 7 8 7 7 10 10 8 6 5 5 5 5 5 6 6 7 7 7 6 6 5 6 6 6
11 10 8 4 6 9 10 10 12 11 10 10 10 10 10 9 6 6 6 6 7 8 7 10 9 9 8 7 6 5 5 5 5 5 5 5 4 4 5 5 6 7 7
15 15 12 6 5 7 9 9 10 11 10 10 10 10 9 9 7 6 6 6 6 7 9 9 8 7 7 6 6 5 5 5 4 4 3 3 4 5 5 6 7 8 8
17 17 15 10 7 7 8 8 9 10 11 11 10 10 9 9 9 7 6 6 6 6 6 6 6 6 5 4 4 4 4 3 3 3 3 4 4 5 5 6 7 7 7
20 20 17 13 10 9 8 6 7 8 8 8 10 11 10 10 10 9 8 7 7 7 7 7 7 6 5 5 4 3 2 1 1 1 2 3 4 4 5 6 6 7 8
19 20 18 15 12 10 8 3 3 6 8 6 6 8 11 11 10 10 10 10 9 9 8 9 8 7 7 6 5 4 3 3 2 2 2 2 3 5 5 6 6 7 7
16 16 17 16 15 13 10 5 3 3 6 4 5 6 8 9 10 10 11 10 10 10 9 9 8 8 7 6 6 5 4 3 3 3 4 5 6 7 8 8 9 8 9
12 15 16 17 17 16 12 8 7 4 2 3 3 3 4 7 7 8 9 10 11 11 11 10 9 8 7 7 6 5 4 3 4 4 5 5 7 8 9 10 9 10 11
14 13 17 18 18 17 15 13 11 10 4 2 1 2 2 2 4 5 6 7 7 7 8 7 7 7 7 7 6 6 6 5 5 5 6 7 7 9 10 10 10 10 11
14 15 16 18 18 19 18 16 14 13 10 7 4 3 3 4 2 1 3 3 3 3 3 4 4 5 5 5 6 6 6 6 6 7 7 8 8 9 10 10 9 9 10
13 15 14 17 19 21 21 19 16 16 14 12 10 7 5 6 7 6 4 3 3 2 2 0 1 2 3 4 5 6 7 8 8 8 8 9 9 10 10 10 9 9 9
13 13 15 17 18 21 21 21 19 18 17 14 14 12 12 9 8 9 9 8 7 7 7 6 5 5 4 4 5 6 8 10 10 10 10 10 10 11 11 10 9 9 8
16 18 17 17 17 19 21 22 22 20 18 18 18 17 16 15 14 11 12 12 12 12 11 11 11 10 9 9 8 8 9 11 12 13 13 13 12 11 11 10 10 9 8
21 20 20 21 21 19 20 21 22 23 22 22 22 22 20 19 18 17 16 16 16 16 15 15 15 14 13 13 13 12 12 12 13 14 14 14 13 12 11 10 9 8 8
23 22 22 22 21 20 20 22 24 24 26 25 25 27 25 23 22 22 22 21 19 20 20 19 18 17 17 16 16 15 14 14 15 16 16 16 14 12 11 9 8 8 7
26 25 23 23 23 23 23 22 22 24 25 26 28 28 28 27 28 27 27 26 24 23 23 22 21 22 20 20 19 18 16 16 17 18 18 16 14 13 11 10 8 7 6
31 29 27 26 25 25 27 29 28 27 27 25 26 28 30 30 30 30 30 29 28 28 27 25 25 25 24 23 22 21 19 19 20 20 19 17 15 13 11 11 9 8 7
34 33 33 32 32 31 31 30 30 31 30 30 29 29 29 30 31 32 32 32 32 31 30 28 29 27 26 26 25 23 21 21 22 22 21 19 17 15 14 13 12 11 10
39 39 39 38 38 35 32 33 32 34 34 34 36 35 34 33 32 32 33 34 34 34 32 31 31 30 29 28 26 25 24 24 24 24 22 21 18 17 16 16 15 14 14
42 43 44 43 41 38 37 36 36 34 35 36 35 35 36 37 37 35 34 35 35 36 35 33 32 31 31 29 27 27 26 26 26 25 24 23 21 20 19 19 19 18 18
44 45 46 46 44 42 43 41 39 38 34 36 35 34 33 34 35 37 36 37 36 34 34 33 33 32 31 30 29 29 28 28 27 26 25 25 23 22 22 23 22 22 22
43 46 47 48 48 48 48 47 45 43 42 38 36 35 35 36 36 35 35 35 36 35 34 35 33 30 30 30 31 31 31 30 29 27 27 26 26 25 25 26 26 26 25
38 39 40 41 43 44 47 50 52 53 52 49 44 40 38 38 37 37 38 38 37 36 37 37 35 33 32 32 33 34 33 32 29 29 28 28 28 28 28 29 30 29 29
30 32 35 37 37 37 38 41 43 46 47 48 48 46 45 43 44 44 43 42 40 38 38 38 38 35 36 35 35 35 34 33 32 31 30 30 30 30 30 31 32 33 33
22 22 24 26 30 34 38 40 41 42 42 42 43 46 49 52 51 49 49 48 46 43 40 40 40 40 41 40 36 34 33 32 31 33 32 29 30 31 31 33 35 36 37
24 25 27 28 29 31 32 34 43 44 41 41 42 41 38 39 42 47 53 54 53 51 48 45 43 42 42 42 38 35 36 37 34 35 38 33 33 34 34 34 35 37 39

GFSSE_700_spd_039.txt.gz
Wind_Speed
6 4 5 5 9 10 11 12 11 9 8 9 9 10 10 9 7 6 6 7 7 6 7 9 7 6 6 5 5 4 4 4 5 6 6 7 7 7 7 7 6 6 7
8 6 6 4 8 9 10 11 11 11 9 9 9 8 8 7 5 4 5 5 6 5 8 9 8 7 7 6 5 4 4 4 5 5 6 5 5 5 5 6 7 7 8
13 12 9 6 6 7 8 10 12 11 10 8 8 7 7 7 6 4 5 5 6 7 9 7 7 7 7 6 5 5 4 3 3 3 3 3 4 5 6 7 7 7 7
15 17 13 10 6 6 8 7 9 11 12 9 8 8 7 7 6 5 5 5 5 6 6 5 5 5 5 4 4 3 3 3 2 1 3 4 5 6 6 7 7 7 7
18 20 17 13 10 8 6 6 7 9 10 7 9 11 11 9 8 7 6 5 5 6 6 5 5 5 4 4 4 3 2 1 0 1 2 4 4 5 6 7 6 7 7
17 22 20 16 13 11 8 5 5 6 8 6 6 8 9 10 9 8 8 7 7 7 6 6 6 6 5 5 4 4 3 2 1 0 2 3 4 5 6 7 8 8 8
18 21 20 18 15 13 10 8 5 3 6 5 5 7 9 8 9 9 9 8 8 8 7 6 6 6 5 5 4 3 2 2 2 3 4 5 6 7 7 8 8 8 9
14 16 18 18 17 16 14 11 9 5 2 3 3 3 5 7 8 8 8 9 8 8 8 7 7 7 7 6 5 5 4 4 4 4 5 6 7 7 8 8 8 7 8
9 12 15 17 18 18 17 14 12 9 4 1 0 0 2 3 4 5 6 6 6 5 6 6 6 6 6 6 6 6 5 5 6 7 7 7 8 9 10 8 8 9 9
14 14 13 18 19 19 19 17 15 13 11 8 6 4 2 3 3 2 1 2 3 2 2 3 3 4 4 5 6 6 7 7 8 8 9 9 9 9 10 9 8 8 9
17 14 13 15 18 20 21 20 18 17 15 14 12 9 7 4 5 7 6 5 4 3 3 3 2 3 3 4 5 7 8 9 10 10 10 11 12 12 11 10 10 9 9
15 16 16 15 15 19 21 21 20 19 19 17 16 14 13 11 10 8 9 10 9 8 8 8 7 7 7 7 7 7 8 10 12 13 12 12 13 13 12 11 10 10 9
16 18 18 18 17 17 19 21 22 22 21 20 18 17 17 16 15 14 13 12 13 14 13 13 12 12 11 11 11 11 11 11 12 14 14 14 14 14 13 12 11 10 9
19 19 20 21 20 19 19 19 22 23 23 22 21 22 21 20 20 19 19 17 17 17 17 17 17 16 15 15 14 14 14 14 15 17 15 16 16 15 12 12 11 10 9
24 23 22 23 24 24 23 22 22 22 23 25 25 25 25 24 24 25 23 22 22 21 20 20 21 20 20 19 18 17 17 17 17 18 17 19 18 16 14 12 11 9 9
29 28 25 24 25 23 22 22 22 23 26 27 28 28 29 30 30 29 29 27 26 26 25 24 23 24 24 24 22 21 20 19 19 20 22 20 19 17 15 13 11 10 9
31 30 28 25 26 25 24 25 24 25 25 25 27 28 30 32 33 32 33 31 30 29 29 29 28 28 28 27 26 25 24 23 21 21 24 21 20 18 16 15 13 12 11
34 33 31 31 29 29 29 29 29 29 30 31 30 30 29 30 32 33 34 34 33 33 34 32 31 31 31 30 30 29 27 25 24 24 25 24 21 20 19 18 16 15 14
35 35 36 36 36 34 33 35 34 32 33 33 35 34 33 32 31 32 33 35 34 36 37 36 35 34 33 33 32 31 30 28 27 27 26 25 24 22 21 20 20 19 18
38 40 41 41 41 40 39 40 40 38 36 36 36 37 37 37 37 38 38 38 38 37 36 37 37 35 35 36 35 33 32 31 29 28 29 27 26 24 24 22 23 22 22
37 38 40 42 43 43 43 44 46 41 39 40 38 34 36 37 37 37 38 39 39 39 37 36 36 36 37 37 36 35 34 33 31 31 30 28 27 26 26 25 26 25 26
38 40 41 42 43 45 45 46 48 43 41 42 42 40 40 40 37 38 38 38 39 38 39 37 36 36 35 36 35 35 36 34 33 33 32 30 29 28 28 28 28 29 29
37 38 38 39 40 41 43 45 46 50 48 47 46 45 44 43 40 40 38 39 39 40 40 38 37 36 35 35 35 36 36 37 34 34 34 31 31 30 30 30 30 31 31
34 34 35 35 36 37 37 39 41 42 45 43 43 44 44 46 45 46 45 43 43 43 43 42 40 37 38 38 39 38 38 39 37 37 35 33 32 31 31 32 32 33 34
28 28 28 28 29 30 33 37 39 41 43 42 40 41 43 44 47 49 49 50 51 49 48 47 47 42 41 41 39 40 39 39 39 39 37 34 31 29 29 32 34 36 35
26 26 26 27 28 29 31 32 34 35 36 40 43 43 42 40 43 45 51 55 58 56 53 52 51 49 47 45 44 44 42 44 43 39 37 34 33 43 40 42 39 37 38

GFSSE_700_spd_042.txt.gz
Wind_Speed
8 8 7 7 9 10 10 10 11 10 9 9 9 9 9 8 7 7 6 7 7 7 9 9 9 8 7 6 6 6 5 5 5 6 5 5 6 6 6 5 5 6 6
10 9 8 7 8 9 10 12 13 12 10 10 9 9 9 8 7 7 6 7 7 7 8 9 8 8 7 6 6 5 4 4 5 4 2 3 4 4 5 5 6 7 7
13 10 9 8 8 8 9 11 12 13 11 9 9 8 8 8 7 6 6 7 7 7 8 7 7 7 7 6 5 4 3 2 2 2 1 2 2 4 5 6 7 8 8
13 14 12 10 8 7 7 8 11 12 12 10 11 11 10 9 9 7 7 7 7 7 7 7 6 6 6 5 5 4 3 2 0 1 3 2 4 5 5 6 6 7 7
14 16 14 12 8 6 6 5 8 11 12 9 8 11 13 12 10 8 8 7 6 6 7 7 7 7 6 6 5 4 2 1 1 2 3 3 4 4 5 6 6 6 6
14 16 17 14 11 9 5 4 4 7 10 9 10 12 10 11 11 9 9 9 8 8 8 8 7 8 7 6 5 5 4 3 3 3 3 4 5 6 6 6 6 7 6
18 16 19 17 14 12 9 6 4 3 6 8 8 8 11 9 10 10 11 10 9 9 9 8 8 8 7 7 6 5 5 6 6 6 6 6 7 7 7 7 8 8 8
15 15 19 18 16 15 14 10 7 4 3 5 6 5 6 8 9 10 9 9 9 9 9 9 9 9 8 8 8 7 7 7 7 7 7 7 8 9 9 8 8 9 9
10 13 16 17 17 16 16 14 12 8 4 1 2 4 5 4 5 6 6 8 7 7 7 7 7 7 7 7 7 7 8 8 9 9 9 9 10 10 9 9 9 9 9
11 12 13 17 19 19 19 17 16 14 10 6 3 2 1 3 2 2 3 4 4 4 4 4 4 5 5 5 6 6 7 8 9 10 11 11 11 11 10 9 9 9 10
14 15 14 15 17 19 19 19 18 17 15 12 8 7 6 4 3 3 5 5 4 3 4 5 4 4 4 5 5 6 7 8 10 11 12 12 12 13 13 11 10 9 9
15 17 19 16 15 17 19 20 20 19 18 17 15 13 12 10 9 7 7 7 8 8 9 8 9 8 8 8 8 9 9 10 11 13 14 14 15 15 14 13 12 10 9
14 14 18 20 19 17 17 17 19 20 19 19 18 16 16 15 14 12 13 12 11 11 12 13 13 13 13 13 13 13 13 14 13 13 14 14 15 17 16 15 14 12 10
15 15 16 19 20 20 18 18 18 20 21 21 21 19 20 20 19 18 17 18 17 16 15 15 16 16 16 17 17 17 17 17 18 16 14 16 17 17 16 15 14 13 11
19 19 19 19 20 21 21 21 21 21 21 23 23 24 23 24 24 23 23 22 22 22 21 20 20 18 18 20 20 21 21 21 22 19 17 18 19 19 17 16 14 13 12
24 24 23 22 21 21 23 24 24 24 23 23 24 25 26 27 27 26 27 27 26 27 27 25 25 25 23 22 23 23 23 24 25 22 21 20 21 21 19 18 15 15 13
28 29 27 25 23 23 22 25 25 24 24 23 23 23 25 27 29 29 31 31 29 29 30 31 29 29 29 27 26 26 27 26 27 28 23 22 23 23 20 19 17 17 15
29 29 32 28 27 26 25 25 27 27 28 28 29 29 28 27 27 28 30 32 31 30 32 33 33 32 31 31 31 31 30 29 29 29 29 25 23 23 22 21 20 19 18
32 31 32 32 32 29 29 31 30 29 32 32 31 33 33 32 31 30 30 32 30 30 30 32 33 33 33 33 33 33 33 32 31 31 30 29 25 25 24 22 22 22 20
35 33 35 37 38 38 35 35 35 35 34 35 36 36 36 35 34 35 35 36 37 36 35 36 35 32 32 33 34 35 34 35 34 33 31 30 29 28 25 24 24 23 23
36 35 33 36 37 37 38 40 41 40 38 38 38 39 39 39 38 34 36 36 38 39 36 36 36 34 33 33 34 35 36 36 36 34 33 32 29 30 29 25 26 25 25
35 35 35 36 37 39 40 41 42 45 45 41 41 39 39 42 43 41 38 38 39 41 41 38 37 35 34 36 34 33 37 37 35 34 34 33 31 31 32 28 27 27 27
33 34 34 35 35 36 37 39 40 43 46 44 39 37 38 42 46 46 44 41 41 41 41 42 39 37 37 36 36 36 38 39 35 34 35 34 34 33 33 33 30 30 28
32 32 32 32 32 32 33 34 36 37 39 41 40 36 34 37 41 45 49 48 46 44 45 44 43 42 41 39 38 37 39 40 39 38 35 35 36 37 36 34 32 29 29
28 28 28 28 28 28 28 30 31 34 35 37 40 41 39 36 36 36 40 47 50 49 49 48 48 49 47 45 43 42 42 42 42 41 39 37 37 37 42 37 33 30 25
24 25 25 26 27 28 28 29 30 30 31 32 33 35 36 37 38 39 37 39 42 48 52 53 53 54 55 52 50 48 47 46 45 44 42 40 41 39 42 41 36 36 43

GFSSE_700_spd_045.txt.gz
Wind_Speed
14 12 11 11 10 10 12 10 10 9 8 8 8 9 8 8 7 7 8 8 7 8 9 10 8 8 7 7 7 6 5 5 4 3 3 4 5 5 4 4 4 5 6
14 12 11 10 9 8 10 11 9 10 10 10 9 9 9 9 9 8 8 8 7 9 9 9 9 8 6 5 4 3 2 2 2 2 2 3 4 4 4 5 6 6 6
15 12 12 11 10 8 8 10 14 12 10 10 10 11 11 10 9 8 8 9 8 9 9 9 8 8 8 6 5 3 1 0 1 2 3 2 3 4 5 6 6 7 7
16 14 13 12 10 8 6 8 11 15 13 11 12 12 12 11 11 9 8 9 9 9 9 8 8 7 6 6 5 4 3 3 2 2 3 4 4 5 6 5 6 6 6
16 16 14 13 10 8 5 5 8 13 17 13 10 10 13 13 12 11 10 10 9 8 8 8 8 7 7 6 5 5 5 4 5 6 4 4 5 6 6 7 7 7 6
16 17 16 14 11 9 5 2 4 8 12 16 11 11 10 11 12 12 11 11 10 10 10 10 9 9 8 8 8 8 7 7 7 7 7 6 6 7 7 7 7 8 8
14 17 19 17 14 11 9 5 2 4 7 11 14 10 11 10 10 11 12 12 11 11 11 10 10 10 9 9 9 9 8 8 8 7 7 8 8 8 8 8 7 7 7
16 17 20 19 16 13 12 9 6 3 2 6 9 11 8 7 8 8 9 10 9 9 9 9 9 9 9 9 9 9 9 9 10 9 10 10 10 10 9 9 9 9 10
14 15 17 17 16 15 14 13 11 7 3 1 3 5 7 7 4 6 7 7 7 7 7 8 8 8 8 8 8 9 9 9 10 10 11 12 12 11 11 11 11 10 9
11 12 14 16 17 17 17 16 14 13 9 5 3 0 1 2 4 5 3 4 4 4 4 5 6 6 7 7 8 9 10 11 12 12 12 11 12 12 11 11 12 12 11
11 11 12 14 17 17 17 17 17 16 15 11 8 7 5 5 4 2 3 4 5 5 5 5 5 5 6 7 8 9 9 11 12 13 14 15 14 13 12 11 11 11 11
11 13 14 14 14 14 16 17 17 18 17 15 14 13 11 10 8 6 5 5 5 7 8 8 8 8 9 10 11 11 11 12 14 14 15 16 17 17 15 14 12 11 11
14 14 15 14 16 16 14 15 17 17 18 17 17 17 17 15 13 12 11 10 10 10 10 11 11 11 12 14 14 14 14 13 14 15 15 16 18 19 19 17 14 13 12
14 14 12 12 12 14 17 18 17 16 18 19 19 20 20 18 17 16 16 16 16 16 16 15 15 15 15 15 17 18 19 18 17 17 16 16 18 19 19 18 16 14 14
17 16 15 14 15 14 15 17 18 18 18 19 20 21 22 22 21 20 21 21 21 21 21 21 20 20 20 20 19 20 21 22 21 21 20 19 19 20 20 19 17 15 15
22 20 20 19 18 19 19 21 21 21 21 22 22 22 22 22 23 23 24 24 25 25 25 24 25 25 24 24 24 23 23 25 22 22 23 22 21 21 21 20 18 17 16
27 26 24 24 23 24 23 20 21 23 23 22 22 22 22 23 24 26 26 25 27 29 29 30 30 29 28 27 27 27 26 28 27 24 24 24 23 23 22 22 20 18 18
29 30 29 28 28 28 26 23 23 23 24 25 24 24 25 25 27 28 28 26 26 26 27 29 29 29 29 28 29 30 30 30 31 28 27 26 26 25 24 23 22 20 20
28 29 29 30 27 27 29 27 26 27 27 27 27 29 28 28 27 29 30 29 29 28 28 28 29 28 28 28 29 31 31 32 32 33 30 29 28 27 26 25 24 22 21
31 32 32 32 30 31 30 30 29 31 31 31 31 32 33 34 32 32 30 32 31 32 33 33 34 34 34 33 33 32 32 32 33 32 34 31 30 29 28 27 26 24 23
31 33 32 31 34 35 36 36 33 31 32 33 34 34 35 35 36 37 36 34 35 34 32 33 35 36 34 32 33 35 34 32 33 33 34 34 31 30 29 29 28 27 26
34 32 33 33 33 34 35 36 39 38 37 36 36 38 39 40 42 42 41 38 37 38 37 36 36 37 36 34 35 34 36 34 33 32 33 33 33 33 31 29 29 30 29
32 31 31 32 33 33 35 36 37 38 39 38 38 36 35 37 40 42 44 44 42 42 42 42 41 40 38 37 37 36 38 38 35 33 33 34 33 34 33 31 31 29 31
31 32 31 31 32 32 33 33 33 35 37 36 37 38 35 33 34 36 38 42 45 44 45 45 46 44 43 42 42 41 41 41 40 39 35 36 36 36 34 33 32 31 36
30 30 29 29 29 29 28 29 29 30 32 34 35 36 34 32 32 33 36 38 39 40 40 42 45 45 47 46 46 45 45 44 45 45 44 40 40 39 37 39 34 36 37
25 25 25 25 25 27 27 27 29 30 30 31 31 32 33 31 31 33 33 33 36 39 38 37 37 41 45 48 50 50 50 48 48 49 48 46 44 42 42 39 39 39 42

GFSSE_700_spd_048.txt.gz
Wind_Speed
14 13 13 12 10 12 14 12 11 9 8 8 8 9 8 7 7 7 8 8 8 9 10 8 6 6 5 6 6 7 6 6 4 3 3 4 5 4 4 3 4 5 5
14 13 13 12 10 9 12 15 16 11 9 10 9 8 8 8 8 8 8 7 8 9 10 9 8 6 5 4 2 1 0 2 3 2 3 3 4 4 4 5 4 5 5
18 14 14 13 10 8 8 10 14 17 10 8 9 10 10 10 9 9 9 10 10 9 9 8 8 8 7 6 5 4 5 4 4 4 4 4 5 5 5 5 6 6 6
17 15 14 13 12 8 7 7 9 14 16 10 9 11 10 10 10 10 10 10 9 9 8 8 7 7 7 6 6 5 5 6 6 6 6 6 5 5 6 6 7 7 7
18 16 15 14 13 10 6 5 6 10 16 18 11 9 11 12 12 12 11 11 10 9 9 9 8 8 8 7 7 7 7 7 5 5 5 5 6 7 8 8 8 8 8
18 16 16 15 14 13 9 4 2 6 11 15 18 13 11 11 12 12 12 12 11 10 10 11 10 10 10 10 10 10 9 9 9 9 8 9 9 9 8 8 8 8 8
19 18 18 17 15 14 11 6 2 2 7 10 16 18 14 12 11 10 11 11 11 11 12 12 12 12 12 12 12 11 11 11 10 11 10 10 10 10 10 10 10 10 9
17 20 21 20 18 15 13 10 6 1 3 6 10 14 16 13 10 9 9 9 9 10 10 10 11 11 11 11 11 11 12 12 11 11 11 12 12 12 12 11 10 10 10
18 20 21 21 18 15 14 12 10 7 2 1 4 5 10 11 10 8 7 7 7 7 8 9 9 9 10 11 11 12 12 13 14 16 16 15 14 13 13 13 12 12 11
19 21 20 21 19 16 15 14 13 11 7 5 4 3 4 8 6 6 6 5 5 5 6 5 6 7 8 9 10 11 11 12 13 13 15 17 17 16 14 14 14 12 11
16 15 16 17 18 17 16 15 15 14 12 10 9 8 8 5 5 6 3 2 2 3 4 4 5 6 7 8 10 10 11 11 12 14 15 16 17 17 17 15 14 14 13
13 12 11 12 12 13 14 15 15 15 14 14 14 14 12 11 9 9 7 6 6 5 5 4 6 6 8 9 10 10 11 12 13 14 16 17 17 18 18 17 15 14 13
12 9 10 11 12 12 14 14 15 15 16 16 17 17 17 15 13 13 13 13 12 11 11 10 9 9 11 12 12 13 13 13 14 15 15 16 17 18 19 19 18 15 13
12 12 11 9 9 11 14 15 15 14 15 16 17 18 18 17 17 17 17 17 16 16 16 16 16 16 16 16 16 16 16 15 15 16 17 17 17 17 19 19 20 18 16
15 15 14 14 13 12 12 12 15 16 15 17 18 19 19 19 19 19 19 19 19 19 19 20 21 21 22 22 22 21 21 20 19 18 19 19 20 19 19 20 20 19 18
20 19 18 17 17 17 15 16 17 18 19 19 19 19 20 21 21 21 21 22 22 22 23 24 25 26 25 26 26 25 25 25 24 23 22 23 23 22 22 21 20 20 19
24 23 22 21 21 20 21 20 20 19 20 21 21 21 21 21 21 21 22 22 23 24 24 26 27 27 27 27 27 27 27 28 28 26 25 25 25 25 24 24 23 21 20
29 27 26 26 25 25 26 25 24 23 22 21 21 22 21 21 22 23 24 24 26 27 27 27 26 26 26 26 26 26 27 30 30 28 28 27 26 26 26 26 25 24 22
28 28 29 29 29 29 28 28 27 27 26 25 24 24 24 25 25 26 27 27 27 27 28 29 30 30 30 29 30 30 30 31 32 31 30 29 28 28 28 28 26 26 24
28 28 28 29 30 31 32 32 30 31 30 29 29 28 28 28 28 29 29 29 28 29 29 30 30 31 32 31 32 33 33 33 34 32 31 31 30 30 29 29 29 28 27
28 28 29 30 29 30 32 32 32 30 30 31 31 30 30 31 32 34 34 34 34 34 32 32 33 33 33 32 35 36 35 33 33 32 32 31 30 30 29 29 29 30 29
30 30 30 31 32 32 34 35 35 34 32 30 30 32 34 35 37 40 41 41 41 40 37 35 36 36 36 35 37 37 41 39 35 32 32 32 31 30 30 30 30 30 31
32 32 32 32 32 34 35 36 36 36 35 34 32 31 33 36 39 41 42 44 45 45 45 41 38 40 40 40 39 39 43 43 40 35 35 35 34 33 31 32 32 32 33
34 32 32 33 33 34 35 35 35 36 36 35 35 34 34 35 36 38 38 39 40 40 40 41 39 40 41 43 42 43 44 43 45 44 41 38 38 38 37 35 35 35 34
35 34 34 35 34 33 33 33 34 34 34 34 35 36 35 34 34 34 35 36 38 40 41 40 40 39 39 41 43 41 47 42 45 46 49 45 42 42 42 40 44 40 38
33 34 34 33 32 31 31 30 31 31 33 33 34 34 34 33 32 33 32 32 33 34 36 35 37 37 37 37 39 40 41 46 46 46 49 48 49 49 48 46 42 44 46

GFSSE_700_spd_051.txt.gz
Wind_Speed
10 11 12 12 14 15 18 19 13 11 11 11 11 10 10 9 9 9 9 9 10 11 11 9 6 5 3 2 2 4 5 5 5 4 4 5 6 6 6 7 8 8 7
10 9 11 11 10 11 14 18 20 14 12 12 11 10 10 10 9 9 9 9 10 11 11 10 9 8 6 5 4 4 3 3 4 5 6 6 6 7 7 7 8 8 8
15 9 12 10 9 8 10 13 18 21 17 12 12 11 11 11 10 10 11 9 10 10 10 10 10 10 9 9 8 7 7 7 7 7 8 7 8 7 7 7 7 7 8
17 13 12 10 10 7 6 9 13 17 20 16 11 10 11 11 12 13 11 10 11 11 11 11 11 10 10 10 10 10 9 8 9 9 9 8 8 7 7 8 8 8 7
18 15 12 11 12 7 4 6 9 12 16 20 16 11 11 12 13 13 13 13 13 13 12 12 12 12 13 13 12 12 11 11 11 12 11 9 10 10 10 9 10 11 11
19 16 13 13 13 9 5 4 5 7 11 15 18 18 13 12 12 14 15 15 14 14 14 14 14 15 15 15 14 14 13 14 14 13 13 14 14 14 13 13 12 12 11
20 16 15 15 14 12 9 5 4 4 7 9 14 17 17 14 13 13 12 13 13 13 14 14 14 14 14 13 14 13 13 14 14 15 14 14 15 15 14 14 13 12 11
21 19 18 17 16 14 12 9 5 3 3 5 8 12 15 17 16 14 11 11 11 12 12 12 13 14 14 14 14 14 14 15 15 16 17 17 17 16 15 14 13 13 13
22 22 21 20 19 15 13 11 8 5 3 2 3 5 10 13 15 15 15 12 9 8 8 9 9 10 10 11 11 12 12 13 14 15 16 17 17 17 16 15 15 13 12
19 19 21 21 19 16 14 13 11 10 8 6 4 3 2 3 9 10 9 10 9 9 8 6 5 6 7 8 9 10 10 11 12 14 15 16 17 18 18 18 16 15 13
20 20 20 20 20 18 17 15 14 13 12 10 9 8 7 5 3 5 7 7 7 6 6 4 4 6 7 8 8 9 10 10 11 12 14 15 16 17 18 19 19 16 14
16 17 18 19 19 18 16 15 14 14 13 14 14 13 11 10 9 9 8 7 7 7 7 7 6 6 6 7 8 9 11 11 11 12 13 14 15 16 17 18 19 19 17
16 14 13 13 13 14 13 13 14 14 14 15 15 16 14 14 13 13 13 13 12 12 13 13 12 12 13 12 13 12 12 12 13 14 14 15 16 17 18 19 19 19 19
14 12 11 10 10 11 11 12 13 12 13 13 15 16 16 17 16 16 16 16 16 16 17 17 17 17 17 17 17 18 18 17 17 17 18 18 18 18 18 19 20 20 20
14 12 11 11 10 9 10 11 12 14 14 15 16 16 17 17 17 17 17 17 18 18 19 20 20 20 20 21 21 21 22 22 22 22 22 22 21 20 20 19 20 21 21
17 14 13 13 13 12 12 12 13 14 15 16 17 18 18 19 19 19 19 19 20 20 21 21 22 22 22 23 24 24 24 24 25 24 24 25 25 23 22 21 21 21 21
19 20 18 19 18 18 18 18 18 18 17 18 18 19 19 19 19 19 19 19 19 21 22 22 23 23 23 24 24 25 25 26 26 26 26 27 27 26 25 24 23 22 22
25 24 24 22 22 23 23 23 23 22 22 21 20 20 20 19 20 21 21 21 22 23 23 24 25 25 25 26 25 25 25 26 27 26 26 27 28 28 28 27 26 25 24
25 25 26 27 27 27 27 27 27 27 26 24 23 22 22 24 24 25 26 26 27 27 27 25 24 26 27 28 30 32 33 33 32 30 29 30 30 29 29 29 29 28 27
28 27 27 27 27 28 28 29 29 30 28 27 26 26 26 27 28 30 30 29 29 29 27 27 29 29 31 30 31 32 33 34 34 33 30 29 29 29 29 29 29 29 29
32 31 29 27 27 29 29 29 31 31 30 30 29 29 30 30 30 31 32 31 31 33 34 34 35 34 33 33 34 35 35 36 36 32 31 31 29 28 28 28 28 30 31
30 30 30 30 30 29 29 31 33 33 33 33 32 32 33 33 33 34 35 36 38 39 38 37 37 38 38 36 38 38 42 41 38 35 33 32 30 31 30 29 30 31 33
31 30 30 31 31 32 32 32 33 34 35 35 34 33 33 35 35 37 38 40 40 43 43 42 42 42 40 38 37 39 44 46 44 41 37 36 35 34 34 34 34 34 35
29 31 31 32 32 32 33 33 34 35 35 36 36 35 32 32 34 36 38 39 40 41 41 40 40 40 40 38 37 37 40 43 44 49 43 42 41 37 38 39 40 41 41
32 33 34 35 35 36 36 36 35 36 36 35 35 35 34 34 34 35 35 35 36 37 37 39 39 37 38 39 40 38 37 39 42 44 48 42 41 39 41 44 47 49 47
35 36 37 37 37 38 37 35 34 34 35 34 34 34 34 35 35 34 34 33 33 34 33 34 34 33 32 34 36 37 36 36 37 37 39 42 43 40 41 41 42 42 52

GFSSE_700_spd_054.txt.gz
Wind_Speed
10 13 14 16 17 19 21 21 16 14 14 14 13 13 13 13 12 12 13 14 15 14 13 11 9 7 6 5 3 1 3 5 6 7 6 6 7 7 8 9 9 9 8
10 10 12 13 14 16 19 22 22 17 14 15 14 14 14 14 14 14 13 14 14 15 15 14 12 11 10 9 9 7 7 7 8 8 8 8 9 9 9 9 9 9 9
12 8 10 11 12 12 14 17 21 24 19 15 15 15 16 15 15 14 13 14 14 14 15 14 14 14 14 14 12 11 10 10 11 11 11 12 12 11 10 10 10 10 10
14 9 10 10 9 9 10 13 17 20 22 20 15 14 14 15 15 16 14 14 14 15 15 15 15 16 15 15 14 14 14 14 14 15 14 14 12 11 11 11 11 11 10
16 14 10 9 8 6 6 9 12 16 19 20 19 15 14 14 15 15 15 16 17 17 17 17 18 17 17 17 17 17 17 17 17 16 15 14 14 14 14 14 14 14 13
18 17 12 8 8 6 4 5 8 11 15 17 20 19 14 13 13 14 15 16 17 17 17 18 17 17 17 17 16 16 16 15 15 15 14 14 14 14 14 14 14 13 12
20 18 15 10 11 9 6 4 4 7 10 12 15 17 18 17 15 14 14 14 14 15 15 15 15 15 16 16 16 16 16 16 16 16 16 17 17 17 16 14 14 13 12
21 18 16 13 13 12 10 6 4 4 6 8 10 11 15 17 17 18 15 13 12 12 12 12 12 12 12 13 13 13 13 13 14 15 16 17 17 18 17 17 16 14 13
23 21 18 16 15 15 13 10 8 6 5 4 4 6 8 11 13 14 15 15 15 14 12 11 11 11 11 11 11 11 12 12 13 14 15 16 17 17 18 18 18 16 14
23 23 22 20 18 17 14 13 11 9 8 6 4 3 2 3 7 8 9 10 10 11 10 10 11 12 12 12 11 11 11 12 13 14 15 15 15 15 16 17 18 18 17
21 21 23 22 20 19 18 16 14 13 12 9 8 7 7 5 4 3 5 6 6 7 7 6 4 4 5 6 8 9 9 9 10 11 13 14 15 15 17 17 18 18 17
22 21 21 21 22 21 21 18 15 14 13 13 13 11 11 10 9 9 8 7 6 7 7 8 8 8 8 8 8 8 9 9 10 10 11 13 14 16 16 16 16 16 17
20 21 21 20 21 21 19 16 14 13 13 14 15 15 14 13 12 12 12 12 11 11 11 12 13 12 13 14 14 14 14 14 15 15 15 16 16 15 16 16 17 17 17
16 16 16 16 16 17 16 15 14 13 13 14 15 15 14 13 13 13 14 13 14 14 15 15 16 17 18 18 18 18 17 17 17 17 20 19 19 19 19 19 18 18 18
17 16 15 15 14 14 13 13 12 12 13 15 15 15 15 14 14 14 15 15 16 16 17 18 18 19 20 21 21 20 20 20 20 20 19 22 22 22 22 21 21 20 20
17 14 14 13 13 13 12 11 12 12 13 13 14 16 17 16 16 16 17 17 18 19 20 20 20 21 22 22 22 22 22 22 22 22 23 23 24 24 25 24 23 22 21
18 16 15 15 14 14 15 15 15 16 16 16 17 18 18 18 19 18 19 18 17 19 19 20 21 22 23 24 22 22 22 23 23 23 24 24 25 25 25 26 25 24 23
22 20 19 18 17 19 20 20 20 20 20 20 20 19 19 19 18 18 18 19 21 22 23 23 24 24 24 25 24 24 26 26 26 25 26 26 26 26 26 27 27 27 26
24 24 23 23 23 23 24 24 24 25 24 24 24 22 21 21 21 22 23 23 25 27 28 27 26 27 26 25 27 27 28 28 28 27 26 27 27 27 26 27 27 27 27
24 25 26 27 27 27 26 26 26 27 26 26 25 24 24 25 26 27 28 28 30 31 30 30 31 30 31 30 32 32 30 31 32 30 27 27 26 27 27 27 27 28 28
25 26 27 26 27 28 27 26 26 26 27 28 27 27 28 27 28 29 31 31 31 32 32 34 35 37 36 34 36 35 35 35 35 34 32 29 29 29 29 29 28 28 28
27 27 27 28 28 28 28 26 26 27 28 28 29 30 31 31 31 32 33 33 34 35 36 36 38 38 39 38 40 39 41 40 38 36 34 33 32 31 30 30 30 31 31
28 29 28 28 28 29 28 28 28 30 31 31 31 32 33 33 33 34 35 36 37 38 39 40 41 42 43 40 37 36 38 41 39 37 35 34 33 32 32 34 34 35 36
27 28 30 30 30 30 30 29 30 32 33 33 33 33 34 35 35 36 37 38 39 39 40 39 39 38 38 39 37 35 36 39 40 43 40 37 33 33 34 31 35 38 40
27 27 27 28 29 30 31 32 33 34 34 34 35 35 34 35 36 36 36 37 37 37 36 36 35 34 36 35 35 35 35 37 37 39 43 39 37 34 32 32 35 39 40
31 29 30 31 32 33 35 36 37 37 37 36 35 34 34 34 36 36 36 35 34 34 35 35 35 34 34 34 35 35 35 36 36 36 38 41 42 41 40 38 37 37 38

GFSSE_700_spd_057.txt.gz
Wind_Speed
14 14 15 18 20 21 22 18 16 16 16 16 15 15 14 14 15 16 17 18 18 17 16 14 12 10 8 7 6 4 5 6 7 8 8 9 8 8 9 9 9 8 7
13 13 13 17 19 20 22 24 20 17 17 17 16 16 17 16 16 16 17 18 18 18 18 17 15 13 12 11 10 10 10 10 10 10 10 10 10 11 11 10 10 9 9
13 10 12 16 17 18 20 21 23 21 18 17 17 17 18 18 17 17 17 17 18 17 18 17 16 15 14 13 13 13 13 13 13 14 13 13 13 12 12 11 11 11 10
14 11 11 14 14 15 16 17 19 21 23 19 17 17 17 17 18 18 17 18 18 17 17 17 17 17 16 16 16 16 16 16 16 16 15 15 14 13 13 12 13 12 11
15 12 12 12 12 12 12 13 15 18 22 22 18 16 15 15 17 18 17 18 18 18 18 18 18 18 18 18 17 17 16 16 16 15 14 13 12 13 13 13 13 13 12
17 15 12 11 9 9 9 10 11 14 17 20 21 18 16 15 15 16 15 16 16 16 16 16 17 16 17 17 17 17 17 17 17 16 16 15 16 16 15 13 12 12 12
19 19 15 12 9 8 7 7 8 10 13 14 17 19 18 17 17 15 15 15 15 14 15 15 15 16 15 15 15 14 14 14 14 15 15 15 15 16 16 16 14 12 11
21 20 18 15 11 9 8 7 6 7 9 9 11 15 16 17 17 17 17 17 15 13 13 12 13 13 13 13 12 12 12 13 13 13 13 14 16 16 16 16 16 14 12
25 22 19 18 14 12 11 9 8 7 7 6 6 8 10 11 12 13 14 14 14 14 15 15 15 15 14 13 13 13 13 13 13 13 13 14 15 15 15 15 16 15 14
27 25 22 19 17 14 14 12 10 9 9 7 6 5 5 5 6 7 8 8 8 8 9 9 9 9 10 9 9 9 9 10 11 12 12 13 13 14 15 15 15 16 16
27 27 25 22 19 18 16 15 14 13 11 9 8 7 6 4 4 2 1 3 4 5 5 5 6 6 5 6 6 6 6 7 7 8 9 9 10 11 13 14 15 15 15
26 28 28 24 22 20 20 18 17 15 14 13 12 11 10 9 9 8 8 7 7 7 6 6 6 7 7 8 9 9 10 11 11 12 13 14 14 13 13 13 13 14 15
22 22 23 24 24 23 22 20 18 17 16 15 15 14 13 12 12 12 12 12 11 11 11 11 11 11 13 14 14 14 14 15 15 14 16 16 17 18 16 16 16 15 15
22 23 24 23 23 23 22 20 18 17 16 16 15 14 13 13 13 14 14 14 13 13 14 14 14 14 16 16 17 18 18 18 18 19 19 18 18 19 20 19 18 19 18
17 19 19 20 20 20 19 18 17 16 15 15 14 13 13 13 14 15 15 14 14 15 15 16 17 17 19 19 20 21 21 22 22 22 22 22 21 21 22 21 20 20 20
17 17 16 16 17 17 17 17 17 15 15 14 14 15 15 16 16 16 16 16 17 18 19 19 19 19 20 21 21 22 23 23 23 23 23 22 22 23 24 24 23 22 21
18 19 17 18 17 17 17 17 16 15 15 14 14 15 15 17 18 19 18 18 19 20 20 19 20 21 22 22 23 24 25 25 24 23 23 22 22 23 24 25 26 25 24
21 19 19 18 17 17 17 17 17 17 17 17 18 18 18 18 19 19 19 18 20 20 21 22 24 24 25 25 25 25 26 26 26 26 25 25 25 25 25 26 28 28 26
22 22 22 21 20 19 20 21 22 22 21 21 21 22 22 22 21 20 21 21 23 24 25 26 27 28 28 28 27 27 29 30 30 29 27 26 25 25 25 26 26 27 26
20 20 21 21 22 23 25 25 25 24 24 25 25 25 25 24 24 24 24 25 27 29 29 30 31 32 31 31 31 33 34 34 32 31 30 29 27 26 27 27 27 28 29
21 21 20 21 23 24 25 25 25 25 25 26 27 28 28 27 27 28 27 28 29 31 31 32 33 35 34 35 37 36 35 36 36 35 34 32 31 31 30 29 30 30 30
20 22 24 25 26 27 27 26 26 25 25 25 27 27 28 29 30 30 31 31 31 32 33 34 35 37 38 35 40 43 43 38 32 31 31 31 31 32 32 32 33 33 33
22 23 25 25 25 26 27 27 27 26 26 27 28 28 29 31 32 32 33 33 34 34 36 36 37 38 40 39 39 40 41 40 36 33 32 32 30 29 30 32 33 34 35
25 26 27 28 28 28 27 28 28 28 28 28 29 29 31 32 34 35 35 35 36 37 38 38 38 38 39 39 38 37 37 38 37 39 34 30 29 27 27 27 30 31 32
29 27 27 26 27 28 29 30 30 30 30 31 32 32 33 35 35 35 35 35 36 36 36 36 35 35 35 35 34 33 33 34 35 37 37 35 32 29 28 30 31 32 34
32 30 28 26 27 28 29 30 32 33 34 34 35 35 35 35 35 35 36 36 36 35 35 35 35 36 35 35 35 35 34 35 35 38 37 35 36 36 36 35 35 35 35

GFSSE_700_spd_060.txt.gz
Wind_Speed
13 13 14 19 20 20 18 16 16 15 15 15 15 14 15 15 16 16 18 17 16 15 14 13 10 7 6 5 5 6 6 7 7 7 7 8 8 9 9 9 8 8 7
11 11 14 18 20 23 23 19 17 16 16 15 16 16 15 15 16 17 17 17 17 16 15 14 12 10 10 10 10 10 9 8 8 8 9 10 10 10 10 10 10 9 8
12 10 15 18 19 21 23 23 20 17 16 16 16 16 16 16 17 17 16 16 17 16 15 15 14 13 12 12 12 11 11 11 11 11 12 13 13 12 11 11 10 10 9
14 10 15 16 17 18 20 21 22 20 17 16 16 17 17 18 18 18 17 17 17 16 16 16 15 14 14 14 14 14 13 13 13 13 13 13 11 10 10 10 11 10 10
17 13 15 15 14 14 16 17 18 21 20 17 16 17 17 18 17 17 17 17 17 17 17 17 16 16 15 15 14 13 13 14 14 14 13 12 11 11 11 10 10 10 10
19 17 16 14 12 12 12 13 15 16 19 21 18 16 16 16 15 16 15 16 15 16 15 16 15 15 14 14 14 14 13 14 13 13 13 13 14 13 13 12 11 11 10
22 19 17 14 12 10 9 9 11 12 14 16 19 18 17 16 16 15 14 15 14 15 14 14 13 12 12 12 12 12 12 13 13 13 13 13 14 14 13 13 13 11 11
24 20 19 16 14 11 9 8 8 9 11 12 13 15 16 16 16 17 17 16 15 14 13 12 12 12 12 12 12 12 12 12 12 12 13 13 14 14 14 13 13 14 13
28 24 21 19 16 13 11 10 9 7 8 8 8 9 11 11 11 12 12 12 12 13 12 12 12 11 11 11 10 10 10 10 11 11 11 12 13 14 14 14 14 13 13
30 27 24 21 20 16 14 13 11 10 8 8 7 7 5 6 6 6 6 7 7 7 6 6 6 5 5 4 4 4 5 6 6 6 7 7 8 9 11 12 13 14 13
32 30 27 24 22 20 18 15 14 13 11 10 9 8 8 6 5 4 2 2 0 1 1 2 3 4 4 4 4 5 7 8 9 9 10 12 11 11 12 13 13 13 14
31 30 29 28 25 23 20 17 17 15 14 14 12 12 11 10 10 9 9 9 8 8 8 8 8 8 9 9 10 11 12 13 14 14 14 14 15 16 14 15 15 15 15
26 29 30 29 27 26 23 21 20 18 18 17 16 15 14 14 13 13 13 13 13 13 13 13 13 13 13 14 15 16 17 18 18 18 18 19 19 19 17 18 18 18 17
19 22 28 30 29 28 25 23 21 20 19 19 18 17 17 16 16 15 15 15 15 15 16 16 16 16 16 17 17 18 19 21 21 22 23 23 23 23 21 20 21 21 20
24 22 23 25 28 28 26 24 22 21 20 19 18 17 17 17 16 16 16 16 16 17 18 18 18 18 19 20 21 21 22 23 23 24 25 25 25 25 24 23 22 22 22
25 21 23 24 26 26 25 23 23 21 19 18 17 17 17 18 18 18 18 18 18 19 20 20 21 21 21 21 22 23 24 24 24 25 25 25 25 25 25 25 24 23 23
25 22 20 21 22 22 22 23 21 20 19 19 18 17 17 17 17 18 19 20 21 22 22 21 21 21 22 22 23 25 26 26 25 24 25 26 27 27 28 28 28 28 27
26 23 21 22 21 21 21 21 19 18 19 19 18 17 18 19 18 18 19 21 22 22 22 22 23 24 25 26 26 28 28 27 26 27 28 28 28 28 28 28 28 28 28
27 28 24 22 21 22 22 21 20 20 21 21 20 21 21 22 22 22 21 22 23 23 24 25 27 28 29 30 30 30 31 30 30 31 33 32 30 30 30 30 30 30 29
30 29 27 25 23 22 22 21 22 22 22 23 24 24 26 26 26 25 25 25 26 26 28 29 30 32 32 33 34 33 34 34 35 34 33 34 35 34 33 33 33 33 32
29 29 28 26 24 25 25 25 26 25 25 27 28 29 29 29 29 28 28 28 29 30 30 32 33 34 34 35 38 38 38 37 37 37 36 34 33 33 33 35 35 34 34
29 27 25 23 22 23 25 24 25 25 25 27 28 28 29 30 30 30 31 31 33 34 34 34 34 35 36 37 39 40 42 41 40 34 31 31 30 29 31 32 34 35 35
31 29 27 26 25 25 26 27 27 28 28 28 29 30 31 31 31 32 33 34 34 35 35 35 36 37 39 38 37 39 40 41 40 37 32 30 30 29 30 29 31 33 34
32 34 29 29 29 30 29 29 28 29 29 30 31 32 32 32 33 34 35 36 37 37 37 37 37 38 39 39 38 37 36 37 38 39 36 32 29 30 30 28 26 26 28
40 37 33 36 33 33 32 31 31 31 31 31 32 32 33 34 35 36 37 37 36 36 36 36 35 36 36 36 36 35 33 35 35 36 39 37 33 29 26 27 28 31 33
37 37 35 32 32 32 31 30 31 31 31 32 33 34 35 37 37 37 37 36 35 35 34 33 33 34 35 36 36 35 35 35 34 35 36 35 31 29 32 32 32 32 33

GFSSE_700_spd_063.txt.gz
Wind_Speed
10 9 10 15 15 14 14 15 14 14 13 13 13 15 15 15 16 16 15 15 14 14 15 11 8 5 4 4 5 6 7 7 8 8 8 8 9 9 9 9 9 9 8
10 9 10 17 19 17 16 16 16 14 14 14 14 14 15 15 15 16 16 15 14 13 12 10 8 8 8 8 9 8 8 9 9 9 10 10 10 10 10 10 10 10 9
9 12 12 17 19 21 20 18 16 15 15 15 15 15 15 15 15 15 16 15 15 14 13 12 11 11 10 10 11 11 11 11 10 10 9 13 11 11 11 11 10 9 8
12 12 15 16 17 19 22 21 18 16 15 16 16 16 16 17 17 17 16 16 15 14 14 14 13 13 13 13 13 12 11 10 11 9 12 12 11 10 11 11 11 10 9
16 14 16 15 15 15 18 21 21 18 16 16 16 17 16 17 17 17 17 17 16 16 16 16 15 15 14 13 13 12 12 12 12 13 14 13 12 13 13 12 11 10 10
19 18 17 16 15 13 13 16 18 20 19 16 15 15 15 16 16 16 15 15 15 15 15 15 14 14 13 13 12 11 11 12 11 13 13 12 13 13 14 13 13 12 12
24 20 18 16 15 13 11 11 12 14 16 18 17 16 15 15 15 14 13 14 14 14 14 13 13 12 11 11 10 11 11 11 12 13 13 14 14 14 14 14 14 13 13
26 22 20 17 16 14 13 9 8 10 11 12 15 16 16 15 15 15 13 12 12 12 11 11 11 11 10 10 11 11 11 12 12 12 12 13 13 14 14 15 14 14 14
28 24 22 18 16 16 14 12 8 7 7 9 9 11 12 13 12 13 11 11 11 11 11 10 10 9 9 8 8 8 8 9 9 9 10 11 12 13 14 14 15 15 15
31 25 24 20 17 16 14 13 11 8 6 6 4 5 5 6 6 7 6 6 7 6 5 5 4 4 4 4 5 6 7 8 9 9 10 11 12 14 15 16 16 15 15
34 28 25 23 21 19 17 15 12 12 10 9 7 6 5 5 3 3 2 1 1 1 1 1 2 4 5 6 8 9 10 11 12 13 13 14 14 15 17 17 18 18 17
34 32 29 26 24 22 21 17 16 15 14 12 11 10 10 9 9 9 9 9 9 9 9 9 9 10 10 11 12 14 15 15 16 17 18 19 19 19 18 18 19 19 19
32 31 31 29 27 25 23 21 19 17 16 16 14 14 13 13 14 14 14 14 14 14 14 14 14 14 14 15 16 17 17 18 20 21 21 23 23 23 23 22 23 22 21
29 31 30 30 29 27 25 23 21 20 20 18 17 17 16 17 16 17 17 17 16 16 17 17 17 16 17 17 18 19 20 21 22 23 24 24 24 25 25 25 25 25 24
27 28 29 31 30 29 26 25 23 23 21 20 19 18 18 18 18 18 18 18 18 18 19 19 19 19 20 20 21 21 21 22 23 24 24 23 24 25 25 26 26 25 25
27 25 25 26 29 30 29 27 26 24 23 21 20 19 19 18 17 18 18 19 20 21 21 21 21 22 22 22 21 22 22 23 23 25 25 23 23 25 26 27 29 28 28
28 27 25 25 26 26 27 28 26 25 23 21 20 19 18 17 17 18 18 19 21 21 22 22 23 22 22 23 23 24 26 26 26 26 25 25 27 27 29 29 30 30 29
31 30 28 28 26 27 28 28 27 25 23 21 20 18 17 17 19 19 20 20 21 21 21 22 22 23 24 25 26 28 29 29 28 29 29 30 31 33 31 30 32 32 31
32 29 28 26 25 24 24 25 25 23 22 21 19 18 18 20 22 23 23 24 24 23 23 23 24 26 27 28 30 31 32 32 32 33 33 33 34 33 34 36 34 34 34
32 29 27 26 25 23 23 23 22 21 20 19 20 21 23 24 26 26 27 27 27 27 27 27 28 29 30 31 32 34 34 35 36 36 35 34 35 38 35 33 35 34 34
32 31 29 28 26 26 26 24 23 21 21 22 24 26 28 29 29 30 30 29 29 29 29 30 32 32 33 33 35 35 37 37 37 36 38 36 34 32 31 33 32 32 33
33 32 32 31 29 28 27 26 25 25 26 27 27 27 29 30 31 31 31 30 31 32 31 32 34 35 36 35 37 37 39 37 37 40 36 30 30 31 30 29 31 32 33
35 33 32 33 32 30 29 28 25 26 27 30 30 29 30 30 31 32 32 33 33 35 35 35 36 38 38 38 38 39 40 40 40 39 38 31 29 31 31 31 31 30 30
36 35 33 31 31 30 29 29 29 29 31 32 32 31 31 32 33 33 34 34 35 36 37 38 38 39 39 40 39 37 38 38 37 39 36 31 31 30 31 29 28 27 25
39 38 34 34 33 32 31 30 31 30 30 31 30 32 33 33 34 35 35 37 38 39 39 39 37 37 36 37 36 36 34 35 34 36 39 34 31 31 28 26 26 29 30
43 41 36 37 41 38 35 31 31 32 33 33 33 34 34 34 35 36 37 39 39 39 38 37 36 35 35 35 35 35 36 35 34 36 35 33 34 32 31 27 29 32 32

GFSSE_700_spd_066.txt.gz
Wind_Speed
9 10 9 10 11 12 13 13 13 12 12 13 14 15 15 16 16 15 14 14 18 14 12 9 5 4 5 6 8 9 10 10 10 10 10 10 11 10 10 10 9 10 9
8 11 11 12 13 14 14 14 15 14 13 14 14 15 15 16 16 15 15 14 13 12 10 9 8 9 10 10 11 11 11 12 12 11 11 11 12 12 12 11 11 10 9
10 12 14 16 16 16 15 15 16 15 14 14 14 15 15 15 15 15 15 15 14 13 11 12 12 12 12 13 13 13 12 12 12 10 9 11 12 12 12 11 10 10 9
12 14 16 17 18 19 17 16 16 16 16 15 15 16 17 16 16 15 15 15 15 15 14 14 14 14 15 15 14 12 12 12 12 11 13 14 14 14 13 13 12 12 11
16 16 17 18 18 19 20 19 17 16 16 16 17 16 17 17 18 17 17 17 16 16 16 16 15 15 14 14 14 12 11 12 11 13 14 14 14 14 15 15 16 15 14
19 18 18 18 18 18 18 19 20 18 16 16 16 15 16 16 17 17 17 17 16 15 15 15 15 14 13 12 12 11 11 12 12 14 14 15 16 16 16 17 17 16 15
21 19 19 18 18 17 16 16 17 19 20 18 16 15 14 15 15 15 15 15 14 13 12 12 12 12 11 11 12 12 13 13 13 15 16 16 17 17 18 18 18 17 16
24 22 20 19 18 16 15 13 13 15 16 17 18 18 16 15 15 14 13 13 12 12 12 12 12 12 12 12 12 11 11 11 11 13 13 14 15 15 16 17 17 17 17
27 24 22 20 18 17 15 12 10 11 12 12 13 14 15 16 15 15 13 12 11 11 11 10 10 10 9 9 9 9 10 10 11 12 11 13 14 15 16 16 17 17 18
29 28 25 22 18 16 15 13 10 8 8 8 7 7 9 10 10 10 10 9 9 8 7 6 6 6 6 6 7 8 10 11 13 13 14 13 14 15 17 17 18 18 19
33 30 27 23 21 18 17 14 10 8 7 6 5 3 2 3 3 2 2 2 1 1 1 2 3 4 6 7 9 11 12 13 15 16 16 17 17 16 17 19 20 19 19
35 32 29 25 23 21 18 16 14 13 11 9 7 6 5 5 4 4 5 6 6 7 8 9 9 10 11 12 13 14 15 16 17 18 18 19 20 20 20 19 20 21 21
37 31 31 26 24 22 20 18 17 16 14 12 11 10 9 9 10 9 10 11 12 12 13 14 14 14 14 15 15 15 16 18 19 20 20 20 21 21 21 22 21 21 21
38 31 31 29 27 25 22 20 18 18 17 16 14 13 12 12 13 13 12 13 14 15 15 15 16 16 16 17 17 18 19 19 20 20 20 20 21 21 21 21 22 23 24
34 33 31 31 30 28 26 23 21 21 20 19 17 16 15 15 15 14 14 15 15 15 16 17 18 18 18 19 20 20 20 20 20 21 21 21 22 22 22 24 24 24 25
30 32 33 31 30 29 28 26 24 23 22 21 20 18 17 16 14 14 14 15 16 17 18 19 19 20 21 21 20 20 20 21 22 23 23 23 23 24 26 27 29 28 26
24 27 29 30 29 30 29 28 26 26 24 23 22 19 18 16 14 13 14 15 16 17 18 19 20 20 20 20 21 22 23 24 25 26 26 26 26 26 28 30 29 30 30
28 27 26 26 25 26 26 26 27 27 26 24 23 20 18 16 14 14 16 17 19 19 19 20 21 21 21 22 23 25 27 28 27 27 28 29 31 30 29 29 32 33 32
29 28 26 27 27 28 26 26 27 26 25 23 22 20 17 16 16 17 19 20 22 23 23 23 23 24 25 25 27 27 28 29 30 31 31 32 31 32 35 33 32 31 29
29 29 29 28 27 27 28 27 26 25 23 22 20 18 17 18 19 21 23 24 25 26 26 26 26 27 27 29 30 31 31 31 33 33 32 32 32 32 32 32 30 29 28
30 31 30 29 26 26 25 23 21 21 21 20 19 19 20 21 22 24 25 27 27 27 27 28 29 30 30 30 33 33 32 33 34 34 33 33 31 29 28 29 28 29 29
31 31 31 30 28 27 25 24 24 23 23 22 22 22 21 23 25 26 26 27 28 29 29 29 31 32 33 34 36 37 39 38 34 35 35 33 32 30 32 27 27 28 28
33 32 31 30 30 30 28 27 27 27 25 25 25 23 22 23 25 28 28 29 31 32 32 32 33 34 36 37 37 38 38 41 38 37 36 34 31 30 31 30 28 29 27
31 33 33 34 33 33 31 31 30 28 28 28 29 27 26 25 30 30 30 31 32 33 34 35 36 38 39 39 37 36 36 38 38 39 33 32 33 31 31 30 29 29 23
38 35 36 35 33 34 33 32 30 29 29 30 29 29 30 30 31 31 31 32 33 34 36 37 37 38 38 38 36 35 34 35 35 37 39 33 33 34 30 31 31 30 26
38 40 37 37 38 34 32 30 32 30 28 29 29 31 32 33 32 32 32 32 33 35 35 36 36 36 36 36 35 35 35 35 35 35 36 35 33 33 33 28 32 28 26

GFSSE_700_spd_069.txt.gz
Wind_Speed
11 10 10 9 10 11 11 11 12 12 12 13 14 15 15 15 15 15 19 17 14 11 10 8 6 6 8 9 10 11 12 12 13 14 13 14 13 13 12 11 10 10 10
8 11 11 11 11 12 12 12 13 13 14 14 14 15 16 16 15 15 15 13 13 12 9 9 10 11 11 11 13 14 14 14 14 14 14 13 13 12 12 12 12 10 10
11 13 13 13 13 14 14 13 14 14 14 14 15 15 16 16 16 16 14 12 12 13 13 13 13 13 13 14 14 14 14 14 14 13 14 15 14 14 14 14 13 13 13
14 16 16 17 16 16 15 15 15 15 15 16 15 16 16 16 16 16 16 15 14 15 15 15 15 14 13 14 13 14 14 14 13 13 13 16 15 15 15 15 15 15 14
18 19 19 19 19 19 18 16 16 16 16 17 16 16 17 18 18 18 17 17 17 17 16 15 14 13 12 13 12 13 14 15 14 15 16 16 16 17 17 17 17 16 16
21 20 19 18 20 21 21 20 17 16 16 17 17 17 17 18 18 18 18 17 16 16 15 14 13 11 11 12 13 14 16 17 16 17 16 17 18 18 19 19 19 19 18
24 22 20 19 20 20 20 21 22 20 18 17 17 16 16 16 16 16 16 15 15 14 13 12 12 12 12 13 14 15 15 16 16 16 16 17 17 17 18 18 18 18 18
27 24 22 20 19 20 20 20 20 20 21 21 20 19 18 17 16 16 15 14 14 14 14 13 13 12 12 12 12 13 13 13 13 14 15 15 16 16 16 17 17 18 18
30 26 24 21 19 18 18 18 18 18 17 17 18 18 19 18 18 17 16 14 13 12 11 11 11 10 10 10 9 9 10 11 12 12 13 15 15 15 16 17 17 17 17
32 29 25 22 18 16 15 15 14 14 14 13 13 12 13 13 13 13 12 11 11 10 9 9 8 7 7 7 8 9 10 12 12 13 14 14 15 15 16 17 18 18 18
29 30 28 25 21 16 14 12 12 10 10 10 9 7 8 8 7 6 6 5 4 3 2 3 4 6 8 9 10 11 13 13 14 14 15 15 15 15 16 17 18 17 17
29 29 31 29 25 21 17 14 11 9 7 6 7 5 3 2 3 1 1 2 4 5 6 8 9 10 11 12 13 14 15 15 16 16 16 17 17 17 17 16 17 18 17
30 26 32 31 27 23 19 17 16 13 10 7 6 5 4 5 5 5 5 6 7 9 10 11 12 12 13 13 14 15 16 17 18 16 16 17 17 18 18 17 18 20 20
25 27 24 30 28 26 23 21 18 16 14 12 11 10 8 9 8 8 8 8 9 10 10 12 13 13 15 15 16 17 17 17 17 17 16 18 18 18 18 18 20 22 22
27 26 32 34 29 27 25 23 21 19 18 16 15 13 12 12 12 10 9 9 9 10 11 12 14 14 15 16 17 17 17 16 17 18 18 19 20 20 21 21 22 23 22
33 32 36 37 32 29 27 24 22 21 21 20 18 16 15 14 15 13 11 11 10 10 11 12 14 15 16 16 16 16 16 17 18 20 21 22 22 23 24 25 26 26 25
23 31 35 31 38 32 27 25 25 25 24 23 21 18 17 16 16 14 12 12 12 13 14 14 15 16 16 17 17 18 19 21 21 22 22 23 23 24 25 25 25 27 29
24 22 26 27 28 25 26 27 26 28 27 26 24 21 19 18 16 14 14 13 14 15 16 17 18 19 20 20 20 22 23 23 25 24 22 24 27 26 26 28 26 26 26
26 25 23 23 24 23 24 25 27 26 27 24 22 20 19 18 17 15 15 16 17 18 18 19 20 20 21 22 23 24 25 26 28 28 27 29 27 29 29 29 28 25 25
27 26 26 27 26 25 27 28 28 27 26 22 25 22 19 18 18 17 17 18 19 21 21 21 21 23 24 25 25 27 28 28 29 28 27 28 30 29 29 29 27 27 25
27 27 27 25 25 26 26 26 25 25 25 25 25 23 21 20 19 19 19 20 21 22 22 23 24 26 27 28 30 30 30 31 33 31 29 29 31 31 28 28 28 27 25
25 27 25 24 26 25 24 23 23 22 20 20 22 23 23 21 20 20 21 21 22 23 24 25 27 28 29 29 33 35 36 34 34 34 28 27 29 30 29 28 28 29 28
22 25 28 27 26 26 26 27 25 25 25 26 25 23 22 22 22 22 22 23 24 25 26 27 29 30 32 31 33 36 39 38 36 35 33 30 29 28 30 31 30 31 29
26 28 31 32 28 28 29 29 28 27 26 25 26 27 24 25 24 24 23 24 24 26 28 30 31 32 34 34 34 34 36 37 37 38 32 30 30 30 31 32 31 32 29
35 33 27 28 32 31 33 31 33 29 30 31 28 27 27 26 26 25 25 26 27 29 30 31 32 33 34 36 36 34 34 34 34 36 38 30 30 32 32 34 31 29 32
36 34 33 34 34 35 33 33 35 35 33 32 28 28 27 26 25 26 28 29 31 31 31 32 33 34 35 36 35 35 34 33 32 34 36 36 33 31 34 34 30 26 27

GFSSE_700_spd_072.txt.gz
Wind_Speed
11 12 10 10 9 9 9 9 10 9 11 11 12 12 13 15 17 18 18 15 12 10 8 5 4 7 10 11 12 13 13 14 15 14 14 14 14 13 12 11 11 10 11
9 12 11 10 10 10 10 10 11 12 12 13 13 14 14 15 17 20 15 13 12 10 7 8 10 12 13 13 13 13 13 14 14 14 14 14 13 13 12 12 12 12 12
13 12 13 12 12 12 12 12 13 13 14 14 14 14 15 15 16 16 15 14 13 11 12 12 13 14 14 13 14 14 15 14 14 15 14 15 15 14 14 14 14 14 14
15 14 14 15 14 14 14 14 14 14 14 15 15 15 15 15 16 15 15 14 15 14 14 14 14 14 14 13 14 14 14 14 15 16 17 18 17 17 17 17 17 16 15
18 18 18 17 16 16 16 15 16 16 16 15 16 16 16 16 16 17 17 16 16 16 15 14 14 14 13 12 13 14 16 16 17 18 19 18 18 18 18 19 19 18 18
22 21 21 20 19 18 18 17 17 17 17 16 16 17 17 17 17 17 17 17 16 15 13 13 12 13 13 14 15 16 17 18 18 18 17 17 17 16 17 17 17 17 18
26 25 24 23 22 21 21 20 19 19 18 17 17 17 17 17 17 17 16 15 14 13 12 13 13 14 14 14 15 15 16 15 14 14 14 14 14 15 15 16 15 16 16
28 28 26 25 24 23 22 23 23 22 20 19 18 18 17 17 17 16 15 15 15 14 14 14 13 13 13 13 13 12 13 12 12 13 13 13 13 13 14 14 14 15 15
30 28 27 26 26 25 23 23 23 23 23 22 21 21 20 20 19 18 17 15 15 14 13 13 12 12 11 10 10 10 10 11 12 13 13 14 14 14 14 14 14 15 14
30 29 27 25 25 25 23 21 21 20 20 19 18 17 17 17 16 16 15 13 12 11 10 9 8 8 8 8 9 10 11 12 12 13 13 13 14 14 14 14 14 15 15
29 31 29 26 25 24 22 20 17 16 16 15 13 12 12 11 11 10 9 8 6 5 4 3 4 7 8 9 10 11 12 12 13 14 15 14 14 14 14 14 14 14 15
27 28 30 28 26 24 22 19 16 13 12 11 10 8 7 5 5 4 3 2 0 2 4 6 7 8 10 11 12 12 13 14 15 15 14 13 14 14 14 14 14 15 16
27 25 27 29 29 26 23 21 17 14 10 7 6 6 5 3 2 2 2 3 4 5 6 7 8 9 10 11 12 13 14 16 15 14 14 14 15 15 15 15 16 17 18
29 23 24 27 29 28 26 23 21 18 14 12 8 7 7 7 6 6 6 6 7 7 8 9 9 10 11 12 13 15 15 15 15 14 14 16 17 17 17 18 19 20 19
21 15 30 25 25 29 27 26 24 22 19 17 14 12 11 10 10 11 9 9 8 8 8 9 10 11 13 14 15 15 14 14 15 15 17 18 18 19 20 21 21 21 20
27 15 21 26 25 28 28 28 26 23 21 19 18 15 14 14 13 13 11 11 10 8 8 9 10 11 13 13 13 13 14 15 16 17 18 20 20 19 21 22 22 22 23
23 21 17 23 32 22 28 28 28 25 23 22 21 20 18 17 17 15 13 13 12 10 10 10 12 13 14 14 15 16 16 17 18 19 20 21 21 21 23 22 24 22 24
19 21 20 27 26 33 23 33 29 26 24 24 24 23 21 20 19 18 16 16 14 12 12 13 14 15 15 16 16 17 18 20 21 22 23 23 23 23 22 24 26 25 24
27 24 26 30 28 28 27 33 31 27 27 27 27 25 23 23 22 20 18 18 16 15 15 16 16 17 18 19 19 20 21 22 24 25 25 26 27 27 25 27 27 27 26
24 26 25 25 29 28 30 31 26 26 27 27 25 22 22 23 23 22 21 20 18 17 18 19 18 19 20 21 23 24 23 24 25 26 27 28 30 30 28 27 26 25 26
29 28 26 26 24 26 25 25 26 25 24 24 26 26 28 26 25 23 22 20 19 20 20 20 20 21 22 24 27 27 26 27 29 28 29 24 27 29 28 25 24 24 25
21 25 27 26 24 24 24 23 24 24 23 21 22 28 26 24 25 24 22 20 21 21 21 22 23 24 25 26 29 32 32 30 30 29 31 29 24 26 28 26 25 26 25
23 25 17 22 29 25 24 25 24 23 23 25 25 25 24 24 25 23 22 23 22 22 22 24 25 26 27 27 29 33 36 36 34 34 31 29 30 29 29 29 27 28 28
24 22 25 20 25 22 22 26 26 25 25 23 22 21 22 24 24 24 24 24 24 24 24 24 26 27 30 29 30 31 35 38 36 38 33 29 30 30 31 31 31 28 29
33 32 34 27 21 23 34 34 30 29 29 26 24 25 27 29 30 27 26 23 23 24 25 26 27 28 30 32 33 33 35 36 36 37 37 31 31 32 33 33 32 29 31
30 29 32 32 30 27 30 31 30 30 34 30 29 32 34 30 26 24 22 21 22 24 24 27 31 32 33 35 36 37 37 37 36 36 37 36 33 31 34 35 33 30 30

GFSSE_700_spd_075.txt.gz
Wind_Speed
12 10 9 8 7 7 7 7 7 8 9 9 9 12 13 17 19 18 17 14 10 7 5 3 4 8 11 13 13 14 13 13 13 14 14 14 14 13 13 12 12 12 13
11 11 10 9 9 8 8 8 8 9 11 12 11 13 15 19 16 16 14 12 10 8 7 8 10 12 13 14 14 13 14 13 14 14 16 16 15 15 15 15 15 14 14
13 12 12 11 10 9 10 9 10 11 12 13 13 14 15 18 17 13 12 12 10 10 12 12 13 14 14 14 14 13 13 13 14 15 17 17 18 17 17 17 16 16 15
14 11 12 12 12 11 11 11 12 13 13 14 14 15 15 17 16 14 14 13 13 14 14 14 14 14 14 13 13 14 14 15 17 17 18 18 18 18 18 18 18 18 18
17 15 14 15 15 14 13 13 14 14 14 15 15 15 16 16 15 15 15 15 15 15 15 14 13 13 14 14 14 15 16 16 17 18 18 17 17 16 17 17 17 17 17
19 17 17 17 17 17 16 16 16 16 16 16 17 17 17 17 17 17 17 16 16 15 14 12 13 14 15 14 14 14 15 16 16 16 15 15 14 15 15 15 15 15 15
21 20 20 19 19 19 19 19 18 18 17 17 18 18 18 18 18 17 17 16 15 13 13 13 14 14 14 14 15 14 14 14 14 13 13 13 13 13 13 13 13 13 13
23 23 23 22 22 22 22 21 20 19 18 18 18 18 18 18 17 16 16 15 15 15 14 13 13 13 13 13 13 12 12 12 12 12 12 12 12 12 12 12 12 12 12
24 24 25 25 25 24 24 23 22 22 21 19 19 18 18 18 18 17 17 16 15 14 14 14 13 13 11 11 11 10 10 11 11 11 11 12 12 12 12 12 12 12 12
24 25 28 27 27 27 27 26 25 24 23 22 22 21 20 19 18 17 16 14 13 12 11 10 8 7 7 7 8 8 9 10 11 12 12 12 12 12 12 12 12 12 13
25 25 26 27 28 28 27 26 25 24 22 20 19 18 17 16 14 13 12 10 9 7 5 4 4 4 6 7 7 8 9 9 11 13 13 12 12 12 13 13 13 13 15
25 26 27 26 27 27 27 26 24 22 20 17 15 14 13 11 10 9 7 5 3 2 2 3 5 6 7 9 9 10 11 11 13 14 13 13 13 14 13 14 14 15 17
32 21 23 25 27 27 26 25 23 21 19 16 14 11 9 8 6 4 3 2 2 3 5 6 7 8 9 10 11 12 13 14 14 14 14 14 15 15 15 15 16 17 18
33 26 25 23 24 26 28 27 25 21 19 15 14 11 10 8 7 6 6 6 6 6 6 7 8 9 10 11 12 14 15 15 14 14 15 16 17 18 18 18 17 18 18
14 19 29 31 25 25 27 28 27 24 22 19 16 14 12 11 10 9 9 10 9 9 8 8 8 9 10 11 12 13 13 14 14 15 16 17 19 19 19 18 19 19 18
19 7 11 16 31 26 27 28 27 26 24 21 18 17 16 15 14 13 12 12 12 12 10 9 9 10 11 11 12 13 13 14 15 16 18 19 21 21 21 22 22 19 20
23 11 11 15 18 27 27 27 30 28 25 23 21 20 18 17 17 17 16 15 15 14 12 11 11 12 12 13 13 14 14 15 16 18 19 20 21 21 22 22 22 22 21
26 22 14 18 5 37 33 25 26 27 27 27 26 24 22 21 20 20 20 19 18 16 14 14 13 14 15 15 15 16 16 17 18 20 21 22 22 23 23 24 25 26 23
26 24 20 21 16 25 19 23 31 29 24 27 28 27 25 24 24 24 23 22 21 19 17 16 16 16 16 17 17 18 18 19 20 21 23 25 26 26 26 24 24 25 26
27 26 24 24 22 28 23 25 27 28 26 22 29 31 28 25 25 25 25 24 23 21 19 17 18 18 18 19 20 20 21 21 23 23 24 27 27 27 27 25 24 25 26
31 28 25 23 24 26 24 24 26 23 30 34 34 26 24 23 24 26 26 27 24 22 21 20 20 20 20 22 23 24 23 24 25 26 27 27 28 25 26 25 24 26 26
27 29 29 25 25 24 24 20 22 28 28 28 27 26 26 27 28 28 28 25 24 23 22 21 21 21 21 23 26 27 29 26 26 27 27 27 27 28 26 25 26 26 25
23 22 26 26 25 28 26 26 27 26 27 28 27 26 25 27 28 27 26 24 24 23 22 21 21 22 22 23 26 29 32 32 31 30 30 30 29 29 30 29 27 26 27
20 21 22 21 21 25 24 25 25 31 29 28 26 25 25 25 23 24 24 24 24 23 21 20 20 21 23 24 25 28 32 36 36 36 32 32 32 31 31 31 30 30 29
24 21 24 21 19 21 26 27 27 27 25 28 28 26 25 23 22 20 22 24 26 26 21 18 20 20 22 26 30 31 33 36 37 39 39 33 33 32 34 34 33 31 30
34 34 32 28 25 23 24 25 28 33 35 30 29 30 25 26 25 25 23 25 34 32 23 18 22 28 32 36 41 37 37 38 38 38 39 38 34 32 33 34 34 32 30

GFSSE_700_spd_078.txt.gz
Wind_Speed
15 12 10 9 8 7 6 6 6 5 7 7 9 13 16 17 20 17 17 13 10 6 4 4 6 9 12 13 14 14 13 13 13 14 15 15 15 16 15 15 15 14 14
12 12 11 10 9 8 7 7 7 8 8 10 12 14 18 19 17 16 14 11 8 7 6 9 11 13 13 14 13 14 13 14 14 15 16 15 17 17 17 17 16 15 15
15 13 12 11 10 9 9 8 8 11 11 12 14 17 19 16 15 14 12 11 10 10 12 13 13 14 14 14 13 13 13 14 15 16 17 18 19 18 18 17 17 17 17
15 13 12 12 11 10 10 10 11 12 13 14 16 19 20 17 14 13 12 13 14 15 15 14 14 13 13 14 15 15 15 15 16 17 17 17 17 16 16 16 16 16 16
18 15 13 13 13 12 12 14 14 14 14 15 16 19 21 17 15 15 16 16 16 16 15 14 13 13 14 14 15 16 16 16 16 16 15 15 15 14 14 14 14 14 14
20 17 16 15 15 15 15 16 16 15 15 15 16 17 20 18 17 17 18 18 17 16 15 15 15 15 15 14 15 14 14 13 13 13 13 13 12 12 12 13 13 12 12
21 20 18 17 17 17 18 18 19 18 17 17 17 17 18 18 19 19 19 18 16 15 15 16 15 14 14 14 13 12 12 11 11 11 10 10 11 11 11 12 12 12 11
21 20 20 18 19 19 20 20 21 21 20 19 19 18 18 18 18 18 16 16 16 16 15 15 14 14 13 12 11 10 9 10 10 10 10 10 10 11 11 12 11 11 12
21 20 21 21 22 21 21 21 22 23 22 20 19 19 18 18 17 17 16 16 15 15 14 14 13 12 10 9 8 8 8 9 9 10 11 11 11 11 11 11 12 11 12
22 21 22 23 24 24 23 23 22 23 23 22 21 20 20 20 20 19 18 16 15 13 12 10 9 7 6 6 6 7 8 9 10 11 11 10 10 11 11 12 12 12 13
24 24 23 24 26 26 25 25 24 24 25 25 25 24 22 21 19 18 16 14 11 9 7 5 3 3 4 5 5 6 8 9 10 11 11 10 10 11 11 12 12 14 15
26 27 25 25 27 28 27 28 28 26 27 26 25 23 21 19 17 15 12 9 7 5 3 1 2 4 4 5 6 7 8 9 10 12 11 11 11 12 12 13 14 16 17
26 27 27 24 28 29 29 29 29 28 25 24 22 20 17 15 12 9 8 6 4 3 3 4 5 6 7 8 8 9 10 10 11 12 12 12 13 14 15 15 15 16 18
23 34 33 22 26 27 30 30 29 28 26 23 20 18 15 14 12 9 7 6 6 5 6 7 7 8 8 9 10 10 11 11 11 11 12 14 15 16 16 17 16 18 19
17 38 42 31 28 27 29 30 29 28 25 24 22 19 16 14 13 11 10 9 9 9 8 8 8 9 9 10 10 11 11 11 12 13 14 15 17 18 19 19 18 19 17
15 35 43 30 28 30 27 29 28 28 27 25 23 20 18 16 15 14 13 13 12 12 11 10 9 9 10 10 11 11 12 13 13 14 16 17 18 20 20 20 21 19 18
8 2 8 8 36 27 30 29 27 28 28 26 23 22 21 19 18 17 17 16 16 15 14 12 11 10 11 12 12 13 13 13 15 15 17 18 19 20 20 21 22 22 22
13 17 9 2 5 36 33 33 32 28 28 28 26 24 23 22 22 21 21 19 19 19 17 15 14 12 13 13 14 14 14 15 16 18 19 20 21 22 23 22 21 23 22
18 20 14 13 8 19 37 39 36 28 26 25 26 26 25 24 24 25 24 23 23 22 21 19 17 15 16 16 15 16 16 17 17 18 20 22 23 24 24 24 22 22 23
21 18 20 27 19 21 16 27 31 34 34 27 26 25 25 27 28 29 28 26 26 25 24 22 20 19 18 18 17 17 17 18 18 19 20 22 24 24 23 24 24 22 23
24 26 24 26 30 23 23 23 24 28 36 32 29 28 27 25 29 30 29 28 28 26 25 25 23 21 19 19 19 18 18 19 20 20 21 23 25 25 24 23 23 25 24
27 26 26 26 25 28 28 28 16 10 17 26 31 29 29 28 29 27 27 27 26 25 26 26 23 21 19 18 19 21 20 19 20 21 22 23 25 25 26 25 24 24 25
29 27 26 27 27 23 19 25 30 25 26 27 27 24 27 30 29 28 28 25 25 26 27 24 22 20 18 15 17 20 23 23 25 24 27 28 30 29 28 27 27 25 25
17 18 20 25 28 27 25 30 30 29 23 24 22 24 27 26 27 25 25 26 25 26 25 24 24 21 18 14 15 17 24 29 33 35 31 31 32 32 31 29 29 28 27
16 17 17 18 20 23 23 25 25 24 27 29 23 25 28 29 30 28 25 22 25 25 25 24 27 25 22 15 18 26 30 32 32 36 36 31 34 33 32 32 31 30 29
23 23 21 18 20 20 20 20 22 25 26 26 26 24 25 29 29 22 30 26 29 24 26 23 34 38 35 32 26 32 33 33 33 34 38 36 33 32 32 33 32 31 30

GFSSE_700_spd_081.txt.gz
Wind_Speed
18 15 12 10 9 8 7 7 6 6 7 7 10 14 17 20 20 16 16 16 8 8 4 4 7 10 11 12 12 13 13 13 13 14 13 13 14 13 13 14 14 13 12
15 14 13 11 10 9 8 8 8 7 8 9 12 17 19 19 20 16 14 11 7 6 5 8 10 11 12 12 12 13 14 13 13 14 14 14 14 14 15 15 15 14 14
18 16 14 14 12 11 9 9 9 10 10 12 15 18 19 19 18 17 14 11 9 9 11 12 12 13 13 13 13 14 15 14 14 15 15 15 15 14 15 14 14 14 14
18 16 14 14 14 12 11 11 12 13 13 15 19 20 19 16 17 17 14 12 13 15 15 14 14 14 14 14 14 14 14 15 15 15 14 15 14 14 14 13 13 13 13
22 18 16 14 15 14 13 14 15 16 16 18 22 21 18 16 15 15 17 17 18 17 16 14 14 15 15 15 15 14 14 13 13 13 13 13 13 12 12 12 12 12 11
23 20 17 16 16 16 16 16 17 17 18 20 24 23 20 17 16 19 20 20 19 17 15 14 15 15 15 14 14 13 12 11 11 11 11 11 11 11 11 11 11 11 11
24 21 19 18 17 17 18 18 19 19 19 21 24 25 20 17 19 20 21 20 18 16 15 16 15 14 14 13 12 11 10 9 9 9 9 9 9 10 10 10 11 11 11
24 23 21 19 17 18 19 21 21 21 20 21 23 24 21 21 21 22 20 19 17 17 16 15 14 13 12 11 9 8 8 7 7 8 7 8 8 8 9 10 10 11 11
26 23 22 22 20 21 21 22 22 23 23 23 23 24 25 24 23 21 19 19 19 17 16 16 14 12 10 8 6 5 5 5 5 6 7 7 7 8 9 9 10 11 12
29 25 24 24 22 23 23 24 24 24 24 24 25 25 25 24 22 22 21 19 18 17 15 13 11 8 6 4 2 2 3 4 5 6 6 6 7 8 9 10 11 12 13
32 28 25 23 23 24 25 25 26 26 26 26 25 25 24 24 24 23 21 19 17 14 11 8 6 4 2 0 1 3 4 5 6 7 7 6 7 8 9 10 11 12 13
30 27 26 24 24 26 26 27 26 27 27 27 26 26 25 25 23 22 19 16 14 10 7 4 3 2 2 3 4 5 6 7 8 8 7 7 8 9 11 11 12 13 15
32 29 25 25 25 27 28 28 28 28 29 30 30 28 26 24 21 18 15 12 10 7 5 4 4 5 6 6 6 7 7 8 8 8 8 8 9 11 12 13 14 14 16
19 33 29 30 30 29 30 30 30 30 30 30 29 27 25 21 18 16 13 11 9 7 6 6 6 7 7 7 7 7 8 8 8 8 9 10 11 12 13 14 14 14 16
27 42 30 33 33 32 32 32 33 33 32 29 27 25 24 21 19 17 15 13 11 10 9 9 8 7 7 7 7 7 7 8 9 10 11 12 13 14 15 16 16 16 18
21 30 34 34 34 33 31 31 33 34 33 31 28 25 22 21 19 17 15 14 13 13 12 12 10 8 8 8 8 8 9 8 9 11 12 14 16 16 17 18 19 18 18
11 12 37 41 33 38 33 32 31 32 33 31 29 27 24 22 20 18 17 16 16 15 14 14 13 11 9 9 10 10 10 10 11 12 13 15 16 17 18 19 19 20 20
8 3 10 50 47 42 31 35 32 31 31 30 30 28 26 24 22 21 20 20 20 19 18 18 17 15 13 12 12 12 12 12 13 14 14 16 17 19 21 21 20 21 20
14 10 6 36 26 48 33 41 33 25 32 33 30 29 28 26 26 25 25 24 24 22 22 23 21 19 17 16 15 14 13 13 14 14 16 17 18 19 19 21 21 21 21
23 20 14 11 16 47 42 49 41 30 32 31 30 28 26 26 27 27 27 28 27 26 26 26 25 23 21 19 17 17 14 14 13 14 15 17 19 20 20 20 20 21 21
31 27 20 17 16 20 36 36 39 38 39 32 30 29 26 27 25 29 28 29 29 28 29 29 28 26 24 22 21 18 15 15 14 13 14 16 18 21 22 22 22 21 22
26 38 24 23 24 22 21 28 26 38 46 43 39 32 32 30 28 27 29 28 31 30 29 30 30 28 27 25 22 21 18 14 13 14 15 18 21 23 24 24 24 24 23
22 20 24 18 20 21 23 17 23 26 25 51 45 40 36 39 37 32 26 26 24 24 25 27 28 28 27 25 21 20 19 18 20 18 19 24 28 28 27 27 26 26 26
16 13 14 18 19 17 28 23 24 21 21 25 37 39 42 37 31 27 24 24 26 28 28 27 25 25 26 25 22 19 17 18 23 26 24 28 29 29 30 30 28 27 27
20 19 19 17 19 20 23 23 26 23 24 18 23 27 23 24 24 21 23 25 27 24 27 27 29 29 26 22 27 25 21 24 30 34 33 30 30 29 30 32 31 29 29
15 15 15 15 15 16 17 18 18 20 19 17 18 20 20 20 14 16 18 25 28 37 33 24 28 31 33 28 30 37 36 35 35 33 32 28 28 28 30 31 31 30 29

GFSSE_700_spd_084.txt.gz
Wind_Speed
18 19 16 12 11 10 9 9 9 9 10 12 14 16 19 21 19 15 15 14 12 9 4 5 7 9 10 10 11 11 10 11 11 11 11 10 10 11 11 11 11 10 10
14 19 16 13 12 11 10 10 10 10 11 12 15 17 21 22 19 16 17 12 7 6 6 8 11 11 11 11 11 11 11 12 12 12 12 12 12 12 12 12 12 12 12
16 19 17 15 14 12 11 11 10 11 11 13 17 20 18 21 20 18 16 12 9 8 10 12 12 11 11 11 12 12 13 13 13 13 13 12 12 11 11 11 11 11 11
19 21 19 17 16 15 13 12 12 12 13 15 21 21 18 20 19 17 15 12 11 13 14 13 12 12 11 12 13 13 13 13 13 12 11 11 11 11 10 10 10 11 10
24 23 20 18 17 16 15 14 15 14 14 18 21 21 19 18 18 17 15 13 15 16 15 13 12 13 12 13 13 12 12 11 11 10 9 9 9 9 9 10 10 10 10
27 24 21 18 18 18 17 16 17 18 20 22 22 22 19 17 18 17 17 17 18 17 15 14 13 13 13 12 12 11 10 10 9 8 7 7 7 7 8 9 9 10 10
26 24 22 20 20 19 19 20 20 20 23 26 25 23 20 19 19 20 21 21 19 17 16 15 15 14 13 12 11 10 8 7 6 6 5 5 5 7 7 8 8 9 9
25 24 23 23 20 20 21 22 23 23 25 29 27 25 22 21 22 23 23 22 20 17 17 16 14 13 12 10 8 7 5 5 4 4 3 4 5 6 7 7 8 8 9
26 27 26 25 22 22 23 24 25 25 27 30 30 28 24 24 25 25 24 21 19 18 17 15 14 12 10 8 5 4 3 2 2 3 3 3 4 5 6 7 7 8 10
26 28 26 27 25 24 24 27 26 27 27 29 31 27 26 26 27 25 23 21 20 18 16 15 12 10 6 4 2 1 1 2 3 3 3 3 4 5 6 7 8 9 10
34 30 30 28 26 25 25 27 29 29 29 30 31 30 29 29 27 25 24 22 20 19 16 13 10 7 5 3 2 3 3 4 4 5 4 3 4 5 7 8 9 10 10
58 31 33 28 26 26 28 28 30 30 30 30 31 32 31 30 28 27 25 23 21 17 13 11 9 6 5 5 4 5 5 5 6 5 4 4 5 6 7 8 10 11 12
49 17 30 28 27 27 29 30 31 32 32 32 32 32 31 30 29 28 25 22 19 15 12 10 8 7 7 6 6 6 6 6 6 6 5 5 6 7 9 10 12 13 14
28 36 32 25 27 28 33 33 32 33 33 32 32 31 31 30 28 26 23 20 17 14 12 10 9 8 8 7 7 7 7 6 6 6 7 7 8 9 11 12 14 15 17
23 40 21 32 31 30 32 34 35 34 34 34 34 33 32 30 27 24 22 19 17 15 13 12 10 9 9 8 8 7 7 7 7 7 8 9 10 11 13 13 14 15 18
21 20 13 37 32 34 31 33 35 36 36 36 35 34 32 30 27 24 22 19 18 16 15 14 13 12 11 10 9 8 8 8 9 9 10 11 12 12 13 14 16 17 18
21 10 7 32 32 37 33 32 34 36 38 37 36 34 33 30 27 25 23 22 20 19 18 17 16 15 14 13 12 11 11 11 10 11 12 13 13 14 15 16 16 17 18
19 17 21 24 30 37 35 31 31 32 36 37 35 34 32 31 28 27 25 24 23 22 21 20 19 19 18 17 16 15 13 13 12 13 13 13 14 15 15 16 16 17 17
23 20 19 25 28 43 34 33 30 31 33 34 34 33 32 31 29 28 27 26 26 24 23 23 23 22 23 22 21 18 16 14 14 14 14 14 14 14 15 16 17 17 18
27 24 16 19 35 47 46 34 34 33 30 32 34 31 31 31 29 30 30 28 28 27 27 26 26 26 26 26 24 22 19 18 17 16 16 15 15 15 15 17 18 19 20
38 28 22 26 28 43 60 37 40 37 30 28 30 31 30 32 31 30 30 30 31 29 29 28 28 29 30 31 29 26 22 20 20 17 15 15 15 16 18 20 21 21 22
38 28 25 19 28 26 56 55 41 42 41 36 30 31 31 33 34 33 27 29 29 29 30 30 31 31 32 34 31 30 25 23 21 17 16 17 18 19 22 24 24 24 24
45 35 37 29 25 24 52 52 40 45 43 45 44 40 36 34 35 35 32 31 30 29 27 27 27 29 31 34 33 30 28 24 24 21 20 20 22 25 26 25 26 26 26
32 23 31 35 37 19 19 28 38 36 52 55 50 44 45 41 43 44 39 38 39 33 30 30 28 29 30 28 28 29 26 26 27 26 26 25 28 30 30 30 30 28 28
8 4 3 10 8 20 10 16 25 16 19 27 45 46 54 51 51 45 40 38 35 28 27 24 29 29 37 29 31 25 24 22 25 29 30 33 35 34 32 30 29 30 30
14 10 8 9 11 10 11 14 22 24 15 18 18 16 17 56 36 37 26 21 17 23 19 21 29 30 36 31 32 25 30 29 32 39 40 40 41 34 30 30 31 32 30

GFSSE_700_spd_087.txt.gz
Wind_Speed
13 18 18 15 14 12 11 11 11 12 14 15 16 16 18 20 16 14 14 14 12 8 4 4 6 7 7 7 8 8 8 9 9 9 9 9 9 9 10 10 10 10 10
23 17 19 16 15 13 11 11 11 12 14 16 16 17 19 21 18 15 16 15 10 8 6 6 7 8 8 8 8 8 9 10 10 10 9 10 11 10 11 11 11 11 11
24 18 19 18 16 15 13 13 13 13 14 15 16 18 21 22 19 16 17 15 9 7 7 9 9 8 9 9 9 9 10 11 11 11 10 11 10 10 11 11 11 10 10
25 21 20 19 18 16 15 14 13 13 14 15 16 18 20 20 19 18 16 14 10 9 11 11 10 10 10 10 10 10 11 11 11 10 11 10 9 9 10 9 9 10 10
23 21 22 20 18 17 16 15 14 14 14 15 19 19 19 20 20 19 16 13 11 12 13 12 12 11 12 11 11 11 11 10 9 8 9 8 8 8 8 8 9 9 9
17 24 23 20 18 18 17 16 15 16 15 19 22 22 19 20 20 19 17 15 15 16 15 14 13 12 12 11 10 9 9 8 7 7 6 6 6 7 7 7 8 8 8
18 26 23 20 20 18 18 17 17 18 20 23 24 23 21 21 20 19 17 17 18 18 15 14 14 13 12 10 9 8 7 6 4 5 4 4 5 5 5 6 7 7 8
20 25 24 25 23 21 18 18 20 21 24 25 23 25 24 22 21 19 19 20 20 18 16 15 13 12 11 9 7 6 5 4 3 2 2 3 3 4 4 4 5 6 7
39 28 26 27 25 23 20 20 23 24 27 25 25 25 24 24 22 22 22 22 20 18 17 15 14 12 10 8 6 4 2 1 1 1 1 1 1 2 3 4 5 6 7
46 28 31 25 24 22 21 22 25 26 30 31 28 23 25 24 24 25 24 23 20 19 17 15 14 11 8 6 4 3 1 1 1 2 2 1 1 3 4 5 6 7 8
29 39 25 28 25 22 24 25 27 29 32 35 32 31 25 24 26 27 26 24 22 20 18 16 13 10 7 5 4 3 3 3 3 3 3 3 3 4 5 6 8 9 10
30 26 37 31 29 23 28 28 29 30 32 36 37 31 27 28 29 30 26 25 23 20 18 16 12 9 7 6 5 5 5 5 5 5 4 4 4 5 6 7 9 11 11
30 25 42 37 29 33 34 31 29 32 32 34 36 35 30 31 32 29 27 26 23 21 19 16 13 10 9 8 7 7 7 6 6 6 5 5 6 7 8 9 10 11 13
28 23 29 47 40 25 37 34 31 31 32 33 35 35 35 34 31 29 28 26 24 21 18 15 13 11 10 9 8 8 8 7 7 7 6 7 7 8 9 10 11 13 14
22 25 24 29 46 12 31 33 31 30 32 32 33 35 35 33 32 31 29 27 24 21 18 16 14 13 12 11 10 10 9 9 9 8 8 8 8 9 10 11 12 12 14
23 24 18 20 33 35 33 34 33 32 32 34 34 35 35 34 33 32 30 28 25 22 20 17 16 15 14 13 13 12 11 10 10 10 10 10 10 10 11 12 14 15 15
22 23 23 17 24 32 34 39 33 34 33 35 35 36 36 36 35 34 31 28 26 23 21 19 18 18 17 16 15 14 13 12 12 12 12 12 11 11 12 13 14 15 16
28 13 13 14 12 29 44 40 30 34 34 33 36 37 37 37 36 34 32 29 26 24 22 21 20 20 20 20 19 18 17 15 14 14 14 14 13 14 13 14 15 15 16
34 20 19 18 17 20 31 41 31 31 34 35 36 38 38 37 35 33 31 29 27 26 25 23 23 23 23 23 23 22 20 18 17 16 16 15 14 15 15 15 15 17 17
29 23 18 24 21 22 20 39 32 31 34 37 40 39 37 35 34 33 31 30 29 28 26 26 26 26 25 25 26 26 25 23 21 19 18 17 16 16 16 16 17 18 19
29 25 25 24 21 34 26 49 37 34 31 34 37 38 36 36 34 35 33 30 31 31 28 30 30 30 28 28 29 29 29 27 25 22 20 18 18 18 18 19 21 22 24
42 38 29 27 23 35 36 48 38 36 34 33 35 34 35 37 36 37 35 33 33 34 35 33 32 31 30 29 30 31 30 29 29 23 22 21 20 19 20 22 24 26 26
43 37 35 32 31 30 27 51 35 40 38 39 35 36 34 34 32 33 33 32 33 38 31 30 31 33 33 33 31 30 30 31 27 24 24 22 20 20 23 26 28 29 30
15 42 42 36 33 28 22 41 34 39 38 36 38 41 36 34 33 34 36 36 36 34 34 34 39 36 29 33 32 30 30 29 27 25 25 23 21 24 28 29 33 35 33
20 28 41 40 32 28 25 25 48 42 39 40 35 42 42 41 35 37 39 39 44 43 42 38 40 33 35 37 36 33 33 32 32 25 23 23 27 33 38 39 41 37 31
15 21 25 13 29 28 17 17 27 56 45 35 25 46 39 41 47 43 50 49 52 51 40 46 39 28 35 20 34 36 37 27 31 19 28 30 33 35 29 30 29 29 28

GFSSE_700_spd_090.txt.gz
Wind_Speed
13 9 18 16 15 13 12 11 12 13 13 14 15 16 18 18 16 15 13 14 12 9 4 2 3 4 5 6 6 6 6 7 8 8 9 9 9 9 10 9 10 10 11
23 22 15 16 15 14 13 12 13 13 14 15 16 16 18 19 16 14 15 14 12 8 4 3 5 6 6 6 6 6 8 8 9 9 9 10 10 10 10 10 10 10 10
30 20 19 18 17 16 15 14 14 14 15 16 16 17 19 20 18 15 16 16 10 8 6 5 7 7 7 8 7 7 8 8 9 10 9 11 10 10 10 10 10 10 10
18 25 22 19 19 18 17 15 15 15 15 16 17 17 19 20 19 17 17 15 12 9 8 9 8 8 7 8 8 8 8 8 9 9 9 10 9 9 9 9 9 9 10
15 19 20 20 19 18 18 16 16 15 16 16 17 18 20 20 20 18 17 17 13 11 11 10 9 8 9 9 8 8 8 8 8 7 8 8 8 8 7 8 8 9 9
19 20 21 20 18 18 19 18 16 16 15 16 17 17 21 21 20 19 19 16 13 13 13 12 10 9 9 9 8 8 7 7 6 6 6 6 6 6 6 6 7 8 8
24 28 24 21 19 19 19 18 17 16 16 17 20 20 20 22 20 20 18 16 14 14 14 12 11 10 10 9 8 7 5 5 4 4 4 4 4 4 4 5 6 6 7
30 26 30 28 23 22 19 19 18 18 17 21 22 23 21 21 21 20 18 16 17 16 15 13 12 11 10 9 7 6 5 3 2 2 2 3 3 3 3 3 4 6 7
36 31 34 34 29 25 22 20 20 21 18 25 26 25 26 25 23 21 18 19 19 18 16 15 14 12 10 9 7 4 3 2 1 1 1 2 1 1 2 3 4 5 6
31 35 33 28 29 25 22 21 22 24 26 28 27 27 26 25 23 21 21 22 21 19 18 16 14 12 10 8 6 4 3 2 2 2 2 2 1 1 2 4 5 6 7
27 27 34 42 38 32 26 22 24 27 30 30 28 27 26 25 24 23 24 24 22 20 19 17 15 13 10 7 5 4 4 4 5 4 4 3 3 3 3 4 5 7 9
22 21 17 25 36 28 28 23 25 28 31 35 31 26 25 29 26 26 26 25 23 22 20 18 16 12 10 7 6 6 6 6 7 6 6 5 5 4 4 5 7 8 9
26 21 21 25 24 43 35 29 26 30 33 37 37 34 26 30 28 28 28 26 24 23 20 18 15 12 10 8 8 8 8 8 8 7 7 6 6 6 6 6 7 9 10
32 24 22 20 22 33 33 21 29 33 34 36 40 38 32 27 28 29 28 26 24 23 21 20 16 14 11 10 10 10 10 9 9 8 7 7 7 7 7 8 9 9 11
30 24 19 18 25 28 42 24 31 33 34 36 38 41 37 32 30 30 30 28 27 25 23 20 17 14 13 13 12 12 11 11 11 10 8 8 8 8 8 9 10 11 12
26 25 20 19 23 23 26 32 18 28 27 33 34 36 41 38 32 33 32 31 29 27 24 20 18 17 15 14 14 13 13 12 11 11 9 8 9 9 10 10 11 12 13
23 27 24 24 20 19 29 27 23 16 25 27 31 32 35 36 35 35 33 31 29 27 25 23 21 19 17 16 16 15 15 14 13 13 12 11 10 11 11 11 12 12 13
23 30 26 26 22 19 25 30 43 33 25 25 28 30 33 36 37 36 34 31 31 29 27 24 22 20 19 19 18 18 17 16 15 14 14 13 13 12 12 12 13 14 14
28 22 37 19 18 18 21 24 24 27 45 30 28 30 33 36 37 36 36 35 33 30 27 25 24 22 21 21 20 20 21 20 19 17 17 17 15 14 14 14 14 15 15
37 28 32 28 24 18 20 27 22 39 39 38 28 30 32 36 37 38 37 35 33 31 29 27 25 24 23 22 22 23 24 23 23 22 21 20 19 17 16 16 16 16 17
38 33 27 28 28 23 23 28 25 39 41 37 35 33 31 33 37 37 37 35 33 32 29 27 26 27 25 25 25 26 26 27 27 26 25 23 21 19 18 18 18 19 20
35 31 29 30 30 24 26 26 23 38 34 34 35 38 39 33 32 33 35 33 32 31 30 33 29 29 29 27 28 29 30 30 28 30 28 25 23 21 20 19 19 21 23
31 34 26 33 24 25 27 32 30 37 33 35 35 36 34 39 35 35 36 34 34 34 34 34 32 32 32 33 30 31 32 32 28 28 30 24 23 22 21 20 21 23 26
24 27 32 35 37 31 28 26 36 44 40 36 32 35 35 40 38 38 34 40 40 34 34 32 30 32 29 34 33 30 32 34 33 33 32 25 27 25 23 22 26 30 35
26 31 24 36 33 18 28 25 24 36 45 38 41 34 36 40 42 37 35 32 33 32 33 34 33 36 41 39 31 31 42 42 35 34 33 33 30 27 22 25 32 33 27
22 23 27 29 32 38 22 17 23 34 28 44 38 36 34 40 39 41 34 35 39 40 44 40 44 45 44 47 53 52 36 36 35 35 35 37 28 24 32 34 30 25 21

GFSSE_700_spd_093.txt.gz
Wind_Speed
15 12 6 13 17 15 13 13 12 13 13 14 15 15 17 18 16 14 13 13 12 8 4 2 2 4 6 5 5 5 6 6 7 8 8 9 9 9 10 9 10 9 11
12 17 17 11 16 15 14 14 13 13 13 13 15 16 18 18 16 15 15 14 12 8 6 4 4 3 4 5 5 6 6 6 7 8 9 10 10 9 9 9 9 9 10
16 24 24 18 17 17 16 15 15 15 15 15 16 17 18 19 16 16 16 16 13 8 6 4 4 4 4 5 5 6 7 7 8 9 8 9 10 9 9 9 9 9 9
9 16 24 25 20 20 18 16 16 16 16 16 17 18 19 20 19 17 17 17 14 10 8 6 6 5 5 5 5 6 7 8 9 8 8 9 8 8 8 8 8 9 9
16 13 18 20 21 20 19 18 17 16 16 17 17 17 20 19 20 19 18 18 14 11 9 8 7 7 6 6 5 7 7 8 8 7 7 7 7 6 7 7 7 8 8
22 17 17 14 19 21 20 19 18 17 17 17 17 18 19 20 21 19 19 18 14 13 11 11 9 8 8 8 7 6 7 7 7 5 5 5 5 5 5 6 6 7 7
19 19 19 17 19 22 20 19 19 18 17 17 18 18 20 22 23 20 19 16 15 14 14 13 11 10 9 9 8 7 6 6 5 4 4 4 3 3 3 4 4 5 6
25 25 24 21 18 20 21 19 19 18 17 17 18 19 21 24 23 21 20 18 16 16 16 14 13 12 11 10 8 7 5 5 5 3 3 3 3 2 1 2 4 5 6
30 28 25 24 20 24 25 22 20 18 17 20 22 23 23 25 24 22 22 20 18 19 17 16 14 13 11 10 8 6 5 4 4 2 3 3 2 1 0 2 3 4 5
27 27 25 32 29 26 32 26 22 22 20 23 26 27 26 26 25 24 22 21 20 20 18 17 15 14 12 10 8 6 4 4 3 3 3 4 3 2 2 2 3 4 5
25 25 25 24 27 22 33 25 25 22 26 26 30 30 29 28 26 25 23 22 22 21 20 18 16 15 12 10 8 6 5 5 4 4 5 5 4 3 2 3 4 5 6
25 24 23 21 23 24 30 28 30 23 25 28 30 31 30 28 27 26 23 24 24 23 21 19 17 15 13 10 8 7 7 6 6 6 6 5 5 4 3 3 5 6 8
21 24 24 25 22 26 23 38 33 29 26 30 31 32 31 30 32 29 25 25 25 24 22 20 18 16 14 11 9 9 8 8 8 7 7 6 6 4 5 5 6 7 8
25 25 28 25 25 23 19 16 42 32 31 28 35 35 29 33 30 31 27 26 26 24 23 22 20 18 15 12 10 10 9 9 9 8 7 7 6 6 6 6 7 7 8
25 29 29 30 29 25 21 21 28 46 27 34 35 38 34 37 42 32 30 29 27 26 25 23 22 19 15 13 12 12 10 11 10 8 9 8 7 7 7 8 8 9 9
32 31 31 30 29 26 24 21 24 43 33 38 33 35 41 40 20 25 31 30 31 28 27 25 23 19 16 15 13 12 12 11 11 9 9 8 8 8 8 9 8 9 10
25 33 34 22 24 25 22 19 22 18 28 31 31 32 36 40 34 29 31 33 32 30 29 26 24 21 19 16 15 14 14 14 12 12 10 10 10 10 10 9 9 9 10
26 30 22 27 24 26 25 23 23 20 36 15 34 27 31 34 40 35 35 35 34 32 29 28 26 23 20 18 16 16 15 15 15 14 14 13 12 11 10 11 11 11 11
32 32 25 22 26 29 27 27 23 25 29 37 33 32 30 30 34 40 37 37 34 34 33 30 27 24 22 20 18 17 17 16 18 18 17 17 15 14 13 13 13 12 12
35 36 34 27 24 31 32 27 22 26 23 27 33 23 43 29 30 37 39 39 38 37 35 33 29 26 23 21 20 19 19 19 20 21 21 22 21 18 16 17 16 14 15
33 34 38 35 26 31 27 28 23 26 25 28 31 39 45 32 30 34 38 40 40 38 35 32 30 28 25 23 21 21 21 24 23 23 25 26 25 22 20 20 19 18 18
28 28 28 32 29 29 33 32 25 26 29 30 31 37 39 42 30 34 36 38 38 38 36 34 31 28 24 25 25 25 26 27 27 25 28 28 27 24 23 24 23 22 22
27 28 27 28 29 27 35 39 24 25 28 35 32 32 40 39 36 32 34 37 37 36 35 33 30 29 25 30 33 26 27 29 29 29 30 29 29 26 27 27 26 25 23
26 25 24 24 23 26 35 32 26 22 30 34 36 32 34 37 39 41 37 34 34 34 34 32 28 29 32 34 31 29 28 29 29 32 30 32 30 30 31 31 29 27 25
24 21 21 21 22 25 27 41 38 31 28 35 29 34 39 37 38 37 41 32 31 33 32 33 34 34 33 29 27 30 31 33 36 30 39 45 39 37 35 32 30 28 26
22 25 25 24 19 19 30 32 32 28 24 38 38 35 32 42 34 32 36 39 38 36 36 31 40 42 37 41 40 36 43 48 49 43 41 46 41 35 35 39 32 33 35

GFSSE_700_spd_096.txt.gz
Wind_Speed
13 13 9 7 11 13 13 13 12 12 14 15 15 14 14 14 15 13 11 10 9 8 4 2 4 4 3 2 4 4 5 6 7 7 8 8 9 9 8 8 9 9 8
18 17 16 14 10 12 13 14 13 13 14 15 15 14 14 15 15 14 12 12 12 9 5 4 5 2 3 2 3 5 6 6 7 7 8 9 9 8 7 8 8 9 9
11 12 16 18 15 15 16 15 15 14 14 14 15 15 15 15 16 15 13 14 12 9 5 4 5 3 3 3 4 5 5 7 8 8 7 8 8 7 8 8 8 7 7
5 10 16 19 18 18 18 17 15 15 15 14 14 17 17 17 17 16 15 15 14 10 5 5 6 5 4 4 5 6 6 7 8 8 8 7 7 7 7 8 7 7 7
12 12 13 14 16 18 19 18 17 15 15 15 15 15 18 18 19 17 16 16 15 9 9 7 7 6 5 5 6 7 7 7 7 7 6 6 6 6 6 6 6 6 7
15 17 16 10 9 15 19 18 18 17 16 16 16 16 19 19 20 19 17 16 15 11 10 10 9 8 7 7 7 7 8 7 6 5 5 5 5 5 5 4 4 5 6
16 16 19 17 12 12 17 19 19 17 17 16 16 18 18 19 19 21 19 17 16 14 14 12 11 10 8 8 7 8 7 7 5 4 3 3 3 3 3 2 2 4 5
18 18 20 14 16 16 16 18 19 19 17 17 17 19 18 20 22 23 21 19 16 16 15 14 13 11 10 9 8 7 6 5 4 4 3 3 2 2 1 1 2 3 4
21 23 26 22 19 17 17 18 18 19 19 19 19 19 20 24 26 24 23 20 17 17 17 16 14 13 11 10 9 8 8 6 5 4 4 4 3 2 1 1 2 3 4
21 18 21 25 25 21 18 19 21 24 21 20 21 23 24 25 27 25 23 20 20 19 19 18 17 15 13 11 10 8 8 6 5 5 5 5 5 4 3 2 2 3 4
20 22 24 23 21 23 25 22 19 23 27 23 23 26 26 27 28 26 24 22 21 21 21 20 18 16 14 13 11 9 8 6 5 6 6 6 6 5 4 3 3 4 5
22 19 23 23 23 21 18 15 20 22 24 28 26 29 29 27 27 24 24 23 22 23 24 22 20 18 16 14 12 10 8 6 6 7 6 7 7 6 5 4 4 5 6
22 24 18 20 23 22 20 23 20 29 26 30 31 31 31 31 28 26 26 25 24 25 25 24 22 19 17 15 12 10 8 8 7 8 8 7 7 6 5 5 5 6 7
29 27 20 22 22 24 22 22 19 25 34 31 37 36 33 32 32 31 30 28 25 26 26 24 23 21 19 16 13 11 9 9 8 8 9 7 7 6 6 6 6 6 7
28 27 24 24 27 26 24 23 25 20 29 31 40 38 36 32 35 34 35 32 28 28 27 26 25 23 20 17 15 13 11 11 10 10 9 9 8 7 7 7 7 6 7
30 31 27 30 32 27 28 28 25 25 26 30 41 37 35 38 28 32 32 33 30 30 29 28 26 24 21 18 16 14 12 13 12 10 10 9 9 9 8 8 7 7 7
32 34 38 33 31 31 29 30 25 25 29 33 26 39 42 38 39 31 44 28 31 33 33 31 30 27 24 21 18 15 15 14 13 12 11 12 10 10 8 9 9 9 8
34 31 31 36 24 35 29 25 25 28 29 31 28 31 52 42 39 34 27 30 33 37 35 34 32 29 26 22 19 18 16 16 15 15 13 13 11 12 10 11 11 11 10
36 27 25 33 29 36 27 24 27 29 31 29 25 19 36 43 35 36 36 30 34 39 39 35 33 31 28 25 23 21 19 18 17 17 17 16 15 14 13 13 15 15 14
30 29 27 28 27 25 26 25 26 28 25 28 28 33 34 26 24 41 39 39 35 40 38 37 35 34 31 27 25 23 22 20 19 18 18 20 19 18 17 17 18 18 18
39 35 29 31 31 29 23 26 31 27 28 28 33 29 27 29 40 43 43 41 41 39 38 37 37 37 33 30 28 26 24 23 21 18 19 23 21 24 22 21 22 23 21
33 32 31 29 27 31 28 25 27 30 30 33 33 30 31 32 36 48 40 40 43 41 42 41 40 37 34 32 29 27 27 25 23 26 26 28 22 27 26 24 25 25 24
29 30 27 25 26 28 30 30 27 29 33 30 34 34 35 36 39 44 40 37 38 41 42 41 39 37 35 33 30 29 29 29 27 28 30 25 25 28 29 27 27 28 28
23 28 29 26 26 27 26 24 24 30 35 31 37 31 31 37 43 38 42 35 35 37 39 39 39 38 35 32 33 33 32 33 34 35 27 26 25 27 29 30 28 31 31
24 26 25 24 24 25 25 23 28 31 34 37 31 30 36 32 36 41 50 41 39 39 40 39 40 39 36 35 37 40 37 32 32 27 28 30 32 32 36 39 37 39 36
21 25 25 23 22 22 23 22 25 21 29 38 40 36 35 40 36 36 44 42 43 44 46 42 38 39 39 40 39 40 39 39 40 39 32 37 40 48 40 46 35 35 35

GFSSE_700_spd_099.txt.gz
Wind_Speed
14 13 13 11 7 7 10 10 11 11 11 12 12 12 11 11 13 12 10 9 7 5 2 2 6 8 4 2 0 1 2 4 4 5 6 6 6 7 7 7 9 7 9
12 15 15 15 12 7 7 10 12 11 12 12 13 13 12 11 12 12 10 9 8 6 4 4 5 6 3 0 2 3 4 4 4 5 7 7 7 7 7 7 7 9 8
11 13 12 12 12 11 12 11 12 14 12 13 13 13 13 10 11 12 11 10 9 8 6 5 5 5 2 0 2 4 4 5 5 6 6 6 7 6 7 7 6 6 6
9 12 13 13 13 14 14 13 13 14 14 13 13 12 12 12 13 12 12 10 10 9 7 5 5 5 3 1 2 4 5 5 5 5 5 5 6 6 6 7 6 6 6
11 10 12 12 12 15 16 15 14 15 14 14 12 11 12 14 15 13 12 11 12 10 9 8 7 6 4 3 4 4 5 5 5 5 4 4 4 4 4 5 5 6 6
13 13 15 14 10 10 14 15 14 15 15 14 14 14 14 16 16 15 13 13 13 12 9 10 9 7 5 5 5 5 6 6 5 4 3 3 3 3 3 3 4 4 5
13 10 12 12 15 9 8 11 13 15 15 16 16 16 15 16 16 17 16 16 14 13 11 11 10 9 7 7 6 7 6 5 5 4 2 2 2 2 2 2 2 3 4
18 17 17 14 11 11 11 11 12 13 15 16 16 17 17 15 18 19 19 18 16 15 14 14 13 11 10 8 8 8 7 6 5 4 3 3 2 1 1 1 2 2 3
20 19 20 20 17 16 16 13 13 12 13 15 17 18 19 19 21 21 21 20 18 17 16 16 15 13 12 10 9 8 7 6 5 4 4 4 4 3 3 3 3 3 4
22 19 19 16 17 14 16 16 14 15 15 17 18 19 21 23 25 24 24 21 18 19 18 18 17 15 13 12 10 9 8 7 6 5 5 5 5 5 5 5 4 4 5
19 19 16 18 18 17 19 20 20 18 16 16 20 20 21 24 25 26 23 21 20 20 19 19 19 17 16 14 12 10 9 8 7 7 6 6 7 7 6 6 5 5 5
20 20 20 21 21 23 21 22 22 20 19 17 18 23 24 26 26 25 24 23 22 21 20 21 21 20 18 16 14 11 9 8 8 8 7 7 8 8 7 6 5 5 5
20 23 21 18 21 24 25 22 20 16 19 19 18 21 28 29 29 27 26 25 24 24 23 24 24 22 20 18 14 12 10 9 9 9 9 8 8 8 8 7 6 6 5
27 26 23 20 18 21 27 23 20 22 20 22 25 21 26 33 32 29 28 26 26 25 24 25 25 24 22 19 16 13 11 10 10 10 10 9 9 8 8 8 7 7 6
32 30 28 24 19 22 23 21 20 23 23 19 28 28 26 35 36 35 31 29 29 30 25 28 28 26 24 21 18 14 12 12 11 11 11 10 10 9 9 9 8 8 7
34 33 30 27 24 25 24 23 25 23 22 24 20 26 28 34 39 39 32 31 35 35 31 31 31 28 25 23 20 16 14 14 12 12 12 11 10 10 10 10 9 10 8
31 34 35 29 28 27 25 27 29 28 26 25 25 25 31 33 45 42 38 35 41 34 35 36 34 32 30 26 22 19 17 15 15 14 13 13 11 11 11 11 10 11 10
30 29 30 33 32 33 30 29 28 31 29 27 27 26 32 28 33 52 44 40 38 34 34 37 36 34 30 28 25 21 19 18 18 17 15 14 13 13 12 12 12 14 13
31 31 30 29 29 29 28 29 26 29 33 31 27 28 29 27 38 45 47 44 36 42 39 37 37 36 33 30 27 25 23 21 21 20 18 17 17 15 14 13 15 16 16
32 29 31 29 24 22 27 29 34 30 30 32 28 27 29 28 35 44 42 40 49 31 36 41 40 42 36 32 31 29 27 25 24 22 21 21 19 18 18 16 18 19 21
38 34 29 27 26 26 29 23 21 29 30 31 25 25 30 29 32 39 46 39 46 42 32 39 41 41 39 35 35 33 30 29 27 24 23 23 21 20 21 22 21 20 25
41 35 34 29 25 25 28 30 32 27 27 30 26 25 26 31 32 34 41 40 47 47 40 39 43 41 40 38 37 35 35 33 29 26 26 24 25 26 25 25 27 26 26
33 33 35 34 31 29 31 32 34 34 29 28 28 29 31 35 34 41 41 43 44 44 43 44 43 40 42 39 39 38 38 35 30 29 27 26 26 32 29 28 29 25 27
31 29 35 36 34 28 30 30 30 34 33 31 29 27 30 30 36 41 41 40 43 42 39 44 46 46 43 41 40 40 39 36 33 33 31 30 30 35 34 33 30 26 26
27 27 29 32 29 26 27 27 26 30 30 28 30 33 30 35 35 38 40 49 44 43 44 41 44 43 41 40 41 39 38 38 39 41 40 43 35 40 27 27 26 25 33
24 23 24 28 24 25 25 25 26 27 28 29 29 31 30 32 37 41 39 47 45 43 41 39 41 42 41 42 42 41 41 42 41 44 45 48 42 29 33 38 40 44 41

GFSSE_700_spd_102.txt.gz
Wind_Speed
10 8 12 8 9 6 4 5 7 8 9 9 8 8 8 9 11 11 8 7 5 4 2 2 5 8 5 4 3 2 3 3 3 4 5 6 6 7 7 8 9 10 13
13 10 11 12 13 7 4 4 6 8 9 9 9 9 9 9 9 9 9 8 7 6 3 3 5 8 5 3 1 1 3 3 4 4 5 5 6 6 6 9 9 8 6
6 9 11 12 9 8 8 8 8 8 10 11 10 10 10 9 8 9 9 8 7 6 4 3 5 7 4 2 1 1 2 4 4 5 5 5 5 6 6 5 6 6 6
5 10 11 10 11 12 10 10 9 9 10 12 11 10 10 9 8 7 8 7 6 6 6 4 5 6 4 1 1 1 2 4 5 5 4 4 4 5 5 5 6 6 6
11 12 12 12 12 13 11 10 11 11 10 11 12 10 7 8 10 9 8 8 8 8 7 6 7 6 5 4 2 2 3 4 4 4 4 3 3 4 4 4 5 5 6
10 13 12 12 11 11 11 11 12 11 11 11 12 10 8 10 11 11 9 10 10 10 8 7 8 7 6 5 4 3 4 4 4 3 3 3 2 2 2 2 3 4 5
12 13 12 12 11 11 9 9 11 11 11 11 12 12 12 13 14 13 12 12 11 11 11 9 8 8 7 7 6 5 5 5 4 4 2 2 1 1 0 1 2 3 4
18 18 16 14 13 14 12 11 11 10 11 11 12 13 14 15 14 14 15 15 14 13 13 13 11 10 9 8 8 6 6 5 5 4 4 3 2 2 1 1 2 3 4
20 19 18 17 17 16 18 16 14 12 11 10 11 13 16 16 16 16 17 17 16 15 15 14 15 12 10 9 9 8 8 7 6 5 4 4 3 3 3 3 3 2 2
21 20 20 20 19 19 18 18 16 14 14 13 12 13 16 19 19 19 20 20 18 16 15 15 16 15 12 11 10 10 9 8 7 6 5 5 5 5 5 4 3 3 3
20 20 21 20 19 18 20 19 18 16 16 16 17 15 15 17 22 22 23 22 18 18 16 16 16 17 16 14 12 11 10 8 8 7 7 7 6 6 6 6 6 4 4
26 21 20 23 21 20 19 20 20 20 20 20 20 18 16 17 21 24 24 22 20 21 20 19 19 19 18 16 14 12 11 10 9 8 8 8 8 8 8 7 7 5 5
29 29 27 24 22 23 23 23 21 22 24 22 21 20 19 18 22 25 25 25 24 24 23 22 22 21 19 18 16 14 12 11 9 9 9 9 9 9 9 8 7 7 6
32 30 28 27 24 18 23 25 24 22 21 20 20 21 20 19 21 25 27 26 27 27 26 22 24 22 22 20 18 16 14 12 11 10 9 10 9 9 9 9 9 8 8
35 33 29 30 25 24 21 25 23 25 21 22 15 15 23 22 21 25 29 31 29 30 28 25 27 25 25 24 20 18 16 14 12 11 10 11 10 10 10 10 10 9 9
39 37 36 31 29 25 24 23 25 17 18 17 18 18 15 24 23 24 27 31 32 33 34 29 29 30 29 27 24 21 18 16 14 13 12 12 12 12 12 11 10 10 9
40 39 39 36 32 30 27 24 23 26 18 18 19 20 20 17 22 26 30 35 37 37 36 36 34 35 34 32 28 24 21 18 16 15 14 14 14 13 13 12 12 11 11
37 38 38 36 34 33 27 24 23 25 24 23 21 24 24 24 26 30 34 39 40 38 44 40 38 40 35 35 29 26 24 22 20 18 16 16 16 15 15 13 14 13 12
36 36 35 35 33 32 32 29 29 29 28 29 22 25 26 28 31 29 30 34 44 45 41 45 43 42 37 38 32 31 28 26 23 22 19 19 19 18 17 16 15 15 15
43 34 33 32 32 31 30 30 31 28 30 29 28 29 27 30 33 33 29 34 39 45 45 41 37 43 43 40 37 35 34 30 28 25 22 22 21 21 21 19 19 18 20
49 39 32 28 28 27 25 25 25 28 24 28 21 23 26 29 25 26 28 30 39 44 44 50 46 42 45 39 39 39 36 35 33 28 25 24 23 23 23 23 22 21 22
46 46 36 29 26 24 25 24 24 26 25 25 28 26 27 29 27 24 28 31 33 40 44 45 38 38 40 42 41 41 41 40 37 30 29 27 25 25 23 23 24 24 25
35 48 40 33 28 25 24 22 25 28 31 28 25 24 26 30 31 30 27 30 36 40 39 38 39 39 51 47 43 43 45 45 34 34 33 30 28 26 25 25 27 27 28
29 37 41 35 31 31 30 28 28 30 30 31 33 31 27 29 31 30 29 26 35 42 42 45 39 34 36 37 39 49 48 44 41 39 36 34 32 31 31 30 29 32 31
24 31 32 34 31 31 31 31 31 31 29 28 29 32 30 28 30 35 36 29 34 32 46 53 48 44 44 43 45 44 50 47 44 41 38 35 37 36 35 34 39 44 29
26 28 29 30 30 31 33 32 32 29 27 28 27 28 30 32 33 34 29 33 35 41 43 50 51 48 46 43 53 53 49 48 46 44 41 41 41 41 39 42 40 40 45

GFSSE_700_spd_105.txt.gz
Wind_Speed
12 5 5 5 4 6 4 3 3 3 3 4 3 3 4 5 7 8 7 6 5 3 2 2 5 8 8 6 3 3 2 4 5 5 6 7 7 6 7 9 11 12 10
10 9 7 7 6 7 4 3 3 4 4 5 6 4 5 5 6 7 7 6 5 3 2 1 5 7 7 5 3 2 3 2 4 5 6 7 6 7 8 10 10 7 6
2 8 8 8 8 6 6 8 6 5 5 5 6 8 7 5 5 5 5 5 5 5 3 1 3 6 6 5 3 1 2 2 3 5 5 6 6 6 6 6 6 6 6
1 4 7 9 8 8 9 9 9 7 7 6 6 6 7 6 5 5 5 5 5 4 3 2 3 6 6 5 3 1 1 3 4 4 4 5 5 6 6 6 5 5 6
7 8 8 9 9 10 10 10 10 9 9 8 7 5 5 5 5 6 6 6 5 4 5 3 4 5 6 5 3 2 1 3 4 4 4 4 4 5 5 5 5 5 5
9 10 11 13 12 11 10 10 9 10 11 10 8 6 5 7 7 6 6 7 8 8 7 6 8 8 5 5 4 2 2 3 3 4 4 4 4 4 3 3 3 3 4
11 12 14 17 16 14 14 14 13 11 12 11 9 9 9 10 10 8 8 11 11 11 9 8 8 9 9 7 5 4 4 4 4 4 3 3 4 3 3 2 1 1 1
18 16 16 16 17 18 17 16 14 12 10 10 10 11 11 12 12 12 11 13 13 13 12 9 8 9 10 10 8 6 5 5 5 5 4 4 4 3 2 2 1 1 1
20 20 18 19 18 17 18 19 18 17 13 11 10 10 11 13 14 15 15 15 15 15 14 11 10 9 10 10 11 8 6 6 6 6 6 5 4 4 4 3 3 2 2
23 23 23 21 20 20 19 19 18 17 16 14 12 10 10 11 15 16 16 16 17 17 15 14 12 11 11 11 11 11 10 8 8 7 6 6 6 6 5 5 4 3 3
27 26 27 25 23 22 23 23 20 19 17 17 17 16 14 12 12 17 18 20 19 17 17 17 14 13 14 13 12 12 11 11 9 8 7 7 7 7 7 7 6 5 4
32 31 29 26 26 25 24 25 23 22 21 21 20 19 18 17 15 15 20 21 23 20 20 19 17 16 17 15 14 13 12 12 11 9 8 8 8 8 8 8 8 7 6
35 34 32 30 27 27 27 26 24 25 24 22 22 21 21 18 19 17 20 22 24 22 22 23 20 19 17 18 16 15 13 13 12 12 10 9 9 9 9 9 9 9 7
37 35 33 32 31 28 29 30 27 25 26 25 24 24 22 22 22 21 21 22 23 26 24 25 23 21 20 21 20 18 16 15 14 13 13 11 10 10 10 10 10 10 9
41 39 36 35 34 32 30 23 25 28 27 27 24 20 21 20 21 23 23 23 23 24 27 29 26 25 26 24 24 21 19 17 16 14 13 13 12 11 11 11 11 11 11
44 43 40 38 36 33 31 28 26 28 34 33 29 18 14 16 21 19 21 23 25 26 27 29 29 29 27 28 28 25 23 21 19 17 15 14 13 13 13 13 13 13 12
47 47 44 42 39 35 31 29 29 29 23 17 10 16 22 17 14 16 20 23 26 27 28 29 33 34 34 34 31 29 27 24 22 19 18 16 15 15 15 14 15 14 14
40 48 48 46 42 38 34 32 31 31 30 29 22 8 13 16 21 20 21 22 26 29 32 34 39 34 37 38 34 33 32 29 25 23 21 19 18 17 17 16 16 16 15
41 47 47 49 46 42 37 34 32 28 30 22 18 20 19 20 20 26 27 28 27 31 34 37 40 40 40 35 43 38 36 33 30 28 24 22 20 20 20 19 18 17 16
41 41 48 46 45 43 39 37 34 29 25 27 25 23 25 28 30 31 28 29 32 33 34 35 37 45 42 35 43 40 40 38 36 33 27 26 23 22 23 23 22 20 19
41 36 50 45 42 42 40 37 33 30 26 23 22 24 27 27 27 27 26 22 27 29 31 33 37 37 42 43 35 44 46 46 41 37 32 29 26 24 24 25 24 23 23
33 30 50 46 47 40 36 35 30 26 26 29 29 28 29 28 27 26 26 24 22 28 27 31 36 40 40 41 40 38 51 50 49 37 35 34 29 28 26 25 25 24 22
28 24 39 43 39 46 39 35 29 26 26 26 26 25 30 33 28 26 26 26 29 29 31 29 32 36 37 37 40 37 43 51 43 39 39 37 35 33 28 26 27 26 25
23 20 31 38 38 23 24 29 27 23 21 24 27 30 32 32 30 26 25 27 27 31 27 31 35 37 38 38 38 38 47 48 49 47 41 38 40 32 32 31 31 30 29
22 25 28 38 33 31 29 28 26 27 28 25 26 29 31 33 34 32 31 29 33 32 33 29 32 37 42 45 43 40 44 42 51 48 45 42 41 38 36 35 36 33 35
13 19 26 34 33 32 30 30 31 31 30 28 27 28 28 29 31 33 34 34 36 37 35 35 33 37 38 45 48 48 46 42 42 48 49 46 43 41 38 37 38 46 45

GFSSE_700_spd_108.txt.gz
Wind_Speed
9 5 2 3 3 2 3 2 3 1 2 3 3 3 3 4 5 6 6 5 3 2 1 1 4 7 7 6 4 2 1 3 4 5 6 7 8 6 8 10 12 11 6
10 7 7 6 6 2 4 3 4 4 3 3 2 3 5 5 5 6 6 4 3 3 2 2 3 6 7 5 4 3 2 3 4 5 6 7 8 9 11 11 7 3 4
8 9 8 8 7 5 4 5 8 8 7 5 3 3 6 5 5 5 5 5 4 4 4 2 3 6 7 6 3 2 1 2 4 5 5 6 6 6 6 6 5 4 4
9 7 7 8 7 8 7 6 7 8 8 7 7 5 6 4 4 4 5 6 5 4 3 3 2 7 8 6 4 2 0 2 3 4 5 6 6 5 5 5 5 4 4
8 8 6 8 9 8 8 9 9 10 8 7 7 7 5 3 3 5 5 5 6 5 6 3 2 5 8 8 6 3 1 1 3 3 3 4 5 5 4 4 4 3 3
14 12 10 10 12 12 12 11 9 9 10 9 8 7 6 7 5 6 7 6 7 6 8 4 3 4 5 7 8 5 2 2 3 3 4 4 4 5 5 4 3 3 2
16 15 15 15 15 15 13 14 14 13 13 12 13 10 9 9 9 8 9 9 9 9 11 6 6 5 4 4 6 6 5 4 3 4 4 4 4 4 4 4 3 3 2
17 21 20 20 19 19 20 19 17 17 15 14 13 12 11 11 12 12 11 12 13 12 13 10 8 8 7 5 5 5 5 5 5 5 5 5 5 5 5 4 4 3 3
20 20 21 21 20 20 21 22 22 20 18 16 14 13 13 13 14 15 14 15 16 14 15 12 11 10 10 9 7 6 6 6 7 7 7 7 6 7 6 5 5 5 4
24 23 24 23 23 22 22 21 22 21 20 19 18 15 13 13 13 15 16 16 16 17 17 15 13 12 12 12 10 9 7 7 7 8 9 9 8 8 8 7 6 6 6
29 28 27 27 26 25 25 25 24 23 22 22 20 19 17 16 15 16 18 17 18 18 18 17 15 14 14 14 13 12 11 9 9 9 9 10 10 10 10 9 9 8 8
32 33 32 31 32 31 29 28 29 28 27 25 24 23 22 20 19 17 18 21 20 21 19 19 17 17 17 17 15 14 13 12 11 10 10 10 11 12 12 11 11 11 10
35 36 36 35 35 32 31 30 30 30 30 27 27 25 24 23 23 21 21 20 22 23 24 22 21 20 19 19 19 16 16 15 14 14 12 11 11 12 12 13 12 12 11
37 37 38 38 38 37 35 34 33 31 30 29 31 30 26 25 24 23 23 23 23 25 24 24 25 24 22 22 22 21 19 18 17 16 15 14 13 13 13 13 14 13 13
40 40 41 41 39 38 38 34 33 34 33 30 32 32 29 27 27 28 28 26 25 26 24 26 26 27 26 25 25 24 23 22 20 19 17 16 16 15 14 14 14 15 14
37 40 44 46 43 41 40 38 34 32 34 33 34 33 30 28 28 25 24 26 28 26 25 25 28 29 31 28 27 28 26 26 24 23 20 18 17 17 16 16 16 16 16
35 36 39 46 49 46 43 42 39 35 32 32 34 36 35 27 21 18 22 21 23 26 28 28 30 27 36 29 32 31 30 30 28 26 25 22 20 19 19 18 17 17 17
40 39 40 43 49 51 47 44 40 38 35 32 25 25 33 31 20 17 16 17 20 23 26 28 30 33 33 32 37 35 34 32 34 30 29 27 25 22 21 20 19 19 19
42 41 42 43 47 51 49 46 44 40 36 34 35 35 29 20 13 14 15 22 26 26 26 27 31 32 36 37 34 40 38 38 38 35 33 30 29 26 23 22 22 21 20
40 44 44 45 49 52 52 49 46 45 41 37 32 31 36 45 24 19 26 27 30 31 31 32 30 32 32 35 39 38 35 42 42 44 37 36 32 29 28 25 24 23 23
35 42 44 46 48 54 52 51 50 45 42 35 30 28 27 26 23 28 23 29 31 32 28 32 32 33 35 36 38 40 42 33 40 46 44 42 37 34 31 28 27 27 25
30 34 35 38 41 51 47 48 48 45 40 35 31 28 28 28 24 32 32 31 31 30 30 28 30 30 32 36 40 37 41 44 49 41 42 51 51 42 35 30 30 29 28
26 24 26 30 33 48 42 44 43 42 40 36 32 31 29 30 31 33 32 30 29 31 29 29 26 29 32 33 32 35 40 43 35 37 41 45 47 42 37 31 34 33 31
25 27 25 24 26 39 39 42 39 39 36 33 35 32 29 27 28 31 32 31 32 29 28 27 28 27 31 34 34 36 36 38 36 35 38 41 54 43 40 39 37 36 31
19 22 24 23 24 39 41 42 43 42 38 35 31 30 31 32 33 34 34 33 33 31 31 32 32 32 33 33 37 39 38 39 39 42 40 39 42 45 43 42 42 41 34
12 12 16 21 28 36 38 46 38 29 33 31 30 29 28 30 32 34 36 37 37 36 34 35 36 37 37 38 39 36 41 43 44 42 45 42 43 46 50 42 43 46 46

GFSSE_700_spd_111.txt.gz
Wind_Speed
11 9 8 7 5 3 0 1 2 4 3 3 5 3 4 5 5 5 5 3 1 1 1 3 6 8 9 7 4 3 2 2 4 5 6 7 7 7 8 10 10 7 6
14 12 9 9 8 4 3 1 1 4 5 4 5 4 4 5 6 6 5 3 3 2 2 1 4 7 10 8 6 4 3 3 4 5 6 8 10 10 11 11 7 3 3
11 12 12 10 9 7 6 4 3 4 4 6 6 6 5 6 6 6 4 3 4 4 4 1 2 6 8 8 7 5 3 2 4 5 6 6 8 8 8 6 4 3 2
7 11 12 12 12 10 10 7 5 6 6 7 7 7 7 6 5 4 3 4 5 4 6 5 2 3 6 8 7 5 3 1 2 4 5 4 5 6 6 5 4 3 2
7 9 9 10 12 12 12 10 10 9 9 8 8 7 7 7 4 4 4 4 5 5 6 5 1 2 3 5 5 4 3 1 1 2 3 4 4 4 4 3 3 2 1
13 12 10 10 11 13 12 12 12 12 10 10 9 8 8 7 6 5 6 6 6 6 7 6 3 3 4 3 4 3 1 1 2 3 3 4 4 4 4 3 2 1 0
18 19 16 15 15 16 16 15 14 14 14 14 14 12 10 10 10 9 9 9 8 8 9 10 6 5 5 6 4 3 2 2 3 4 4 5 4 4 4 4 3 4 3
20 19 19 21 22 22 21 19 16 17 17 17 16 15 14 13 12 12 11 11 11 11 11 14 9 7 6 8 8 5 4 4 4 4 5 6 6 7 6 5 5 5 5
21 22 22 22 24 24 24 23 23 21 21 21 18 17 17 16 16 16 15 15 14 15 15 15 13 10 9 9 9 8 7 6 6 6 6 7 7 8 8 8 7 7 6
23 24 23 22 23 24 25 26 25 25 24 23 22 20 19 18 17 18 19 18 17 17 17 17 16 13 13 11 10 10 9 8 8 8 8 7 8 9 9 9 9 9 8
24 26 27 26 26 25 25 26 26 27 27 26 25 23 22 20 20 20 20 19 19 18 19 19 19 17 16 15 13 12 11 10 9 10 11 10 10 10 11 11 11 10 10
27 29 31 31 29 29 29 28 28 29 29 28 27 26 27 25 23 21 20 20 21 19 20 21 21 21 19 18 16 15 13 13 12 12 12 12 12 12 12 12 13 13 12
29 30 32 34 35 35 35 35 33 32 32 32 32 31 30 30 28 26 24 22 21 21 22 22 22 22 21 21 18 17 17 17 15 15 14 14 13 14 14 14 14 14 14
32 32 35 36 36 38 38 38 36 34 33 34 36 35 35 33 31 28 27 26 24 24 24 24 25 25 25 22 22 21 21 20 19 19 18 16 15 15 15 16 16 16 15
33 34 36 39 41 39 40 40 40 39 38 36 36 35 35 35 36 32 29 28 27 28 27 27 26 26 26 26 25 24 25 25 23 22 21 18 18 17 17 16 15 16 17
33 35 35 37 41 44 44 42 41 41 40 40 37 35 36 34 36 35 34 33 32 30 28 27 27 29 29 29 29 29 29 29 26 26 24 23 21 20 19 19 18 17 17
39 40 40 40 41 42 45 47 45 42 42 43 41 39 39 39 38 36 38 32 30 29 29 28 27 28 30 34 37 31 36 32 30 30 29 28 25 24 22 21 20 19 19
38 39 39 42 45 45 47 47 49 47 45 45 43 40 38 38 31 35 41 28 29 26 25 27 29 30 27 33 34 25 33 32 31 34 33 31 30 28 25 24 23 22 21
37 38 38 41 42 49 49 50 52 50 46 46 44 41 38 34 34 38 36 26 21 22 24 25 27 28 31 33 36 33 36 33 35 38 38 35 34 33 31 29 27 25 24
36 35 34 35 39 45 49 51 54 50 47 46 42 42 36 32 32 37 32 30 21 21 23 26 29 30 31 31 33 35 35 36 38 43 42 37 36 41 39 33 31 28 26
34 36 37 36 35 40 47 48 54 53 48 47 44 41 36 37 35 36 37 41 40 12 23 27 29 29 32 31 33 35 35 35 35 38 35 38 44 44 43 37 35 33 30
35 35 32 31 32 34 38 44 51 54 49 48 44 42 37 35 32 28 28 24 33 28 26 27 31 31 30 30 32 33 37 38 39 37 36 38 33 41 44 41 41 40 36
28 31 32 29 23 26 31 36 44 48 48 45 41 41 40 36 30 32 29 28 24 24 26 28 30 34 32 29 31 32 35 40 36 33 36 37 38 40 43 47 48 46 43
22 26 24 25 23 23 26 29 35 40 43 38 40 42 41 33 32 32 31 30 29 31 31 32 33 33 34 34 31 29 35 37 36 37 34 33 33 34 41 47 50 52 52
22 21 19 21 21 21 23 23 31 32 32 35 36 34 39 33 35 32 29 29 31 32 33 33 33 34 35 35 33 34 35 33 38 42 41 37 36 35 33 38 50 48 45
20 17 18 15 15 17 18 23 34 32 41 32 50 36 32 32 32 33 33 34 36 36 35 36 36 36 36 37 39 39 39 39 39 41 44 40 42 41 36 36 40 43 48

GFSSE_700_spd_114.txt.gz
Wind_Speed
9 9 10 9 6 5 3 2 1 2 1 2 5 4 3 4 4 5 6 4 2 2 1 2 4 7 8 8 6 5 3 2 3 5 6 7 8 7 8 5 6 7 5
13 11 11 10 9 7 5 4 1 1 2 2 4 5 5 5 5 5 5 4 3 2 2 1 2 5 8 8 7 5 4 2 2 4 7 9 9 10 10 9 6 2 3
15 14 14 11 12 10 9 8 6 4 4 4 4 5 4 6 7 5 3 4 4 3 3 2 1 4 6 7 6 5 4 3 2 2 4 7 9 9 8 6 3 1 1
14 11 14 14 14 12 11 10 8 7 6 7 7 6 5 5 6 5 3 4 5 4 5 4 2 3 5 6 5 3 3 3 2 2 2 4 6 6 6 4 3 2 1
10 10 10 15 14 14 13 13 11 9 9 9 9 8 7 6 5 5 5 5 5 5 4 5 1 1 4 5 5 3 1 2 3 3 2 3 3 4 4 4 3 2 1
12 10 10 12 13 14 14 14 13 12 13 12 10 9 9 8 7 6 7 7 6 6 7 9 4 2 1 3 5 5 2 2 3 4 4 2 3 3 4 4 4 3 2
16 15 13 12 13 15 16 16 16 15 15 13 13 13 13 11 11 10 9 10 8 8 8 11 6 4 3 3 3 4 5 4 4 5 5 4 4 4 5 5 4 4 4
19 20 21 20 18 17 18 19 19 19 18 17 16 17 17 16 14 13 12 12 11 12 11 11 12 7 6 5 5 5 5 6 6 6 6 5 5 5 6 6 6 6 6
18 20 21 21 20 21 24 24 24 22 21 22 20 19 18 18 18 18 16 16 14 14 14 14 15 12 10 8 7 6 6 6 7 8 8 7 7 7 8 8 8 8 8
19 20 22 23 23 22 23 26 26 26 25 24 24 23 21 19 20 20 20 19 18 17 18 18 16 18 14 12 10 9 8 8 8 8 8 8 9 10 10 10 10 9 9
20 22 23 24 25 24 23 25 25 27 27 26 26 27 25 23 22 22 21 22 21 21 20 20 20 20 18 15 13 12 11 11 11 10 10 9 10 10 11 12 12 12 12
21 23 23 26 27 28 28 29 28 27 28 28 27 28 28 27 25 25 24 22 22 23 21 21 21 23 21 18 17 15 13 14 14 13 12 11 12 12 12 13 13 14 14
24 24 24 26 29 32 33 34 33 32 32 31 32 31 31 31 30 30 29 26 22 24 25 23 24 23 21 21 20 18 17 17 18 16 14 14 14 14 14 14 15 15 15
27 28 28 29 30 31 35 36 38 38 36 36 34 34 35 34 35 33 32 32 30 27 26 26 26 24 24 24 23 22 22 21 22 20 18 16 17 16 16 16 16 16 16
28 28 30 31 31 33 35 37 38 40 40 37 36 36 37 40 39 37 35 34 34 32 29 28 28 26 27 26 26 27 24 25 25 24 23 19 20 20 18 17 17 17 17
32 33 34 35 36 36 37 38 39 40 42 42 41 39 39 40 38 35 34 35 36 34 32 32 30 30 29 30 28 28 29 28 27 28 27 24 22 23 21 20 19 18 18
37 37 38 39 41 43 43 42 42 42 42 43 43 41 39 39 38 37 36 35 34 36 35 39 36 32 32 34 33 32 30 28 33 34 31 29 26 25 24 22 22 21 20
37 37 38 38 38 39 42 45 46 46 48 44 44 43 42 41 42 45 39 40 36 37 38 39 32 31 30 29 29 29 36 26 31 29 33 32 31 29 28 27 25 25 24
37 38 40 41 41 40 41 45 43 46 51 50 47 45 45 42 43 42 41 41 36 35 36 37 27 29 29 31 30 31 29 30 30 35 33 31 33 36 33 28 31 28 28
38 41 42 41 40 39 39 41 43 46 47 53 48 48 45 43 43 40 38 37 37 38 33 40 30 24 25 27 28 29 30 30 33 33 33 34 37 39 37 36 35 33 32
37 38 41 41 40 40 40 40 44 43 45 51 50 47 48 41 40 38 35 35 39 38 34 31 33 18 21 24 27 32 31 32 33 33 30 31 37 35 40 41 38 40 36
30 32 33 34 34 37 37 37 38 41 44 47 49 45 46 40 39 40 38 33 36 37 31 32 46 36 20 21 27 29 32 34 33 32 32 33 32 33 36 41 45 46 40
27 31 31 30 30 29 28 28 29 33 39 39 45 47 43 41 39 51 40 36 32 33 31 29 31 31 28 28 27 30 31 35 33 31 30 31 32 34 37 36 38 38 40
26 26 27 27 28 25 22 23 24 27 31 31 31 35 37 43 46 44 35 43 32 32 31 29 29 25 28 31 32 31 32 35 36 35 32 32 31 33 32 37 38 38 43
22 21 25 24 21 17 17 19 21 25 28 27 28 31 32 40 48 57 43 39 33 33 32 32 31 31 30 31 32 31 33 31 37 38 40 34 33 34 35 35 34 36 33
21 22 19 19 19 14 13 15 17 18 20 25 29 30 23 36 47 39 38 35 31 29 29 30 31 31 33 33 34 35 35 37 39 42 44 41 41 36 39 38 39 38 40

GFSSE_700_spd_117.txt.gz
Wind_Speed
5 9 8 9 8 7 5 4 3 3 2 3 2 2 3 3 3 4 5 5 3 2 1 1 3 6 7 7 5 4 3 4 2 3 6 7 6 5 5 4 6 6 3
8 10 10 11 12 10 9 7 6 6 5 4 3 3 4 4 5 4 4 4 4 3 2 1 1 4 6 6 5 4 3 4 4 3 4 8 9 8 6 5 6 3 1
12 11 14 13 13 13 11 10 9 8 7 6 5 5 5 5 5 5 4 4 5 4 3 3 2 3 5 6 5 3 1 3 5 5 4 4 9 9 7 5 4 2 2
11 10 14 16 14 14 13 12 11 10 9 9 8 7 7 6 6 5 4 5 6 5 6 5 2 1 4 6 6 3 1 2 3 4 4 5 5 5 6 5 4 3 3
9 9 9 16 16 17 17 15 14 12 12 11 10 9 9 8 7 7 6 6 7 6 5 7 6 3 1 3 4 5 3 2 2 3 4 5 6 5 5 4 4 3 3
11 10 9 12 17 17 18 16 16 15 14 13 12 11 10 10 10 9 8 8 8 8 7 9 7 5 3 1 2 4 4 4 3 4 4 7 6 7 6 5 4 4 3
16 14 13 12 13 15 16 17 16 16 16 15 13 13 13 13 13 13 12 10 10 9 9 12 11 6 5 3 2 3 4 4 4 5 3 7 6 7 7 7 6 6 6
18 20 19 18 16 16 17 19 20 19 18 19 18 16 16 17 15 15 14 14 13 12 12 12 14 11 8 7 5 5 5 5 4 4 4 8 7 7 8 7 7 7 7
17 19 21 23 23 23 23 22 23 24 24 21 20 20 19 18 18 17 17 17 16 16 16 15 15 16 13 11 9 7 7 7 7 7 6 8 9 9 9 9 9 9 9
17 19 19 20 21 22 22 23 25 25 26 26 25 23 22 20 20 19 19 19 20 20 20 19 19 17 18 14 12 10 10 10 9 9 7 9 9 10 10 10 10 10 10
15 17 20 22 23 24 24 24 24 24 25 27 28 27 25 24 22 22 21 22 22 23 24 23 23 22 21 19 16 14 12 13 12 11 10 11 11 11 12 12 12 12 12
17 18 18 21 24 25 26 27 27 27 27 28 27 28 28 28 27 25 24 24 24 24 25 26 25 24 24 22 19 18 16 16 16 13 12 12 13 12 13 13 13 14 14
21 21 22 23 24 26 28 30 31 32 32 31 31 31 30 30 31 31 29 27 27 26 26 28 27 26 24 23 22 21 20 20 19 18 15 14 15 14 14 14 14 14 15
24 25 25 26 26 27 30 31 33 36 37 37 36 36 35 34 33 34 34 31 31 29 29 28 28 29 27 26 26 25 24 23 23 22 20 18 18 16 15 15 16 16 15
28 28 28 30 31 30 31 32 33 34 38 40 39 38 38 36 36 35 32 34 34 35 31 31 30 30 30 29 29 28 28 27 26 26 24 22 20 20 18 17 16 17 17
32 32 33 35 37 38 37 37 37 37 36 38 40 41 40 39 39 38 36 35 32 33 32 31 31 30 31 33 32 32 31 30 28 27 28 26 23 22 22 20 19 18 18
34 35 35 36 38 40 42 42 41 41 43 41 41 41 41 42 41 42 39 35 34 34 34 35 36 35 34 34 36 37 33 33 33 30 31 31 27 25 24 24 23 21 20
34 34 36 37 38 39 40 42 44 46 43 44 45 42 43 42 40 42 40 39 36 35 35 38 36 36 35 39 43 42 37 36 35 30 35 33 27 25 30 28 28 25 23
38 39 40 39 39 40 41 42 42 43 44 43 45 44 43 43 42 42 44 40 37 39 44 38 40 39 36 36 35 32 34 44 33 31 34 28 25 28 29 30 30 30 29
42 36 34 36 37 36 37 39 41 42 41 42 45 46 43 42 42 44 43 42 42 43 42 43 37 32 35 34 33 35 38 36 27 27 26 27 29 33 32 35 33 34 34
31 29 31 34 36 38 38 39 39 41 42 42 44 47 44 40 40 44 45 43 41 40 39 40 40 37 36 41 46 40 30 30 31 26 25 28 30 30 30 31 34 34 37
27 28 30 34 36 36 37 37 39 38 36 39 41 43 43 46 41 41 44 45 42 37 37 40 39 37 36 37 36 34 39 29 25 25 27 29 31 31 33 32 32 32 34
25 28 30 29 28 30 32 33 32 30 28 31 35 40 41 44 43 35 38 41 46 43 41 39 39 38 33 31 26 28 33 33 31 30 24 24 28 30 30 31 32 35 35
25 23 27 27 27 26 22 22 22 23 24 27 30 30 33 38 41 40 40 42 42 45 46 43 37 36 33 33 33 35 35 31 34 34 33 34 29 26 26 28 30 31 31
15 19 20 21 21 20 18 17 19 21 23 24 24 24 25 26 32 37 41 46 49 45 40 42 38 34 32 32 30 32 33 32 33 33 31 31 32 32 32 29 29 32 35
16 16 19 19 16 15 18 17 17 15 13 19 23 16 20 21 23 28 41 37 49 64 50 36 33 31 33 33 33 32 33 35 36 35 34 39 39 37 36 37 36 34 31